[[{"header":{"parameterUnit":"m.s-1","parameterCategory":1,"la1":30.6,"la2":29.2853,"lo1":-89.7004,"lo2":-87.6739,"dy":0.0162,"dx":0.0183,"nx":112,"ny":82,"refTime":"2023-11-20T06:00:00:Z","depth":0,"parameterNumber":2,"parameterNumberName":"U-component_of_WINDS"},"data":[0.0,0.0,0.0,0.0,0.0,0.0,0.0,0.0,0.0,0.0,0.0,0.0,0.0,0.0,0.0,0.0,0.0,0.0,0.0,0.0,0.0,0.0,0.0,0.0,0.0,0.0,0.0,0.0,0.0,0.0,0.0,0.0,0.0,0.0,0.0,0.0,0.0,0.0,0.0,0.0,0.0,0.0,0.0,0.0,0.0,0.0,0.0,0.0,0.0,0.0,0.0,0.0,0.0,0.0,0.0,0.0,0.0,0.0,0.0,0.0,0.0,0.0,0.0,0.0,0.0,0.0,0.0,0.0,0.0,0.0,0.0,0.0,0.0,0.0,0.0,0.0,0.0,0.0,0.0,0.0,0.0,0.0,0.0,0.0,0.0,0.0,0.0,0.0,0.0,0.0,3.2218,3.2218,3.2218,3.2218,3.2218,3.2218,3.2218,3.2218,0.0,0.0,0.0,0.0,0.0,0.0,0.0,0.0,0.0,0.0,0.0,0.0,0.0,0.0,0.0,0.0,0.0,0.0,0.0,0.0,0.0,0.0,0.0,0.0,0.0,0.0,0.0,0.0,0.0,0.0,0.0,0.0,0.0,0.0,0.0,0.0,0.0,0.0,0.0,0.0,0.0,0.0,0.0,0.0,0.0,0.0,0.0,0.0,0.0,0.0,0.0,0.0,0.0,0.0,0.0,0.0,0.0,0.0,0.0,0.0,0.0,0.0,0.0,0.0,0.0,0.0,0.0,0.0,0.0,0.0,0.0,0.0,0.0,0.0,0.0,0.0,0.0,0.0,0.0,0.0,0.0,0.0,0.0,0.0,0.0,0.0,0.0,0.0,0.0,0.0,0.0,0.0,0.0,0.0,0.0,0.0,0.0,0.0,0.0,0.0,0.0,0.0,0.0,0.0,3.2218,3.2218,3.2218,3.2218,3.2218,3.2218,3.2218,3.2218,0.0,0.0,0.0,0.0,0.0,0.0,0.0,0.0,0.0,0.0,0.0,0.0,0.0,0.0,0.0,0.0,0.0,0.0,0.0,0.0,0.0,0.0,0.0,0.0,0.0,0.0,0.0,0.0,0.0,0.0,0.0,0.0,0.0,0.0,0.0,0.0,0.0,0.0,0.0,0.0,0.0,0.0,0.0,0.0,0.0,0.0,0.0,0.0,0.0,0.0,0.0,0.0,0.0,0.0,0.0,0.0,0.0,0.0,0.0,0.0,0.0,0.0,0.0,0.0,0.0,0.0,0.0,0.0,0.0,0.0,0.0,0.0,0.0,0.0,0.0,0.0,0.0,0.0,0.0,0.0,0.0,0.0,0.0,0.0,0.0,0.0,0.0,0.0,0.0,0.0,0.0,0.0,0.0,0.0,0.0,0.0,0.0,0.0,0.0,0.0,0.0,0.0,0.0,3.2218,3.2218,3.2218,3.2218,3.2218,3.2218,3.2218,3.2218,3.2218,3.2218,0.0,0.0,0.0,0.0,0.0,0.0,0.0,0.0,0.0,0.0,0.0,0.0,0.0,0.0,0.0,0.0,0.0,0.0,0.0,0.0,0.0,0.0,0.0,0.0,0.0,0.0,0.0,0.0,0.0,0.0,0.0,0.0,0.0,0.0,0.0,0.0,0.0,0.0,0.0,0.0,0.0,0.0,0.0,0.0,0.0,0.0,0.0,0.0,0.0,0.0,0.0,0.0,0.0,0.0,0.0,0.0,0.0,0.0,0.0,0.0,0.0,0.0,0.0,0.0,0.0,0.0,0.0,0.0,0.0,0.0,0.0,0.0,0.0,0.0,0.0,0.0,0.0,0.0,0.0,0.0,0.0,0.0,0.0,0.0,0.0,0.0,0.0,0.0,0.0,0.0,0.0,0.0,0.0,0.0,0.0,0.0,0.0,0.0,0.0,0.0,0.0,0.0,3.2218,3.2218,3.2218,3.2218,3.2218,3.2218,3.2218,3.2218,3.2218,3.2218,0.0,0.0,0.0,0.0,0.0,0.0,0.0,0.0,0.0,0.0,0.0,0.0,0.0,0.0,0.0,0.0,0.0,0.0,0.0,0.0,0.0,0.0,0.0,0.0,0.0,0.0,0.0,0.0,0.0,0.0,0.0,0.0,0.0,0.0,0.0,0.0,0.0,0.0,0.0,0.0,0.0,0.0,0.0,0.0,0.0,0.0,0.0,0.0,0.0,0.0,0.0,0.0,0.0,0.0,0.0,0.0,0.0,0.0,0.0,0.0,0.0,0.0,0.0,0.0,0.0,0.0,0.0,0.0,0.0,0.0,0.0,0.0,0.0,0.0,0.0,0.0,0.0,0.0,0.0,0.0,0.0,0.0,0.0,0.0,0.0,0.0,0.0,0.0,0.0,0.0,0.0,0.0,0.0,0.0,0.0,0.0,0.0,0.0,0.0,0.0,0.0,0.0,3.2218,3.2218,3.2218,3.2218,3.2218,3.2218,3.2218,3.2218,3.2218,3.2218,0.0,0.0,0.0,0.0,0.0,0.0,0.0,0.0,0.0,0.0,0.0,0.0,0.0,0.0,0.0,0.0,0.0,0.0,0.0,0.0,0.0,0.0,0.0,0.0,0.0,0.0,0.0,0.0,0.0,0.0,0.0,0.0,0.0,0.0,0.0,0.0,0.0,0.0,0.0,0.0,0.0,0.0,0.0,0.0,0.0,0.0,0.0,0.0,0.0,0.0,0.0,0.0,0.0,0.0,0.0,0.0,0.0,0.0,0.0,0.0,0.0,0.0,0.0,0.0,0.0,0.0,0.0,0.0,0.0,0.0,0.0,0.0,0.0,0.0,0.0,0.0,0.0,0.0,0.0,0.0,0.0,0.0,0.0,0.0,0.0,0.0,0.0,0.0,0.0,0.0,0.0,0.0,0.0,0.0,0.0,0.0,0.0,0.0,0.0,0.0,0.0,0.0,3.2969,3.2762,0.0,3.2436,3.2218,3.2218,3.2218,3.2218,3.2218,0.0,0.0,0.0,0.0,0.0,0.0,0.0,0.0,0.0,0.0,0.0,0.0,0.0,0.0,0.0,0.0,0.0,0.0,0.0,0.0,0.0,0.0,0.0,0.0,0.0,0.0,0.0,0.0,0.0,0.0,0.0,0.0,0.0,0.0,0.0,0.0,0.0,0.0,0.0,0.0,0.0,0.0,0.0,0.0,0.0,0.0,0.0,0.0,0.0,0.0,0.0,0.0,0.0,0.0,0.0,0.0,0.0,0.0,0.0,0.0,0.0,0.0,0.0,0.0,0.0,0.0,0.0,0.0,0.0,0.0,0.0,0.0,0.0,0.0,0.0,0.0,0.0,0.0,0.0,0.0,0.0,0.0,0.0,0.0,0.0,0.0,0.0,0.0,0.0,0.0,0.0,0.0,0.0,0.0,0.0,0.0,0.0,0.0,0.0,0.0,0.0,0.0,3.3908,3.3593,3.3349,0.0,3.2996,3.2725,3.2725,3.2562,3.249,3.249,0.0,0.0,0.0,0.0,0.0,0.0,0.0,0.0,0.0,0.0,0.0,0.0,0.0,0.0,0.0,0.0,0.0,0.0,0.0,0.0,0.0,0.0,0.0,0.0,0.0,0.0,0.0,0.0,0.0,0.0,0.0,0.0,0.0,0.0,0.0,0.0,0.0,0.0,0.0,0.0,0.0,0.0,0.0,0.0,0.0,0.0,0.0,0.0,0.0,0.0,0.0,0.0,0.0,0.0,0.0,0.0,0.0,0.0,0.0,0.0,0.0,0.0,0.0,0.0,0.0,0.0,0.0,0.0,0.0,0.0,0.0,0.0,0.0,0.0,0.0,0.0,0.0,0.0,0.0,0.0,0.0,0.0,0.0,0.0,0.0,0.0,0.0,0.0,0.0,0.0,0.0,0.0,0.0,0.0,0.0,0.0,0.0,0.0,0.0,0.0,0.0,0.0,3.3935,3.3908,3.3908,3.3908,3.3908,3.3908,3.3908,3.3403,3.3115,0.0,0.0,0.0,0.0,0.0,0.0,0.0,0.0,0.0,0.0,0.0,0.0,0.0,0.0,0.0,0.0,0.0,0.0,0.0,0.0,0.0,0.0,0.0,0.0,0.0,0.0,0.0,0.0,0.0,0.0,0.0,0.0,0.0,0.0,0.0,0.0,0.0,0.0,0.0,0.0,0.0,0.0,0.0,0.0,0.0,0.0,0.0,0.0,0.0,0.0,0.0,0.0,0.0,0.0,0.0,0.0,0.0,0.0,0.0,0.0,0.0,0.0,0.0,0.0,0.0,0.0,0.0,0.0,0.0,0.0,0.0,0.0,0.0,0.0,0.0,0.0,0.0,0.0,0.0,0.0,0.0,0.0,0.0,0.0,0.0,0.0,0.0,0.0,0.0,0.0,0.0,0.0,0.0,0.0,0.0,0.0,0.0,0.0,0.0,0.0,0.0,0.0,0.0,3.5154,3.4802,3.4531,3.4531,3.4151,3.3831,3.3677,3.3515,3.3396,3.3242,0.0,0.0,0.0,0.0,0.0,0.0,0.0,0.0,0.0,0.0,0.0,0.0,0.0,0.0,0.0,0.0,0.0,0.0,0.0,0.0,0.0,0.0,0.0,0.0,0.0,0.0,0.0,0.0,0.0,0.0,0.0,0.0,0.0,0.0,0.0,0.0,0.0,0.0,0.0,0.0,0.0,0.0,0.0,0.0,0.0,0.0,0.0,0.0,0.0,0.0,0.0,0.0,0.0,0.0,0.0,0.0,0.0,0.0,0.0,0.0,0.0,0.0,0.0,0.0,0.0,0.0,0.0,0.0,0.0,0.0,0.0,0.0,0.0,0.0,0.0,0.0,0.0,0.0,0.0,0.0,0.0,0.0,0.0,0.0,0.0,0.0,0.0,0.0,0.0,0.0,0.0,0.0,0.0,0.0,0.0,0.0,0.0,0.0,0.0,0.0,0.0,0.0,3.571,3.5371,3.5154,3.5154,3.4829,3.4534,3.4337,3.4083,3.387,3.3661,0.0,0.0,0.0,0.0,0.0,0.0,0.0,0.0,0.0,0.0,0.0,0.0,0.0,0.0,0.0,0.0,0.0,0.0,0.0,0.0,0.0,0.0,0.0,0.0,0.0,0.0,0.0,0.0,0.0,0.0,0.0,0.0,0.0,0.0,0.0,0.0,0.0,0.0,0.0,0.0,0.0,0.0,0.0,0.0,0.0,0.0,0.0,0.0,0.0,0.0,0.0,0.0,0.0,0.0,0.0,0.0,0.0,0.0,0.0,0.0,0.0,0.0,0.0,0.0,0.0,0.0,0.0,0.0,0.0,0.0,0.0,0.0,0.0,0.0,0.0,0.0,0.0,0.0,0.0,0.0,0.0,0.0,0.0,0.0,0.0,0.0,0.0,0.0,0.0,0.0,0.0,0.0,0.0,0.0,0.0,0.0,0.0,0.0,0.0,0.0,0.0,0.0,3.571,3.571,3.571,3.571,3.571,3.5588,3.5386,3.4862,3.4446,3.4206,0.0,0.0,0.0,0.0,0.0,0.0,0.0,0.0,0.0,0.0,0.0,0.0,0.0,0.0,0.0,0.0,0.0,0.0,0.0,0.0,0.0,0.0,0.0,0.0,0.0,0.0,0.0,0.0,0.0,0.0,0.0,0.0,0.0,0.0,0.0,0.0,0.0,0.0,0.0,0.0,0.0,0.0,0.0,0.0,0.0,0.0,0.0,0.0,0.0,0.0,0.0,0.0,0.0,0.0,0.0,0.0,0.0,0.0,0.0,0.0,3.3038,3.3596,0.0,0.0,0.0,0.0,0.0,0.0,0.0,0.0,0.0,0.0,0.0,0.0,0.0,0.0,0.0,0.0,0.0,0.0,0.0,0.0,0.0,0.0,0.0,0.0,0.0,0.0,0.0,0.0,0.0,0.0,0.0,0.0,0.0,0.0,0.0,0.0,0.0,0.0,0.0,0.0,3.571,3.571,3.571,3.571,3.571,3.5548,3.5208,3.5061,3.4817,3.438,3.4192,0.0,0.0,0.0,0.0,0.0,0.0,0.0,0.0,0.0,0.0,0.0,0.0,0.0,0.0,0.0,0.0,0.0,0.0,0.0,0.0,0.0,0.0,0.0,0.0,0.0,0.0,0.0,0.0,0.0,0.0,0.0,0.0,0.0,0.0,0.0,0.0,0.0,0.0,0.0,0.0,0.0,0.0,0.0,0.0,0.0,0.0,0.0,0.0,0.0,0.0,0.0,0.0,0.0,0.0,0.0,0.0,0.0,0.0,0.0,3.296,3.3003,0.0,0.0,0.0,0.0,0.0,0.0,0.0,0.0,0.0,0.0,0.0,0.0,0.0,0.0,0.0,0.0,0.0,0.0,0.0,0.0,0.0,0.0,0.0,0.0,0.0,0.0,0.0,0.0,0.0,0.0,0.0,0.0,0.0,0.0,0.0,0.0,0.0,0.0,0.0,0.0,3.571,3.571,3.571,3.571,3.571,3.5588,3.529,3.5168,3.4962,3.4632,3.4481,0.0,0.0,0.0,0.0,0.0,0.0,0.0,0.0,0.0,0.0,0.0,0.0,0.0,0.0,0.0,0.0,0.0,0.0,0.0,0.0,0.0,0.0,0.0,0.0,0.0,0.0,0.0,0.0,0.0,0.0,0.0,0.0,0.0,0.0,0.0,0.0,0.0,0.0,0.0,0.0,0.0,0.0,0.0,0.0,0.0,0.0,0.0,0.0,0.0,0.0,0.0,0.0,0.0,3.3195,3.3373,3.3836,3.3234,3.3165,3.3569,3.3276,3.2763,3.2253,3.2872,0.0,0.0,0.0,0.0,0.0,0.0,0.0,0.0,0.0,0.0,0.0,0.0,0.0,0.0,0.0,0.0,0.0,0.0,0.0,0.0,0.0,0.0,3.4397,3.4397,3.4397,3.4439,3.4673,0.0,0.0,0.0,0.0,0.0,0.0,0.0,0.0,0.0,0.0,0.0,3.5237,3.5304,3.5386,3.5507,3.5507,3.5467,3.5345,3.5208,3.5003,3.4756,3.4522,3.4397,0.0,0.0,0.0,0.0,0.0,0.0,0.0,0.0,0.0,0.0,0.0,0.0,0.0,0.0,0.0,0.0,0.0,0.0,0.0,0.0,0.0,0.0,0.0,0.0,0.0,0.0,0.0,0.0,0.0,0.0,0.0,0.0,3.7377,3.7383,0.0,0.0,0.0,0.0,0.0,0.0,0.0,0.0,0.0,0.0,0.0,0.0,0.0,3.3607,3.4107,3.3376,3.3271,3.3685,3.3061,3.2803,3.2882,3.2765,3.2778,3.283,3.279,0.0,3.2659,3.2738,0.0,0.0,0.0,0.0,0.0,0.0,0.0,0.0,0.0,0.0,0.0,0.0,0.0,0.0,0.0,0.0,0.0,0.0,0.0,0.0,0.0,0.0,3.4397,3.4397,3.4397,3.4397,3.4439,3.4632,3.4797,3.4797,3.4564,3.4397,0.0,0.0,0.0,0.0,0.0,0.0,3.342,3.37,3.4163,3.4771,3.4827,3.4936,3.5127,3.5127,3.4895,3.4481,3.4397,3.4397,3.4397,3.4319,0.0,0.0,0.0,0.0,0.0,0.0,0.0,0.0,0.0,0.0,0.0,0.0,0.0,0.0,0.0,0.0,0.0,0.0,0.0,0.0,0.0,0.0,0.0,0.0,0.0,0.0,0.0,0.0,0.0,3.7442,3.7147,3.6414,3.61,3.5878,0.0,0.0,0.0,0.0,0.0,0.0,0.0,0.0,0.0,3.4177,3.3759,3.3661,3.3936,3.3208,3.2918,3.3184,3.3198,3.3352,3.3666,3.4005,3.4162,3.4162,3.4162,3.3979,3.3613,3.296,3.2881,3.3195,0.0,0.0,0.0,0.0,3.4058,3.4084,3.4319,3.4397,3.4397,3.4397,0.0,0.0,0.0,0.0,0.0,0.0,0.0,3.4397,3.4397,3.4397,3.4397,3.4397,3.3995,3.3615,3.3615,3.3292,3.3164,3.37,3.3488,3.3036,3.2519,3.263,0.0,0.0,0.0,3.3615,3.3445,3.3573,3.381,3.4079,3.4147,3.4079,3.3953,3.4314,3.4079,3.3054,3.3869,3.3911,3.2864,3.3827,3.3911,0.0,0.0,0.0,0.0,0.0,0.0,0.0,0.0,0.0,0.0,0.0,0.0,0.0,0.0,0.0,0.0,0.0,0.0,0.0,0.0,0.0,0.0,0.0,0.0,0.0,0.0,0.0,0.0,3.6966,3.6538,3.5619,3.5519,3.5457,0.0,0.0,0.0,0.0,0.0,0.0,3.4468,3.4711,3.461,3.4066,3.3848,3.3829,3.3963,3.3555,3.343,3.3561,3.4031,3.445,3.4842,3.5286,3.5495,3.5495,3.5495,3.526,3.4737,3.3587,3.3404,3.3796,3.3796,3.4031,3.4424,3.458,3.4633,3.4659,3.4789,3.4842,3.4842,3.4842,3.4842,3.4842,3.4842,0.0,0.0,0.0,0.0,3.4842,3.4842,3.4842,3.4842,3.4842,3.4093,3.342,3.342,3.2651,3.2136,3.263,3.2302,3.1733,3.1069,3.1315,0.0,0.0,0.0,3.276,3.2649,3.276,3.2889,3.3036,3.3061,3.295,3.2753,3.3207,3.3036,3.1904,3.2968,3.3164,3.2016,3.3079,3.3122,3.1972,0.0,0.0,0.0,0.0,0.0,0.0,0.0,0.0,0.0,0.0,0.0,0.0,0.0,0.0,0.0,0.0,0.0,0.0,0.0,0.0,0.0,0.0,0.0,0.0,0.0,0.0,0.0,0.0,0.0,3.5519,3.5519,0.0,0.0,0.0,0.0,3.4969,3.5102,3.5116,3.489,3.4228,3.3837,3.3826,3.3701,3.3878,3.4334,3.4868,3.5417,3.594,3.5966,3.5992,3.6018,3.6044,3.607,3.607,3.607,3.6044,3.594,3.4789,3.4319,3.4345,3.4345,3.4371,3.4476,3.5025,3.526,3.5338,3.5835,3.6018,3.6018,3.6018,3.6018,3.6018,3.6018,3.6018,0.0,0.0,3.6018,3.6018,3.6018,3.6018,3.6018,3.6018,3.527,3.451,3.451,3.3668,3.2733,3.2054,3.14,3.1024,3.1178,0.0,3.0125,2.9715,3.008,3.0216,2.976,3.0125,3.0599,3.1267,3.1356,3.1488,3.1904,3.1991,3.1904,3.1621,3.1709,3.2103,3.2907,3.2147,3.2103,3.2907,3.2147,0.0,0.0,0.0,0.0,0.0,0.0,0.0,0.0,0.0,0.0,0.0,0.0,0.0,0.0,0.0,0.0,0.0,0.0,0.0,0.0,0.0,0.0,0.0,0.0,0.0,0.0,0.0,0.0,3.5554,3.5519,0.0,3.5989,3.6115,3.6052,3.5745,3.5803,3.5524,3.4794,3.4854,3.4862,3.4759,3.5047,3.5312,3.5495,3.5704,3.5913,3.6096,3.6488,3.6671,3.6698,3.709,3.7063,3.6671,3.6671,3.6462,3.607,3.5652,3.5495,3.5495,3.5495,3.5495,3.5521,3.573,3.5809,3.5835,3.6044,3.6096,3.6096,3.6096,3.6096,3.6096,3.6096,3.6096,3.6096,3.6096,3.6096,3.6096,3.6096,3.5613,3.5302,3.5965,3.4309,3.2863,3.3582,3.2395,3.1117,3.085,3.111,3.1157,3.064,3.0616,3.0591,3.0449,3.0827,3.1086,3.0946,3.0765,3.0744,3.0996,3.074,3.0509,3.0351,3.0911,3.0822,2.9852,3.0911,3.1223,3.0351,3.1134,3.1488,3.1178,3.2059,3.2364,0.0,0.0,0.0,0.0,0.0,0.0,0.0,0.0,0.0,0.0,0.0,0.0,0.0,0.0,0.0,0.0,0.0,0.0,0.0,0.0,0.0,0.0,0.0,0.0,0.0,0.0,3.6032,3.5884,3.5588,3.5659,3.6344,3.6305,3.6193,3.5994,3.6146,3.5969,3.521,3.5529,3.5637,3.5547,3.6305,3.6698,3.6698,3.709,3.7299,3.7299,3.7691,3.7874,3.79,3.8292,3.8266,3.7874,3.7874,3.7665,3.7299,3.7299,3.7299,3.722,3.641,3.6096,3.6123,3.6332,3.641,3.6436,3.6645,3.6698,3.6698,3.6698,3.6698,3.6698,3.6698,3.6698,3.6698,3.6698,3.6475,3.6225,3.6609,3.5684,3.4906,3.591,3.4115,3.2358,3.3054,3.1874,3.069,3.069,3.0896,3.0916,3.0307,3.0453,3.0648,3.0648,3.0964,3.1205,3.1205,3.0864,3.0683,3.0683,3.0368,3.0072,2.9767,3.0304,3.0214,2.9102,3.0194,3.0399,2.9347,3.017,3.0531,3.0215,3.1709,3.2364,3.2059,0.0,0.0,0.0,0.0,0.0,0.0,0.0,0.0,0.0,0.0,0.0,0.0,0.0,0.0,0.0,0.0,0.0,0.0,0.0,0.0,0.0,0.0,0.0,3.6289,3.5876,3.5756,3.6413,3.5732,3.5478,3.615,3.6014,3.5792,3.5561,3.6088,3.6347,3.6166,3.6149,3.6175,3.6201,3.7351,3.7952,3.7952,3.905,3.9599,3.9599,3.9599,3.9599,3.9599,3.9599,3.9599,3.9599,3.9599,3.9599,3.9599,3.9599,3.9599,3.939,3.709,3.6175,3.6253,3.6828,3.7037,3.7116,3.7691,3.79,3.79,3.79,3.79,3.79,3.79,3.7854,3.7854,3.7854,3.7062,3.6474,3.7505,3.6285,3.5017,3.6023,3.4654,3.3151,3.3201,3.237,3.1629,3.1629,3.0887,3.0253,3.0253,3.0253,3.0253,3.0253,3.0253,0.0,3.0253,3.0253,3.0231,3.0231,3.0209,3.0209,3.0209,3.0209,3.0013,2.9532,2.951,2.9742,3.017,2.9301,2.9255,3.017,3.1045,3.1972,3.2907,0.0,0.0,0.0,0.0,0.0,0.0,0.0,0.0,0.0,0.0,0.0,0.0,0.0,0.0,0.0,0.0,0.0,0.0,0.0,0.0,0.0,0.0,3.6045,3.6408,3.5781,3.5541,3.6219,3.5898,3.5892,3.6551,3.6978,3.7078,3.6889,3.7022,3.722,3.7396,3.7403,3.7795,3.8632,3.8972,3.9033,3.8843,3.9346,3.9503,3.931,3.9503,3.9599,3.9599,3.9599,3.9599,3.9599,3.9599,3.9599,3.9599,3.9599,3.9599,3.9494,3.8423,3.8004,3.7978,3.7743,3.7665,3.7691,3.7848,3.79,3.79,3.79,3.79,3.79,3.79,3.7366,3.6709,3.6709,3.5976,3.5259,3.5571,3.4678,3.3895,3.4969,3.3598,3.2269,3.3001,3.237,3.1629,3.1629,3.1411,3.1236,3.1236,3.1236,3.1236,3.1236,3.1236,0.0,3.1236,3.093,3.0712,3.0712,3.0406,3.0209,3.0209,3.0209,3.0144,3.0013,3.0013,2.9939,2.9717,2.9412,2.9611,3.017,2.9783,3.0034,0.0,0.0,0.0,0.0,0.0,0.0,0.0,0.0,0.0,0.0,0.0,0.0,0.0,0.0,0.0,0.0,0.0,0.0,0.0,0.0,0.0,0.0,3.636,3.6428,3.7028,3.6464,3.6237,3.6874,3.6427,3.6325,3.6972,3.7249,3.7454,3.7597,3.782,3.8156,3.86,3.8632,3.8919,3.9599,3.9834,3.9793,3.955,3.993,4.006,3.9912,4.006,4.0207,4.0331,4.0331,4.0331,4.0331,4.0331,4.0331,4.0331,4.0331,4.0331,4.0252,0.0,0.0,0.0,0.0,3.8632,3.8632,3.8632,3.8632,3.8512,3.8063,3.7921,3.7826,3.7324,3.6769,3.6259,3.6259,3.5523,3.4828,3.5276,3.4276,3.3436,3.4477,3.3436,3.2375,3.3025,3.2531,3.1935,3.1935,3.176,0.0,3.1629,3.1804,3.1935,3.1935,3.211,3.2154,3.1979,3.1695,3.1433,3.1214,3.0952,3.0799,3.0799,3.0799,0.0,0.0,0.0,3.0275,2.9816,2.9794,0.0,0.0,0.0,3.0231,3.0813,3.1066,0.0,0.0,3.2853,3.2671,0.0,0.0,0.0,0.0,0.0,0.0,0.0,0.0,0.0,0.0,0.0,0.0,0.0,0.0,0.0,0.0,3.6681,3.6751,3.7757,3.7537,3.7413,3.7873,3.7053,3.6718,3.738,3.7299,3.7456,3.8057,3.8527,3.9029,3.9629,0.0,0.0,0.0,0.0,4.0268,4.0046,4.0587,4.0846,4.0795,4.0846,4.0997,4.1224,4.1274,4.1274,4.1224,4.1274,4.1274,4.1224,4.1224,4.1224,4.1119,4.0024,3.9603,3.9551,3.9551,3.9551,3.9503,3.9407,0.0,0.0,3.8112,3.7816,3.7717,3.6541,3.6135,3.6033,3.6033,3.524,3.4641,3.5624,3.4507,3.3316,3.4223,3.3771,3.3124,3.3124,3.2743,3.2459,3.2459,3.2088,3.1782,3.1782,3.2066,3.2306,3.2306,3.2634,3.2787,3.2437,3.2394,3.2241,3.1826,0.0,0.0,3.1717,3.1717,3.1498,3.1018,3.093,3.0712,3.0319,3.0231,3.0209,3.0209,3.1012,3.1422,3.1422,3.1994,3.2254,3.2183,3.1386,3.1458,0.0,0.0,0.0,0.0,0.0,0.0,0.0,0.0,0.0,0.0,0.0,0.0,0.0,0.0,0.0,3.6764,3.7115,3.7425,3.7512,3.7841,3.7907,3.7565,3.715,3.7103,3.7708,3.8149,3.8632,3.9233,3.939,3.9581,3.991,3.9936,4.0143,4.0659,4.0538,4.0438,4.0388,4.0491,4.0491,4.0287,4.0491,0.0,4.0669,4.0896,4.0846,4.0669,4.0896,4.0846,4.0643,4.0643,4.0643,4.0592,4.0096,3.9651,3.931,3.931,3.9165,3.8874,3.8383,3.8677,3.8994,3.7145,3.7145,3.7717,3.6541,3.56,0.0,3.4901,3.4193,3.3422,3.3635,3.3369,3.3178,3.3316,3.3209,3.3124,3.3124,3.3059,3.294,3.294,3.2853,3.2787,3.2787,3.2219,3.176,3.176,3.1848,3.2022,3.235,3.2394,3.2481,3.2765,3.2787,3.2634,3.2263,3.2241,3.2022,3.152,3.1105,3.0865,3.0756,3.0406,3.0209,3.0209,3.0405,3.0356,3.0161,3.0285,3.0139,2.9725,3.1099,3.1786,0.0,0.0,0.0,0.0,0.0,0.0,0.0,0.0,0.0,0.0,0.0,3.746,0.0,0.0,3.8187,3.7738,3.7781,3.7805,3.7506,3.7444,3.7519,3.7634,3.7748,3.7978,3.8266,3.8841,3.939,3.9965,4.0017,4.0106,4.043,4.0456,4.0561,4.0694,4.0542,4.0466,4.0287,4.0287,4.0236,4.0083,4.0236,4.0338,4.0517,4.0643,4.0643,4.0517,4.0643,4.0593,4.0517,4.0517,4.0517,4.0465,4.0184,3.9952,3.9844,3.9844,3.9844,3.9695,3.8692,3.8743,3.8844,3.6512,3.6273,3.664,3.5504,3.4885,3.4562,3.4562,3.4206,3.3792,3.3792,3.3792,3.3792,3.3792,3.3792,3.3792,3.3792,3.3595,3.342,3.342,3.3278,3.3124,3.3124,3.2656,3.235,3.235,3.235,3.235,3.2394,3.2394,3.2372,3.235,3.2569,3.2634,3.2394,3.2394,3.2285,3.2022,3.1542,3.1258,3.1258,3.104,3.0908,3.0908,3.078,3.0629,3.0479,3.0226,2.9973,2.9719,3.0586,3.0948,0.0,0.0,0.0,0.0,0.0,0.0,0.0,0.0,3.6904,3.6952,3.7464,3.8049,3.843,3.9054,3.9266,3.8625,3.8198,3.7783,3.7395,3.704,3.717,3.7989,3.8418,3.8694,3.8929,3.9351,3.9845,4.0441,4.0444,4.0504,4.0719,4.0744,4.0643,4.044,4.0338,4.0236,4.0083,4.0032,4.0032,4.0032,4.0133,4.0312,4.0517,4.0671,4.0671,4.0517,4.0389,4.0364,4.0364,4.0364,4.0364,4.0287,4.0134,4.0134,4.0364,4.0389,4.0389,4.0134,3.8923,3.8586,3.8271,3.5781,3.5311,3.5498,3.4401,3.4255,3.4423,3.4479,3.4534,3.4534,3.4534,3.4534,3.4534,3.4534,3.4534,3.4534,3.4534,3.4207,3.3945,3.3945,3.3617,3.3355,3.3355,3.3321,3.3234,3.3124,3.3124,3.3015,3.27,3.2569,3.2394,3.2088,3.2328,3.2481,3.2394,3.2285,3.2241,3.2241,3.1848,3.1629,3.1629,3.1578,3.1527,3.1527,3.127,3.1086,3.1013,3.0599,3.0391,3.0339,3.0099,3.0043,3.6904,3.6446,3.5913,3.5492,3.554,3.5844,0.0,0.0,3.7128,3.8042,3.815,3.8388,3.9431,3.889,3.8206,3.7952,3.7553,3.7198,3.6862,3.7347,3.8002,3.8633,3.8471,3.8748,3.9757,3.9689,3.9973,4.0791,4.0591,4.0389,4.0185,4.0185,4.0185,4.0134,3.9878,3.9878,4.0083,3.9826,3.9749,3.9749,4.0251,4.0478,4.053,4.122,4.1195,4.0453,4.0002,3.98,3.98,3.98,3.98,3.98,3.9749,3.9749,3.9852,4.0083,3.9337,3.8161,3.7501,3.7126,3.6565,3.4491,3.4525,3.5201,3.4345,3.4142,3.4199,3.4423,3.4534,3.4534,3.4534,3.4534,3.4534,3.4534,3.4534,3.4534,3.4534,3.4491,3.4447,3.4447,3.4403,3.436,3.436,3.401,3.3573,3.319,3.3124,3.3202,3.3595,3.3268,3.3136,3.3508,3.3224,3.2831,3.2416,3.1979,3.1717,3.1717,3.16,3.1629,3.1629,3.1373,3.1219,3.1219,3.0983,3.0724,3.0495,3.0443,3.0287,3.0047,2.9994,2.9984,3.5753,3.5767,3.5833,0.0,3.6158,3.6781,3.7022,3.7487,3.7981,3.8506,3.8891,3.9299,4.0048,3.9623,3.9043,0.0,3.8084,3.7573,3.7045,3.7515,3.8143,3.8789,3.8836,3.9182,4.0138,4.0177,4.0336,4.087,4.0643,4.0389,4.0134,4.0083,4.0032,3.9878,4.005,4.0226,4.0305,4.0528,4.0651,4.0651,4.0824,4.1003,4.1003,4.1336,4.1257,4.0924,4.0752,4.0475,4.0174,4.0174,3.9973,3.9645,3.8921,3.8659,3.8659,3.8792,3.853,3.7926,3.6208,3.5608,3.5311,3.3649,3.3671,3.4246,3.3896,3.403,3.4367,3.4479,3.4534,3.4534,3.4534,3.4534,3.4534,3.4534,3.4534,3.4534,3.4534,3.4534,3.4534,3.4534,3.4534,3.4534,3.4534,3.436,3.4141,3.3945,3.342,3.319,3.3355,3.3256,3.3299,3.3748,3.3355,3.3093,3.3202,3.2503,3.2066,3.2066,3.165,3.1373,3.1373,3.1137,3.0983,3.0983,3.0724,3.0495,3.0391,3.0235,3.0099,2.9994,2.9994,3.0139,3.5066,3.5536,0.0,3.6104,3.6816,3.7528,3.7637,3.8099,3.8634,3.907,3.9445,3.9917,4.0575,4.0049,3.9438,3.9023,3.8407,3.78,3.7482,3.783,3.8458,3.9121,3.9272,3.9625,4.0374,4.0361,4.0389,4.0694,4.044,4.0185,3.9981,4.0132,4.0105,3.9923,4.045,4.0752,4.0752,4.11,4.1275,4.1275,4.1505,4.1555,4.1555,4.1555,4.1555,4.1555,4.1351,4.105,4.0752,4.0752,4.019,3.9377,3.8485,3.7857,3.7394,3.7073,3.7073,3.6996,3.5113,3.4413,3.4112,3.3048,3.3012,3.3353,3.3466,3.3861,3.4233,3.4367,3.4479,3.4534,3.4534,3.4534,3.4534,3.4534,3.4534,3.4534,3.4534,3.4534,3.4534,3.4534,3.4534,3.4534,3.4534,3.4534,3.4534,3.4534,3.3923,3.3464,3.3464,3.3355,3.3355,3.3573,3.3268,3.3256,3.3573,3.2908,3.2463,3.2463,3.1745,3.1257,3.1257,3.0891,3.0672,3.0672,3.0412,3.0287,3.0287,3.0099,3.0056,3.018,3.018,3.0429,3.5398,3.5968,3.657,3.657,3.7032,3.7601,3.7997,3.8318,3.8818,3.9839,3.9761,3.9914,4.1134,3.9718,3.8548,3.9074,3.81,3.741,3.7914,3.8467,3.9171,3.9982,3.9853,3.9929,0.0,4.0032,3.9852,4.0083,3.9903,3.9749,3.9697,4.0199,4.0501,4.0501,4.0974,4.125,4.125,4.1275,4.1275,4.13,4.1882,4.2187,4.2187,4.2187,4.2187,4.2162,4.1555,4.1275,4.125,4.125,4.031,3.8803,3.8803,3.7713,3.6131,3.5024,3.458,3.458,3.4525,3.3706,3.2784,3.2727,3.2727,3.2784,3.3126,3.3409,3.3692,3.403,3.4311,3.4534,3.4534,3.4534,3.4534,3.4534,3.4534,3.4534,3.4534,3.4534,3.4534,3.4534,3.4534,3.4534,3.4534,3.4534,3.4534,3.4534,3.4491,3.4469,3.4469,3.4076,3.3595,3.319,3.3124,3.3124,3.3146,3.2781,3.2599,3.2599,3.1902,3.1466,3.1466,3.0779,3.0391,3.0391,3.0151,2.9994,2.9994,2.9994,3.0222,3.0677,3.0677,3.0905,3.5915,3.6496,3.7056,3.7056,3.7521,3.7994,3.8142,3.8243,3.8593,3.9501,3.9817,4.0256,4.137,4.0097,3.901,3.9349,3.8312,3.7581,3.7939,3.8642,3.9272,3.9776,3.9749,0.0,0.0,0.0,0.0,4.0083,4.0179,4.0249,4.0249,4.0752,4.1,4.1,4.158,4.1882,4.1882,4.2233,4.2434,4.2434,4.261,4.2766,4.2766,4.2766,4.2766,4.274,4.2509,4.2233,4.1827,4.0955,3.9922,3.8665,3.6999,3.5815,3.4914,3.3762,3.3332,3.3332,3.3332,3.3048,3.2669,3.2669,3.2841,3.3069,3.3353,3.3692,3.3974,3.4311,3.4423,3.4534,3.4534,3.4534,3.4534,3.4534,3.4534,3.4534,3.4534,3.4534,3.4534,3.4534,3.4534,3.4534,3.4534,3.4534,3.4534,3.4534,3.4534,3.4534,3.4534,3.4382,3.4207,3.4054,3.3562,3.3204,3.3204,3.2706,3.2318,3.2318,3.1954,3.1707,3.1707,3.1312,3.1067,3.1067,3.0959,3.0905,3.0905,3.0905,3.0988,3.1153,3.1153,3.1381,3.6583,3.7128,3.7622,3.7622,3.7912,3.8202,3.8277,3.8443,3.883,3.9633,4.0159,4.072,4.1701,4.0393,3.9227,3.9404,3.8469,3.7808,3.7965,3.8818,3.9448,3.9647,3.9697,3.9697,0.0,0.0,0.0,4.0232,4.0404,4.0601,4.0802,4.1329,4.163,4.163,4.2158,4.2514,4.2514,4.2866,4.2986,4.2986,4.2986,4.2986,4.2986,4.2986,4.2986,4.2986,4.2986,4.2785,4.2379,4.1103,3.9842,3.8477,3.6295,3.4861,3.3997,3.3054,3.2669,3.2669,3.2669,3.2669,3.2669,3.2669,3.2841,3.3069,3.3239,3.3579,3.3974,3.4142,3.4345,3.4534,3.4534,3.4534,3.4534,3.4534,3.4534,3.4534,3.4534,3.4534,3.4534,3.4534,3.4534,3.4534,3.4534,3.4534,3.4534,3.4534,3.4423,3.4367,3.4367,3.4367,3.4311,3.4199,3.375,3.339,3.339,3.2891,3.2556,3.2556,3.2133,3.1884,3.1884,3.1574,3.1381,3.1381,3.1381,3.1381,3.1381,3.1381,3.1464,3.1609,3.1609,3.1857,3.7331,3.7767,3.8202,3.8202,3.8202,3.824,3.8485,3.8868,3.9431,4.0266,4.0789,4.1308,0.0,0.0,3.921,3.921,3.8501,3.8015,3.8015,3.8969,3.9697,0.0,0.0,0.0,0.0,0.0,0.0,4.0601,0.0,4.0827,4.13,4.1907,4.2263,4.2263,4.271,4.2986,4.2986,4.2986,4.2986,4.2986,4.2986,4.2986,4.2986,4.2986,4.2986,4.2986,4.2986,4.2986,4.293,4.1558,4.0019,3.8355,3.6551,3.4874,3.3327,3.2892,3.2669,3.2669,3.2669,3.2669,3.2669,3.2669,3.2669,3.2669,3.2727,3.3126,3.3579,3.3636,3.403,3.4457,3.4534,3.4534,3.4534,3.4534,3.4534,3.4534,3.4534,3.4534,3.4534,3.4534,3.4457,3.4401,3.4401,3.4401,3.4401,3.4479,3.4255,3.403,3.4086,3.4086,3.3974,3.3636,3.3579,3.3579,3.3579,3.3353,3.3203,3.3203,3.2425,3.2029,3.2029,3.1671,3.1443,3.1443,3.1443,3.1443,3.1443,3.1443,3.1671,3.2029,3.2029,3.2256,3.7854,3.8086,3.8202,3.8202,3.8202,3.8318,3.8917,3.9111,3.9509,4.0691,4.1029,4.1308,0.0,0.0,0.0,3.921,3.8501,0.0,3.8015,3.8969,0.0,3.9697,0.0,3.9848,4.0275,4.0425,0.0,0.0,4.1785,4.1861,4.1932,4.2514,4.2816,4.2816,4.2911,4.2986,4.2986,4.2986,4.2986,4.2986,4.2986,4.2986,4.2986,4.2986,4.2986,4.2986,4.2986,4.2986,4.2793,4.0639,3.9209,3.8239,3.5639,3.4077,3.3327,3.2892,3.2669,3.2669,3.2669,3.2669,3.2669,3.2669,3.2669,3.2727,3.3012,3.3182,3.3409,3.3861,3.4086,3.4255,3.4479,3.4534,3.4534,3.4534,3.4534,3.4534,3.4534,3.4534,3.4534,3.4534,3.3931,3.348,3.348,3.2892,3.297,3.4289,3.3671,3.3332,3.403,3.3861,3.3692,3.3636,3.3409,3.3296,3.3296,3.3012,3.2841,3.2841,3.2623,3.2504,3.2504,3.2437,3.2395,3.2395,3.2395,3.2395,3.2395,3.2395,3.2437,3.2504,3.2504,3.2566,3.8614,3.8713,3.8696,3.8957,3.8841,3.8812,3.945,3.9596,3.9886,4.0873,4.1337,0.0,4.2034,4.0503,0.0,0.0,0.0,0.0,3.8015,3.8969,3.9697,0.0,3.9898,0.0,4.0475,4.0953,4.148,0.0,4.2213,4.2313,4.2564,4.2811,4.2986,4.2986,4.2986,4.2986,4.2986,4.2986,4.2986,4.2986,4.2986,4.2986,4.2986,4.2986,4.2986,4.2986,4.2986,4.2681,4.2037,4.0036,3.8703,3.7716,3.5134,3.3906,3.3596,3.2975,3.2669,3.2669,3.2669,3.2669,3.2669,3.2669,3.2669,3.2727,3.2898,3.3069,3.3296,3.3749,3.3974,3.4142,3.4423,3.4534,3.4534,3.4534,3.4534,3.4534,3.4534,3.4534,3.4401,3.3952,3.3119,3.2436,3.2129,3.215,3.2436,3.3176,3.2607,3.2457,3.3579,3.3523,3.3353,3.3239,3.3069,3.2955,3.2955,3.2784,3.2669,3.2669,3.2669,3.2669,3.2669,3.2669,3.2669,3.2669,3.2669,3.2669,3.2669,3.2669,3.2669,3.2669,3.2669,3.283,3.9329,3.9381,3.9373,3.9857,3.9654,3.945,3.9973,4.0176,4.0408,4.1105,0.0,4.2092,4.2092,4.0589,3.9343,3.921,0.0,3.8138,3.8015,3.8969,3.9697,3.9697,4.0174,4.0551,4.0626,4.1555,4.2238,4.2313,4.2313,4.2539,4.2961,4.2986,4.2986,4.2986,4.2986,4.2986,4.2986,4.2986,4.2986,4.2986,4.2986,4.2986,4.2986,4.2986,4.2986,4.2986,4.2986,4.2263,4.0985,3.9744,3.8447,3.7101,3.4942,3.4132,3.3969,3.3058,3.2669,3.2669,3.2669,3.2669,3.2669,3.2669,3.2669,3.2669,3.2669,3.2898,3.326,3.3523,3.3861,3.4142,3.4423,3.4534,3.4479,3.4345,3.4289,3.4289,3.4177,3.4121,3.3875,3.2892,3.215,3.1381,3.0723,3.1439,3.192,3.1496,3.1091,3.1285,3.2534,3.2784,3.2841,3.2727,3.2669,3.2669,3.2669,3.2669,3.2669,3.2669,3.2669,3.2669,3.2669,3.2669,3.2669,3.2669,3.2669,3.2669,3.2669,3.2669,3.2669,3.2669,3.2669,3.2934,3.9367,3.9466,3.9419,3.9373,3.9654,3.9973,4.0089,4.0525,0.0,0.0,4.2005,4.2092,4.2092,4.117,4.013,3.9343,3.9177,3.8868,3.8088,3.8969,3.9697,0.0,4.0174,4.0701,4.11,4.1781,0.0,0.0,4.2836,4.2886,4.2961,4.2986,4.2986,4.2986,4.2986,4.2986,4.2986,4.2986,4.2986,4.2986,4.2986,4.2986,4.2986,4.2986,4.2986,4.2986,4.2986,0.0,4.0985,3.9744,3.8447,3.7101,3.4942,3.4132,3.3969,3.3058,3.2669,3.2669,3.2669,3.2669,3.2669,3.2669,3.2669,3.2669,3.2669,3.2898,3.326,3.3523,3.3861,3.4142,3.4423,3.4534,3.4289,3.3537,3.3346,3.3119,3.2436,3.2264,3.1977,3.1073,3.0723,3.0431,2.9728,2.9176,2.9116,3.0003,2.9257,2.892,2.9924,3.0762,3.1594,3.2612,3.2669,3.2669,3.2669,3.2669,3.2669,3.2669,3.2669,3.2669,3.2669,3.2669,3.2669,3.2669,3.2669,3.2669,3.2669,3.2669,3.2669,3.2669,3.2669,3.2711,4.0073,4.0026,3.9883,4.0793,4.0734,4.0607,4.1161,0.0,0.0,0.0,4.2175,4.2216,4.2133,4.1409,0.0,3.9387,3.9316,3.9062,3.8138,3.8969,0.0,3.9697,4.0425,4.1,0.0,4.2082,4.274,4.2961,4.2986,4.2986,4.2986,4.2986,4.2986,4.2986,4.2986,4.2986,4.2986,4.2986,4.2986,4.2986,4.2986,4.2986,4.2986,4.2986,4.2986,4.2986,4.2263,4.1272,3.9978,3.8744,3.7336,3.5873,3.462,3.3927,3.3617,3.2975,3.2669,3.2669,3.2669,3.2669,3.2669,3.2669,3.2669,3.2669,3.2669,3.2784,3.3012,3.3466,3.3749,3.3861,3.3762,3.3762,3.3537,3.2664,3.2436,3.2322,3.192,3.1401,3.0956,3.0509,2.9745,2.8957,2.8283,2.8044,2.8104,2.8307,2.7847,2.8086,2.9924,2.9924,3.0295,3.1594,3.2305,3.2669,3.2669,3.2669,3.2669,3.2669,3.2669,3.2669,3.2669,3.2669,3.2669,3.2669,3.2669,3.2669,3.2669,3.2669,3.2669,3.2669,3.2669,3.2851,4.0575,4.0402,4.025,4.1902,4.1627,4.1204,4.2074,4.1946,0.0,0.0,4.2351,4.2392,4.2216,0.0,4.0887,0.0,3.9593,3.9399,3.8407,3.9121,3.9697,0.0,4.0676,0.0,4.1275,4.2333,0.0,4.2986,4.2986,4.2986,4.2986,4.2986,4.2986,4.2986,4.2986,4.2986,4.2986,4.2986,4.2986,4.2986,4.2986,4.2986,4.2986,4.2986,4.2849,4.2569,4.1501,4.021,3.8744,3.773,3.6324,3.4774,3.4318,3.3782,3.3327,3.2892,3.2669,3.2669,3.2669,3.2669,3.2669,3.2669,3.2669,3.2669,3.2669,3.2555,3.2477,3.2991,3.3048,3.2913,3.2664,3.2721,3.2607,3.169,3.1343,3.1227,3.1227,3.0606,3.0098,3.0098,2.8957,2.7779,2.7116,2.734,2.7383,2.6719,2.6598,2.7306,2.9335,2.892,2.8861,2.9865,3.1594,3.2669,3.2669,3.2669,3.2669,3.2669,3.2669,3.2669,3.2669,3.2669,3.2669,3.2669,3.2669,3.2669,3.2669,3.2669,3.2669,3.2669,3.2669,3.2913,4.0048,4.0121,4.0232,4.082,4.1303,4.1617,4.1735,0.0,4.2589,4.2648,4.2648,4.2607,4.2392,4.231,0.0,0.0,0.0,4.0395,3.942,3.9498,3.9697,3.9697,0.0,0.0,4.1275,4.2333,4.2986,4.2986,4.2986,4.2986,4.2986,4.2986,4.2986,4.2986,4.2986,4.2986,4.2986,4.2986,4.2986,4.2986,4.2986,4.2986,4.2986,4.2986,4.24,4.1272,4.1157,3.9721,0.0,3.7369,3.6324,3.4774,3.4318,3.3782,3.3327,3.2892,3.2669,3.2669,3.2669,3.2669,3.2669,3.2669,3.2669,3.2669,3.2669,3.2133,3.1459,3.1516,3.1265,3.1072,3.1014,3.1439,3.169,3.0723,2.9863,2.9272,2.9272,2.9213,2.9094,2.9094,2.8498,2.7779,2.7116,2.6614,2.6067,2.5349,2.5288,2.5349,2.5578,2.6537,2.7185,2.7306,3.0587,3.2669,3.2669,3.2669,3.2669,3.2669,3.2669,3.2669,3.2669,3.2669,3.2669,3.2669,3.2669,3.2669,3.2669,3.2669,3.2669,3.2669,3.2669,3.269,4.0107,4.0286,4.0517,4.1522,4.193,4.2188,4.2456,0.0,4.285,4.2729,4.2809,4.2769,4.2474,4.2514,4.2158,0.0,0.0,0.0,3.9611,4.0094,4.0364,3.98,4.0676,0.0,0.0,0.0,4.2986,4.2986,4.2986,4.2986,4.2986,4.2986,4.2986,4.2986,4.2986,4.2986,4.2986,4.2986,4.2986,4.2986,4.2986,4.2986,4.2986,4.2986,4.2319,4.1043,4.0268,3.898,0.0,3.6182,3.5218,3.436,3.3844,3.3368,3.2975,3.2789,3.2669,3.2669,3.2669,3.2669,3.2669,3.2669,3.219,3.1536,3.1536,3.1305,3.0937,3.0742,3.0607,3.049,3.0529,3.0372,3.002,2.9627,2.9272,2.8975,2.8975,2.8975,2.8856,2.8498,2.784,2.7177,2.6571,2.59,2.541,2.5165,2.5103,2.541,2.6128,2.6658,2.7607,2.9098,2.9982,3.0704,3.1478,3.1536,3.1903,3.2669,3.2669,3.2669,3.2669,3.2669,3.2669,3.2669,3.2669,3.2669,3.2669,3.2669,3.2669,3.2669,3.1903,3.1478,4.0051,4.0247,4.0666,4.1841,4.2261,4.2521,0.0,0.0,4.305,4.293,4.301,4.301,4.2648,4.2688,4.2474,0.0,0.0,4.1928,4.0298,4.0739,4.0844,0.0,0.0,4.1275,0.0,4.2333,4.2986,4.2986,4.2986,4.2986,4.2986,4.2986,4.2986,4.2986,4.2986,4.2986,4.2986,4.2986,4.2986,4.2986,4.2986,4.2986,4.2986,4.2986,4.2093,4.05,3.9569,3.8179,0.0,3.5305,3.4463,3.3883,3.3513,3.312,3.2669,3.2669,3.2669,3.2669,3.2669,3.2669,3.2612,3.2248,3.1536,3.0645,2.9924,2.9688,2.9688,2.963,2.963,2.9688,2.9903,2.9509,2.8975,2.8975,2.8975,2.8975,2.8975,2.8856,2.8558,2.808,2.7297,2.6631,2.6189,2.5533,2.5103,2.5103,2.5103,2.541,2.6294,2.6415,2.7142,2.892,2.8623,2.9157,3.1189,3.1363,3.171,3.2612,3.2669,3.2789,3.2913,3.2934,3.2996,3.312,3.312,3.312,3.312,3.2694,3.2461,3.2461,3.0937,2.9724,3.9589,3.9918,4.0546,4.1235,4.1931,4.256,0.0,0.0,4.329,4.329,4.329,4.325,4.3021,4.2981,4.3057,4.3211,0.0,0.0,4.1855,4.1417,4.0844,0.0,0.0,4.1275,4.1275,4.2333,4.2986,4.2986,4.2986,0.0,4.2986,4.2986,4.2986,4.2986,4.2986,4.2986,4.2986,4.2986,4.2986,4.2986,4.2986,4.2986,4.2986,4.2986,4.1615,3.9216,3.9216,3.7524,0.0,3.4816,3.4277,3.3389,3.3368,3.312,3.2669,3.2669,3.2669,3.2669,3.2669,3.2669,3.2498,3.1247,3.082,3.0353,2.7787,2.7021,2.7203,2.7864,2.8002,2.8199,2.8856,2.8993,2.8975,2.8975,2.8975,2.8975,2.8975,2.8498,2.802,2.802,2.6978,2.6128,2.6067,2.5533,2.5103,2.5103,2.5103,2.5103,2.5103,2.5103,2.5103,2.5165,2.6311,2.8564,3.2383,3.2669,3.2669,3.2669,3.2669,3.2934,3.3348,3.3368,3.3575,3.4111,3.4111,3.4111,3.4051,3.2694,3.201,3.193,2.9854,2.7696,4.0715,4.0921,4.1235,4.1931,4.2551,4.309,4.326,4.329,4.329,4.329,4.329,4.325,4.3021,4.289,4.2895,4.324,4.3429,0.0,0.0,0.0,0.0,3.9878,4.0676,4.163,0.0,0.0,4.2986,4.2986,4.2986,4.2986,4.2986,4.2986,4.2986,4.2986,4.2986,4.2986,4.2986,4.2986,4.2986,4.2986,4.2986,4.2986,4.2986,4.2986,4.1615,3.9216,3.9216,3.7524,3.4795,3.4484,3.3986,3.3348,3.3058,3.2851,3.2669,3.2669,3.2669,3.2669,3.2669,3.2133,3.1363,3.0937,2.963,2.8026,2.7246,2.7021,2.7021,2.728,2.796,2.8737,2.8916,2.8975,2.8975,2.8975,2.8975,2.8856,2.8439,2.814,2.7719,2.6857,2.6371,2.5945,2.5472,2.5226,2.5103,2.5103,2.5103,2.5103,2.5103,2.5103,2.541,2.6311,2.6779,2.7847,2.9924,3.0878,3.1888,3.3083,3.3161,3.3368,3.3883,3.3903,3.3491,3.2694,3.2634,3.2211,3.1279,3.0851,3.005,2.8932,2.7792,2.6435,0.0,4.1812,4.1956,4.2622,4.3055,0.0,0.0,4.329,4.329,4.329,4.329,4.325,4.317,4.301,4.3105,4.373,4.403,4.373,0.0,0.0,0.0,4.051,0.0,0.0,0.0,4.2986,4.2986,4.2986,4.2986,4.2986,4.2986,4.2986,4.2986,4.2986,4.2986,4.2986,4.2986,4.2986,4.2986,4.2986,4.2986,4.2986,4.2986,4.2513,4.1157,3.9157,3.8684,3.6997,0.0,3.4256,3.3699,3.3099,3.283,3.2669,3.2669,3.2669,3.2383,3.196,3.196,3.1131,2.9982,2.9512,2.7966,2.6294,2.6598,2.684,2.6978,2.6995,2.796,2.8975,2.8975,2.8975,2.8916,2.8677,2.8618,2.8439,2.7779,2.7418,2.7039,2.625,2.59,2.5594,2.5165,2.5103,2.5103,2.5103,2.5103,2.5103,2.5103,2.5103,2.5459,2.6371,2.6922,2.7583,2.8514,2.9651,3.0816,3.2018,3.2117,3.2315,3.2731,3.277,3.2463,3.1756,3.1756,3.1321,3.0508,2.9798,2.8523,2.6568,2.6182,2.5409,0.0,4.2591,4.259,4.3402,0.0,0.0,0.0,0.0,0.0,4.329,4.329,4.329,4.329,4.3349,4.3607,4.444,4.4549,4.4123,0.0,4.2722,0.0,0.0,4.1831,0.0,4.2911,4.2986,4.2986,4.2986,4.2986,4.2986,4.2986,4.2986,4.2986,4.2986,4.2986,4.2986,4.2986,4.2986,4.2986,4.2986,4.2986,4.2986,4.2986,4.1672,4.0384,0.0,3.7805,3.6024,3.4132,3.4132,3.3555,3.2731,3.2809,3.2809,3.2768,3.2768,3.1981,3.0937,3.082,2.9982,2.8683,2.7323,2.6067,2.5226,2.59,2.651,2.6995,2.6995,2.796,2.8993,2.8916,2.8916,2.8797,2.814,2.796,2.7719,2.7056,2.651,2.6067,2.6006,2.5533,2.5103,2.5103,2.5103,2.5103,2.5103,2.5103,2.5119,2.5151,2.5151,2.5278,2.5643,2.6707,2.7588,2.7963,2.8923,2.9648,3.013,3.0105,3.027,3.0799,3.0691,3.0792,3.1176,3.1065,3.1001,3.0983,2.933,2.739,2.5143,2.5158,2.4796,4.4747,0.0,4.2713,4.3949,4.3767,4.329,0.0,0.0,0.0,0.0,0.0,4.329,4.329,4.3588,4.3979,4.4529,4.4211,4.3641,4.2924,0.0,0.0,4.1254,4.1831,4.2414,4.2911,4.2986,4.2986,4.2986,4.2986,4.2986,4.2986,4.2986,4.2986,4.2986,4.2986,4.2986,4.2986,4.2986,4.2986,4.2986,4.2986,4.2986,4.2986,4.1672,4.0384,3.9075,3.7473,3.5746,3.4132,3.4132,3.3741,3.3265,3.3617,3.3534,3.3223,3.3223,3.2843,3.2133,3.1131,2.9982,2.8504,2.6311,2.5349,2.5226,2.59,2.651,2.6995,2.6995,2.796,2.8856,2.8379,2.8259,2.8199,2.802,2.7599,2.7056,2.6432,2.6189,2.5961,2.541,2.5226,2.5103,2.5103,2.5103,2.5103,2.5103,2.5103,2.5199,2.5485,2.5454,2.5643,2.5993,2.6343,2.6663,2.702,2.8769,3.0519,3.1984,3.1071,3.1132,3.27,3.1686,3.0699,2.9787,2.8691,2.8031,2.7766,2.7288,2.6516,2.5487,2.5455,2.5193,4.5483,4.4657,4.3756,4.521,4.4699,4.3849,4.3849,0.0,0.0,0.0,0.0,4.329,4.329,4.3382,4.3671,4.4474,4.3843,0.0,0.0,0.0,4.0949,4.125,4.2032,4.2715,0.0,4.2986,4.2986,4.2986,4.2986,4.2986,4.2986,4.2986,4.2986,4.2986,4.2986,4.2986,4.2986,4.2986,4.2986,4.2986,4.2986,4.2986,4.293,4.11,3.9861,3.9075,3.6987,3.5441,3.4443,3.4443,3.4113,3.3779,3.4028,3.3906,3.3641,3.3009,3.2256,3.1308,2.9808,2.8367,2.6961,2.5517,2.5288,2.5656,2.6327,2.6753,2.7056,2.7358,2.8199,2.8916,2.8558,2.8259,2.79,2.7599,2.7056,2.6388,2.5778,2.5656,2.5533,2.5165,2.5103,2.5103,2.5103,2.5246,2.5357,2.5357,2.5485,2.5659,2.585,2.5866,2.6009,2.6423,2.6455,2.6598,2.6883,2.801,2.9119,3.0081,2.9456,2.9496,3.0531,2.9835,2.9068,2.8362,2.7451,2.6878,2.6614,2.6459,2.6064,2.5544,2.5516,2.5359,4.5582,4.5308,4.5077,4.63,4.5556,4.4472,4.432,0.0,0.0,0.0,0.0,0.0,4.3409,4.3296,0.0,4.4579,0.0,0.0,4.1117,4.1179,4.1275,4.1275,4.2308,0.0,4.2986,4.2986,4.2986,4.2986,4.2986,4.2986,4.2986,4.2986,4.2986,4.2986,4.2986,4.2986,4.2986,4.2986,4.2986,4.2986,4.2986,4.293,4.2625,4.0268,3.9098,3.8803,3.6356,0.0,3.4816,3.4816,3.4588,3.4235,3.4238,3.4238,3.4056,3.2612,3.1398,3.01,2.8201,2.6459,2.5183,2.5135,2.5472,2.6083,2.6881,2.702,2.7158,2.8059,2.8589,2.8856,2.8856,2.8319,2.7719,2.7116,2.6482,2.586,2.5306,2.523,2.5262,2.5262,2.5262,2.5262,2.5262,2.5516,2.5723,2.5723,2.5961,2.6232,2.628,2.6296,2.6423,2.6724,2.6756,2.6883,2.7185,2.72,2.72,2.72,2.72,2.72,2.72,2.72,2.7232,2.728,2.6945,2.6697,2.6695,2.6366,2.5938,2.5535,2.5535,2.5359,4.5582,4.5668,4.559,4.5798,4.5184,4.432,4.3615,0.0,0.0,0.0,0.0,0.0,0.0,4.4583,4.503,0.0,0.0,4.2101,0.0,0.0,4.1275,4.1275,0.0,4.2986,4.2986,4.2986,4.2986,4.2986,4.2986,4.2986,4.2986,4.2986,4.2986,4.2986,4.2986,4.2986,4.2986,4.2986,4.2986,4.2986,4.2986,4.2457,4.1329,3.9861,3.8625,3.7467,0.0,3.4878,3.4816,3.4816,3.4774,3.4754,3.5066,3.4983,3.4531,3.3129,3.2199,3.1283,2.8491,2.6641,2.55,2.5199,2.5165,2.5536,2.7064,2.7086,2.7092,2.9233,2.9022,2.814,2.814,2.7659,2.7116,2.6995,2.6315,2.5673,2.5548,2.5786,2.6057,2.6057,2.6057,2.6057,2.6057,2.6088,2.6136,2.6136,2.6184,2.6311,2.6614,2.6597,2.6724,2.7089,2.7121,2.7137,2.72,2.72,2.72,2.72,2.72,2.72,2.72,2.72,2.7343,2.7645,2.7223,2.7053,2.7046,2.6713,2.6161,2.5535,2.5535,2.5359,4.6179,4.6356,4.6201,4.5782,4.511,4.4396,4.4043,0.0,0.0,0.0,0.0,0.0,0.0,0.0,4.4124,4.351,0.0,4.1419,3.9929,4.0651,4.1275,0.0,0.0,4.2986,4.2986,4.2986,4.2986,4.2986,4.2986,4.2986,4.2986,4.2986,4.2986,4.2986,4.2986,4.2986,4.2986,4.2986,4.2986,4.2986,4.2986,4.2319,4.1043,3.9803,3.8506,3.7226,0.0,3.5107,3.5107,3.5107,3.5107,3.5128,3.5335,3.4861,3.3791,3.1682,3.0157,2.8916,2.7557,2.6566,2.5882,2.5723,2.5911,2.6319,2.711,2.7098,2.7257,2.9075,2.911,2.8579,2.8579,2.8087,2.7548,2.7176,2.6479,2.5914,2.5914,2.6104,2.6216,2.6216,2.6216,2.6216,2.6216,2.6375,2.6503,2.6503,2.6597,2.6771,2.6946,2.6962,2.7026,2.7185,2.72,2.72,2.72,2.72,2.72,2.72,2.72,2.728,2.7486,2.7486,2.751,2.7736,2.7307,2.7039,2.6858,2.6438,2.5996,2.5535,2.5535,2.5359,4.6709,4.6714,4.641,4.5841,4.511,4.4434,4.4243,0.0,0.0,0.0,0.0,0.0,0.0,4.4347,0.0,4.2215,4.1739,4.1172,4.0055,4.0727,4.1326,4.1505,4.2384,4.2986,4.2986,4.2986,4.2986,4.2986,4.2986,4.2986,4.2986,4.2986,4.2986,4.2986,4.2986,4.2986,4.2986,4.2986,4.2986,4.2986,4.2986,4.215,4.0616,3.9627,3.8328,3.6764,3.5828,3.5418,3.5418,3.5418,3.5418,3.5356,3.5046,3.3882,3.2155,3.0113,2.8261,2.6787,2.6708,2.6501,2.6311,2.6232,2.6536,2.6999,2.74,2.7289,2.7305,2.8916,2.914,2.8961,2.91,2.8501,2.7807,2.7237,2.6728,2.6327,2.6327,2.6407,2.6455,2.6455,2.6455,2.6455,2.6455,2.6613,2.6803,2.6803,2.7026,2.72,2.72,2.72,2.72,2.72,2.72,2.72,2.72,2.72,2.72,2.72,2.72,2.7359,2.7725,2.7589,2.7657,2.7803,2.7238,2.6888,2.6698,2.6184,2.5769,2.5535,2.5461,2.5286,4.6709,4.6377,4.5769,4.5697,4.511,0.0,4.3566,4.3329,0.0,4.329,0.0,0.0,0.0,4.5836,4.5631,4.3361,4.2813,4.2149,4.0637,0.0,4.153,4.2087,4.2665,4.2986,4.2986,4.2986,4.2986,4.2986,4.2986,4.2986,4.2986,4.2986,4.2986,4.2986,4.2986,4.2986,4.2986,4.2986,4.2986,4.2986,4.2986,4.1696,3.9334,3.9216,3.785,3.5541,3.5418,3.5418,3.5418,3.5418,3.5418,3.5294,3.4007,3.1899,2.9591,2.9395,2.8411,2.7121,2.6787,2.666,2.6581,2.6311,2.6216,2.6584,2.8212,2.7798,2.723,2.9583,2.9296,2.849,2.899,2.8106,2.7173,2.7109,2.6858,2.6628,2.6628,2.6899,2.7121,2.7121,2.7121,2.7121,2.7121,2.7153,2.7169,2.7169,2.7185,2.72,2.72,2.72,2.72,2.72,2.72,2.72,2.72,2.72,2.72,2.72,2.72,2.7359,2.7725,2.7317,2.7492,2.8162,2.7165,2.6798,2.7098,2.6066,2.5549,2.552,2.5227,2.5149,4.7371,4.6668,4.5697,4.5697,4.4699,0.0,0.0,4.329,4.3409,4.3828,4.4137,0.0,0.0,0.0,4.4331,4.3266,4.1838,4.0772,4.053,4.0949,4.153,4.2137,4.269,4.2986,4.2986,4.2986,4.2986,4.2986,4.2986,4.2986,4.2986,4.2986,4.2986,4.2986,4.2986,4.2986,4.2986,4.2986,4.2986,4.2986,4.2986,4.1672,3.9216,3.9216,3.779,3.5418,3.5418,3.5418,3.5418,3.5418,3.5418,3.517,3.298,3.0936,2.9216,2.8296,2.765,2.7185,2.7042,2.701,2.6978,2.6851,2.6803,2.695,2.7621,2.7456,2.729,2.8674,2.8395,2.78,2.8437,2.824,2.7719,2.7262,2.7096,2.701,2.701,2.7105,2.72,2.72,2.72,2.72,2.72,2.72,2.72,2.72,2.72,2.72,2.72,2.72,2.72,2.72,2.72,2.72,2.72,2.72,2.7296,2.7518,2.7248,2.7338,2.7699,2.7486,2.7437,2.7484,2.715,2.6672,2.6095,2.5721,2.5432,2.5227,2.5178,2.5119,4.744,4.6515,4.5332,4.5332,0.0,0.0,4.329,4.329,4.3469,4.4167,4.4646,0.0,4.6057,0.0,0.0,0.0,4.1419,4.0285,4.0729,4.105,4.1605,4.2389,4.2816,4.2986,4.2986,4.2986,4.2986,4.2986,4.2986,4.2986,4.2986,4.2986,4.2986,4.2986,4.2986,4.2986,4.2986,4.2986,4.2986,4.2986,4.2569,4.1272,3.9216,3.9216,3.779,3.5418,3.5418,3.5418,3.5418,3.5418,3.4901,3.3882,3.1579,2.9852,2.8493,2.7584,2.72,2.72,2.72,2.72,2.72,2.72,2.72,2.7267,2.7467,2.74,2.7334,2.8064,2.7799,2.7334,2.7799,2.7932,2.7799,2.7334,2.72,2.72,2.72,2.72,2.72,2.72,2.72,2.72,2.72,2.72,2.72,2.72,2.72,2.72,2.72,2.72,2.72,2.72,2.72,2.72,2.72,2.72,2.7292,2.7505,2.7274,2.7354,2.785,2.7483,2.7236,2.7128,2.6777,2.6239,2.5535,2.5432,2.5271,2.5119,2.5119,2.5119,4.6633,4.5701,4.451,0.0,0.0,0.0,4.329,4.329,4.3499,4.4197,4.5394,4.636,4.6579,4.5718,0.0,4.3033,4.1914,4.1232,4.1285,4.1275,4.1756,4.2836,4.2986,4.2986,4.2986,4.2986,4.2986,4.2986,4.2986,4.2986,4.2986,4.2986,4.2986,4.2986,4.2986,4.2986,4.2986,4.2986,4.2986,4.2986,4.1696,4.0442,3.9216,3.9157,3.779,3.5418,3.5418,3.5418,3.5418,3.5356,3.3757,3.1194,2.9852,2.8427,2.72,2.72,2.72,2.72,2.72,2.72,2.72,2.72,2.72,2.7334,2.8064,2.7799,2.7334,2.8064,2.7733,2.72,2.72,2.72,2.72,2.72,2.72,2.72,2.72,2.72,2.72,2.72,2.72,2.72,2.72,2.72,2.72,2.72,2.72,2.72,2.72,2.72,2.72,2.72,2.72,2.72,2.72,2.72,2.7158,2.7149,2.7077,2.7415,2.8122,2.7195,2.6743,2.7113,2.6066,2.5535,2.552,2.5213,2.5119,2.5119,2.5119,2.5119,4.7572,4.6515,0.0,4.5332,0.0,0.0,0.0,4.4018,0.0,0.0,4.6411,4.6983,4.6814,4.5824,0.0,4.3218,4.1985,4.1232,4.1285,4.1275,4.1756,4.2836,4.2986,4.2986,4.2986,4.2986,4.2986,4.2986,4.2986,4.2986,4.2986,4.2986,4.2986,4.2986,4.2986,4.2986,4.2986,4.2986,4.2986,4.2986,4.1696,4.0442,3.9157,3.8268,3.6967,3.5418,3.5418,3.5418,3.5356,3.4403,3.2917,3.1194,2.9852,2.8427,2.72,2.72,2.72,2.72,2.72,2.72,2.72,2.72,2.72,2.7267,2.7467,2.74,2.7267,2.7467,2.74,2.72,2.72,2.72,2.72,2.72,2.72,2.72,2.72,2.72,2.72,2.72,2.72,2.72,2.72,2.72,2.72,2.72,2.72,2.7296,2.7534,2.7566,2.7566,2.7566,2.7359,2.72,2.72,2.7439,2.741,2.7165,2.7147,2.7098,2.708,2.6721,2.6335,2.5952,2.5692,2.5418,2.5198,2.5178,2.5119,2.5119,2.5119,2.5119,4.71,4.5949,0.0,4.4737,4.4226,4.3917,4.4885,0.0,0.0,0.0,4.6745,4.7062,4.6844,4.5763,0.0,4.3197,4.1985,4.1232,4.1285,4.1275,4.1756,4.2836,4.2986,4.2986,4.2986,4.2986,4.2986,4.2986,4.2986,4.2986,4.2986,4.2986,4.2986,4.2986,4.2986,4.2986,4.2986,4.2986,4.2737,4.2206,4.0928,3.9686,3.8447,3.767,3.6603,3.5418,3.5418,3.5108,3.4528,3.3107,3.1771,3.0354,2.9003,2.7981,2.72,2.72,2.72,2.72,2.72,2.72,2.72,2.72,2.72,2.72,2.72,2.72,2.72,2.72,2.72,2.72,2.72,2.72,2.72,2.72,2.72,2.72,2.72,2.72,2.72,2.72,2.72,2.72,2.72,2.72,2.7248,2.7391,2.7518,2.7693,2.79,2.7931,2.7931,2.7931,2.7614,2.7407,2.7407,2.7352,2.7243,2.696,2.6817,2.6523,2.6176,2.6088,2.593,2.5535,2.5403,2.5242,2.5119,2.5119,2.5119,2.5119,2.5119,2.5119,4.5805,4.4624,4.3409,4.3468,4.3998,0.0,4.601,4.6339,4.6369,4.6369,0.0,4.6844,4.658,4.5537,4.4266,4.3033,4.1914,4.1232,4.1285,4.1275,4.1756,4.2836,4.2986,4.2986,4.2986,4.2986,4.2986,4.2986,4.2986,4.2986,4.2986,4.2986,4.2986,4.2986,4.2986,4.2986,4.2986,4.2986,4.2375,4.11,3.9803,3.8506,3.7309,3.7188,3.6481,3.5418,3.5418,3.4652,3.3316,3.1899,3.0484,2.9134,2.7716,2.72,2.72,2.72,2.72,2.72,2.72,2.72,2.72,2.72,2.72,2.72,2.72,2.72,2.72,2.72,2.72,2.72,2.72,2.72,2.72,2.72,2.72,2.72,2.72,2.72,2.72,2.72,2.72,2.72,2.72,2.7232,2.7375,2.7725,2.8058,2.8265,2.8265,2.8265,2.8265,2.8265,2.7979,2.7704,2.7704,2.7149,2.6734,2.6535,2.6291,2.5948,2.5491,2.552,2.552,2.5491,2.5198,2.5119,2.5119,2.5119,2.5119,2.5119,2.5119,2.5052,4.6553,4.541,0.0,4.4916,4.5465,4.592,4.6219,4.6539,4.6767,4.6767,4.6842,4.68,4.6358,4.5401,4.4266,4.3033,4.1914,4.1232,4.1285,4.1275,4.1756,4.2836,4.2986,4.2986,4.2986,4.2986,4.2986,4.2986,4.2986,4.2986,4.2986,4.2986,4.2986,4.2986,4.2986,4.2986,4.2986,4.2986,4.2375,4.11,3.9803,3.8506,3.7309,3.6237,3.5665,3.5418,3.5418,3.4652,3.3316,3.1899,3.0484,2.9134,2.7716,2.72,2.72,2.72,2.72,2.72,2.72,2.72,2.72,2.72,2.72,2.72,2.72,2.72,2.72,2.72,2.72,2.72,2.72,2.72,2.72,2.72,2.72,2.72,2.72,2.72,2.72,2.72,2.72,2.72,2.72,2.7439,2.7741,2.8074,2.8424,2.8646,2.8646,2.8646,2.8646,2.8646,2.8329,2.7984,2.7724,2.7592,2.7108,2.6238,2.6169,2.5844,2.5237,2.5403,2.5418,2.5169,2.5163,2.5119,2.5119,2.5119,2.5119,2.5119,2.5119,2.4916,4.676,0.0,0.0,4.5707,0.0,4.6369,4.6711,4.6824,4.6887,4.6756,4.6668,4.6491,4.6269,4.5264,4.4125,4.2985,4.1914,4.1232,4.1285,4.1275,4.1756,4.2836,4.2986,4.2986,4.2986,4.2986,4.2986,4.2986,4.2986,4.2986,4.2986,4.2986,4.2986,4.2986,4.2986,4.2986,4.2986,4.2986,4.2037,4.0152,3.951,3.8209,3.6359,3.5726,3.5418,3.5356,3.4715,3.3631,3.2282,3.0936,2.9526,2.823,2.7467,2.72,2.72,2.72,2.72,2.72,2.72,2.72,2.72,2.72,2.72,2.72,2.72,2.72,2.72,2.72,2.72,2.72,2.72,2.72,2.72,2.72,2.72,2.72,2.72,2.72,2.72,2.72,2.7343,2.7455,2.7455,2.7884,2.8281,2.8456,2.8789,2.9012,2.9012,2.9012,2.8941,2.8798,2.8412,2.8068,2.7663,2.7369,2.6861,2.6115,2.5948,2.5594,2.5134,2.5213,2.5227,2.5134,2.5119,2.5119,2.5119,2.5119,2.5119,2.5119,2.4916,2.4713,4.6948,4.641,4.5905,4.6232,4.6369,0.0,4.7146,4.7019,4.68,4.658,4.6358,4.6225,4.618,4.4989,4.3796,4.2937,4.1766,4.1054,4.1285,4.1275,4.1756,4.2836,4.2986,4.2986,4.2986,4.2986,4.2986,4.2986,4.2986,4.2986,4.2986,4.2986,4.2986,4.2986,4.2986,4.2986,4.2986,4.2793,4.1501,3.9216,3.8744,3.7451,3.5418,3.5418,3.5418,3.5356,3.4215,3.279,3.1194,3.0095,2.8691,2.72,2.72,2.72,2.72,2.72,2.72,2.72,2.72,2.72,2.72,2.72,2.72,2.72,2.72,2.72,2.72,2.72,2.72,2.72,2.72,2.72,2.7216,2.728,2.7296,2.7296,2.7296,2.7296,2.7312,2.7359,2.7614,2.7836,2.79,2.8392,2.8789,2.8853,2.9107,2.9298,2.9298,2.9226,2.9066,2.8779,2.8386,2.8017,2.7646,2.7075,2.6564,2.621,2.5731,2.5418,2.5154,2.5149,2.5119,2.5119,2.5119,2.5119,2.5119,2.5119,2.5052,2.4984,2.4645,2.4428,4.7723,0.0,4.714,0.0,4.6741,4.7146,0.0,0.0,4.658,0.0,4.6225,4.6135,4.5956,4.434,4.2985,4.284,4.1145,4.023,4.1178,4.1275,4.1756,4.2836,4.2986,4.2986,4.2986,4.2986,4.2986,4.2986,4.2986,4.2986,4.2986,4.2986,4.2986,4.2986,4.2986,4.2986,4.2986,4.1923,4.0639,3.9157,3.6967,3.5726,3.5418,3.5418,3.5418,3.5356,3.5232,3.3694,3.1322,3.113,2.9526,2.72,2.72,2.72,2.72,2.72,2.72,2.72,2.72,2.72,2.72,2.72,2.72,2.72,2.72,2.72,2.72,2.72,2.72,2.72,2.72,2.72,2.728,2.7582,2.7661,2.7661,2.7661,2.7661,2.7741,2.8027,2.8122,2.8249,2.8567,2.871,2.8869,2.9171,2.9266,2.9298,2.9298,2.8995,2.8779,2.8707,2.8388,2.7996,2.7635,2.7248,2.684,2.6455,2.5842,2.5505,2.5461,2.5198,2.5119,2.5119,2.5119,2.5119,2.5119,2.5119,2.4916,2.4563,2.4495,2.4156,4.8496,4.8255,4.7978,0.0,4.71,4.7222,4.6975,4.6756,4.6491,4.6269,4.609,4.6001,4.594,4.42,4.2792,4.2792,4.1045,3.9973,4.0752,4.11,4.163,4.2464,4.2841,4.2986,4.2986,4.2986,4.2986,4.2986,4.2986,4.2986,4.2986,4.2986,4.2986,4.2986,4.2986,4.2986,4.2986,4.1753,4.0094,3.8149,3.6258,3.5418,3.5418,3.5418,3.5418,3.5294,3.3757,3.2409,3.1176,2.9639,2.8296,2.72,2.72,2.72,2.72,2.72,2.72,2.72,2.72,2.72,2.72,2.72,2.72,2.72,2.72,2.72,2.7248,2.7439,2.7502,2.7534,2.7725,2.7772,2.782,2.7963,2.8011,2.8058,2.8265,2.8154,2.8106,2.8456,2.8535,2.8646,2.8996,2.9059,2.9123,2.9282,2.9298,2.9226,2.8995,2.8851,2.8547,2.813,2.7913,2.7695,2.7274,2.7141,2.6907,2.6515,2.6237,2.5915,2.5549,2.5403,2.5242,2.5134,2.5119,2.5119,2.5119,2.4849,2.4645,2.4495,2.4088,2.3679,4.9507,0.0,4.8708,4.7849,4.7452,4.7222,0.0,0.0,4.6491,4.618,4.6001,4.5895,4.5895,4.42,4.2792,4.2792,4.1045,3.9898,4.045,4.0949,4.153,4.2137,4.269,4.2986,4.2986,4.2986,4.2986,4.2986,4.2986,4.2986,4.2986,4.2986,4.2986,4.2986,4.2986,4.2986,4.2986,4.1386,3.9311,3.6824,3.5828,3.5418,3.5418,3.5418,3.5418,3.5294,3.2854,3.1643,3.113,2.8757,2.7533,2.72,2.72,2.72,2.72,2.72,2.72,2.72,2.72,2.72,2.72,2.72,2.72,2.72,2.72,2.7264,2.7391,2.7661,2.7788,2.7915,2.8154,2.8217,2.8249,2.8344,2.836,2.844,2.871,2.863,2.8583,2.8853,2.89,2.8996,2.925,2.9298,2.9298,2.9298,2.9226,2.9066,2.8779,2.8547,2.8202,2.7623,2.7492,2.7347,2.7071,2.6983,2.6881,2.6647,2.6544,2.6281,2.5798,2.5622,2.5349,2.5047,2.496,2.4916,2.4916,2.4645,2.4428,2.4224,2.3762,2.3447,0.0,5.0352,0.0,4.8708,4.7892,4.7179,4.6741,4.6609,4.6476,4.603,4.594,4.5895,4.5895,4.42,4.2792,4.2792,4.1045,3.9898,4.045,4.0949,4.153,4.2137,4.269,4.2986,4.2986,4.2986,4.2986,4.2986,4.2986,4.2986,4.2986,4.2986,4.2986,4.2986,4.2986,4.2986,4.2986,4.0558,3.8029,3.5479,3.5418,3.5418,3.5418,3.5418,3.5418,3.5294,3.3882,3.2537,3.1194,2.9787,2.8427,2.72,2.72,2.72,2.72,2.72,2.72,2.72,2.72,2.72,2.72,2.72,2.72,2.72,2.72,2.7439,2.7709,2.7725,2.7963,2.8201,2.8217,2.8217,2.8313,2.8662,2.8742,2.8742,2.8828,2.9012,2.925,2.9266,2.9266,2.9282,2.9298,2.9298,2.9298,2.9298,2.8995,2.8691,2.8691,2.8057,2.7623,2.7623,2.7274,2.6983,2.6983,2.6983,2.6983,2.6969,2.6676,2.6486,2.6457,2.5857,2.5313,2.5023,2.4653,2.4495,2.4495,2.4495,2.4156,2.3475,2.3776,2.3635,0.0,0.0,0.0,4.8913,4.824,4.7649,4.68,4.6447,4.6269,4.5956,4.5895,4.5895,4.5895,4.42,4.2792,4.2792,4.1045,3.9772,3.9948,4.0475,4.1003,4.158,4.2108,4.264,4.2936,4.2986,4.2986,4.2986,4.2986,4.2986,4.2986,4.2986,4.2986,4.2986,4.2986,4.2206,4.0582,3.9627,3.791,3.5418,3.5418,3.5418,3.5418,3.5418,3.4922,3.4027,3.2664,3.1771,3.113,2.8888,2.765,2.72,2.72,2.72,2.72,2.72,2.72,2.72,2.72,2.72,2.72,2.72,2.72,2.7248,2.7471,2.7629,2.782,2.8265,2.8487,2.863,2.8853,2.8916,2.8948,2.9075,2.9107,2.9107,2.9107,2.9202,2.9298,2.9298,2.9298,2.9298,2.9298,2.9066,2.8923,2.8923,2.8563,2.8274,2.8057,2.7768,2.7478,2.7274,2.7056,2.6983,2.6983,2.6983,2.6983,2.6983,2.6881,2.672,2.6515,2.6281,2.5749,2.4982,2.4868,2.4642,2.417,2.3952,2.3776,2.3694,2.3608,2.3561,5.1692,0.0,0.0,4.9358,4.8594,4.7916,4.6844,4.6403,4.6135,4.5911,4.5895,4.5895,4.5895,4.448,4.3177,4.284,4.1045,3.9697,3.9697,4.0174,4.0651,4.0974,4.1706,4.2363,4.2715,4.2861,4.2986,4.2986,4.2986,4.2986,4.2986,4.2986,4.2986,4.2874,4.2432,4.1133,3.8921,3.8424,3.7248,3.5232,3.5232,3.5294,3.5418,3.5418,3.4652,3.3316,3.1899,3.1065,3.0484,2.8163,2.72,2.72,2.72,2.72,2.72,2.72,2.72,2.72,2.72,2.72,2.72,2.72,2.728,2.7423,2.7661,2.79,2.817,2.863,2.8853,2.8996,2.9234,2.9298,2.9298,2.9298,2.9298,2.9298,2.9298,2.9298,2.9298,2.9298,2.9298,2.9298,2.9138,2.8851,2.8619,2.8491,2.8202,2.784,2.7623,2.7478,2.7274,2.7071,2.6983,2.6983,2.6983,2.6983,2.6983,2.6983,2.6983,2.6823,2.646,2.6344,2.5869,2.4946,2.4735,2.4316,2.3777,2.353,2.3447,2.3569,2.3413,2.3487,0.0,0.0,0.0,5.0002,4.9004,4.7958,4.6844,4.6358,4.6135,4.594,4.5895,4.5895,4.5895,4.4989,4.3984,4.2985,4.1095,3.9749,3.9749,4.0149,4.0501,4.0526,4.1455,4.2162,4.2187,4.2665,4.2936,4.2961,4.2961,4.2961,4.2986,4.2986,4.2793,4.2513,4.1305,3.9896,3.8305,3.7023,3.5848,3.4922,3.4922,3.5108,3.5418,3.5418,3.4652,3.3253,3.1899,3.0549,2.9151,2.7783,2.72,2.72,2.72,2.72,2.72,2.72,2.72,2.72,2.72,2.72,2.72,2.72,2.7439,2.7725,2.7673,2.8217,2.8773,2.8773,2.9028,2.9298,2.9298,2.9298,2.9298,2.9298,2.9298,2.9298,2.9298,2.9298,2.9298,2.9298,2.9298,2.9154,2.8779,2.8691,2.8563,2.813,2.7768,2.755,2.755,2.7274,2.6983,2.6983,2.6983,2.6983,2.6983,2.6983,2.6983,2.6983,2.6983,2.6838,2.6385,2.6099,2.5568,2.4833,2.4243,2.3732,2.3327,2.3351,2.3201,2.2954,2.3193,2.3487,5.2409,0.0,0.0,0.0,0.0,0.0,4.6726,4.6135,4.5956,4.594,4.5895,4.5895,4.5895,4.4989,4.4219,4.3937,4.2133,4.0794,4.0794,4.0312,4.0074,4.0475,4.0777,4.1128,4.153,4.1706,4.1957,4.2414,4.2439,4.2504,4.26,4.2425,4.2312,4.2199,4.1834,4.0582,3.8305,3.7947,3.6764,3.4922,3.4922,3.5108,3.5418,3.5418,3.4133,3.1835,3.1451,2.9965,2.7716,2.7334,2.72,2.72,2.72,2.72,2.72,2.72,2.72,2.72,2.72,2.72,2.72,2.72,2.7439,2.7772,2.8011,2.8408,2.8821,2.9075,2.9218,2.9298,2.9298,2.9298,2.9298,2.9298,2.9298,2.9298,2.9298,2.9298,2.9298,2.9298,2.9298,2.9154,2.8779,2.8491,2.813,2.7768,2.742,2.7202,2.7202,2.7056,2.6983,2.6983,2.6983,2.6983,2.6983,2.6983,2.6983,2.6983,2.6983,2.6838,2.6385,2.6314,2.5794,2.4833,2.4378,2.3866,2.3327,2.3157,2.3117,2.3207,2.35,2.3688,0.0,0.0,0.0,0.0,0.0,0.0,4.6959,4.6269,4.5895,4.5895,4.5895,4.5895,4.5895,4.5384,4.4805,4.4359,4.2909,4.1716,4.1269,4.0313,3.9823,4.0149,4.0375,4.0651,4.0953,4.1404,4.1806,4.2187,4.2414,4.2524,4.2513,4.2256,4.2054,4.1915,4.0894,3.951,3.7887,3.6803,3.5725,3.4673,3.4673,3.4922,3.5418,3.5418,3.3882,3.1322,3.1322,2.9705,2.72,2.72,2.72,2.72,2.72,2.72,2.72,2.72,2.72,2.72,2.72,2.72,2.7232,2.7375,2.7661,2.7995,2.8344,2.8694,2.9028,2.9234,2.9298,2.9298,2.9298,2.9298,2.9298,2.9298,2.9298,2.9298,2.9298,2.9298,2.9298,2.9298,2.9154,2.8923,2.8491,2.813,2.7768,2.742,2.7129,2.6983,2.6983,2.6983,2.6983,2.6983,2.6983,2.6983,2.6983,2.6983,2.691,2.6765,2.6765,2.6473,2.5887,2.5887,2.551,2.4734,2.4435,2.3941,2.3327,2.302,2.2953,2.314,2.3447,2.3514,0.0,0.0,0.0,0.0,4.9447,0.0,4.7362,4.6506,4.5895,4.5895,4.5895,4.5895,4.5895,4.5895,4.5595,4.4666,4.3559,4.2452,4.1369,4.0313,3.9697,3.9697,4.0124,4.0425,4.0425,4.1354,4.2007,4.2057,4.2579,4.2681,4.24,4.2142,4.1859,4.1549,3.9193,3.7768,3.7309,3.4881,3.3859,3.436,3.436,3.4735,3.5356,3.5356,3.3882,3.1322,3.1322,2.9705,2.72,2.72,2.72,2.72,2.72,2.72,2.72,2.72,2.72,2.72,2.72,2.72,2.7264,2.7614,2.7963,2.8297,2.8662,2.9012,2.9298,2.9298,2.9298,2.9298,2.9298,2.9298,2.9298,2.9298,2.9298,2.9298,2.9298,2.9298,2.9226,2.9226,2.8923,2.8563,2.813,2.7768,2.7478,2.7056,2.6983,2.6983,2.6983,2.6983,2.6983,2.6983,2.6983,2.6983,2.6983,2.6983,2.6765,2.6385,2.6385,2.596,2.5239,2.5226,2.5005,2.4636,2.4315,2.3888,2.3327,2.302,2.2928,2.2941,2.314,2.3126,0.0,0.0,0.0,0.0,4.9085,0.0,4.7176,4.6403,4.5895,4.5895,4.5895,4.5895,4.5895,4.5895,4.5821,4.564,4.3984,4.2452,4.1369,4.0313,3.9697,3.9697,3.9798,3.9848,3.9848,4.045,4.0896,4.113,4.1632,4.1834,4.1777,4.1516,4.1344,4.1287,3.9767,3.8387,3.7309,3.5786,3.4652,3.3985,3.4298,3.461,3.4984,3.5294,3.3882,3.1322,3.1322,2.9705,2.72,2.72,2.72,2.72,2.72,2.72,2.72,2.72,2.72,2.72,2.72,2.72,2.7264,2.7614,2.7963,2.8297,2.8662,2.9012,2.9298,2.9298,2.9298,2.9298,2.9298,2.9298,2.9298,2.9298,2.9298,2.9298,2.9298,2.9066,2.8851,2.8851,2.8763,2.8491,2.784,2.7623,2.7478,2.7056,2.6983,2.6983,2.6983,2.6983,2.6983,2.6983,2.6983,2.6983,2.6983,2.6692,2.6473,2.6399,2.6093,2.5726,2.5226,2.5226,2.5005,2.4636,2.4115,2.3688,2.3327,2.302,2.2928,2.2928,2.2926,2.2926,0.0,0.0,0.0,5.0229,0.0,0.0,0.0,4.6594,4.5895,4.5895,4.5895,4.5895,4.5895,4.5895,4.573,4.5201,4.3796,4.2452,4.1369,4.0313,3.9697,3.9697,3.9697,3.9746,3.9865,4.0389,4.0931,4.1447,4.1541,4.1606,4.1606,4.1344,4.0884,4.0199,3.8921,3.767,3.6338,3.5067,3.4215,3.3922,3.4235,3.461,3.4922,3.5232,3.3882,3.1322,3.1322,2.9705,2.72,2.72,2.72,2.72,2.72,2.72,2.72,2.72,2.72,2.72,2.72,2.7312,2.7518,2.7868,2.8217,2.8567,2.8916,2.9155,2.9298,2.9298,2.9298,2.9298,2.9298,2.9298,2.9298,2.9298,2.9298,2.9298,2.9298,2.8979,2.8676,2.8418,2.8259,2.8027,2.7695,2.7405,2.7202,2.7056,2.6983,2.6983,2.6983,2.6983,2.6983,2.6983,2.6983,2.691,2.6692,2.6546,2.6253,2.5814,2.5593,2.5299,2.4931,2.4931,2.4784,2.4636,2.4209,2.3848,2.3554,2.3247,2.3006,2.2928,2.2928,2.2928,0.0,0.0,0.0,0.0,0.0,4.7861,0.0,0.0,0.0,4.5895,4.5895,4.5895,4.5895,4.5895,4.564,4.4759,4.3748,4.2792,4.1887,4.0844,4.0032,3.9645,3.9697,3.9794,3.9975,4.0566,4.1194,4.1955,4.1745,4.1492,4.1492,4.1091,4.0316,3.9216,3.773,3.646,3.5438,3.409,3.3544,3.3922,3.4235,3.461,3.4922,3.5232,3.3882,3.1322,3.1579,2.9965,2.72,2.7467,2.7467,2.72,2.72,2.72,2.72,2.72,2.72,2.72,2.72,2.7439,2.7788,2.8122,2.8519,2.8916,2.9202,2.9298,2.9298,2.9298,2.9298,2.9298,2.9298,2.9298,2.9298,2.9298,2.9298,2.9298,2.9298,2.8947,2.8485,2.8186,2.7738,2.7505,2.7478,2.7202,2.6983,2.6983,2.6983,2.6983,2.6983,2.6983,2.6983,2.6983,2.691,2.6765,2.6399,2.6253,2.5887,2.5226,2.5152,2.4931,2.4636,2.4636,2.4636,2.4636,2.4356,2.4062,2.3768,2.3474,2.3166,2.2928,2.2928,2.2928,0.0,0.0,0.0,0.0,4.849,0.0,4.7163,0.0,4.5895,4.5895,0.0,4.5895,4.5895,0.0,0.0,4.573,4.4805,4.4078,4.3984,4.2695,4.1145,3.9517,3.9542,3.969,3.9656,4.0343,4.1086,4.1615,4.1402,4.123,4.123,4.0083,3.9357,3.9216,3.6885,3.5561,3.5376,3.409,3.3544,3.3922,3.4235,3.461,3.4922,3.5232,3.3882,3.1368,3.26,3.0872,2.7267,2.8559,2.8296,2.72,2.72,2.72,2.72,2.72,2.72,2.72,2.72,2.7439,2.7788,2.8122,2.8678,2.925,2.9282,2.9298,2.9298,2.9298,2.9298,2.9298,2.9298,2.9298,2.9298,2.9298,2.9298,2.9298,2.9298,2.8701,2.8151,2.8114,2.7565,2.7056,2.7056,2.7056,2.6983,2.6983,2.6983,2.6983,2.6983,2.6983,2.6983,2.6983,2.6692,2.6473,2.6399,2.574,2.5299,2.5239,2.4857,2.4636,2.4636,2.4636,2.4636,2.4636,2.4356,2.4062,2.3768,2.3474,2.3166,2.2928,2.2928,2.2928,0.0,0.0,0.0,0.0,0.0,0.0,4.6975,0.0,4.5895,0.0,0.0,0.0,0.0,0.0,0.0,0.0,4.4989,4.4219,4.3918,4.2792,4.1743,4.0945,4.0313,3.9919,3.9859,4.0546,4.116,4.1378,4.123,4.1172,4.1172,4.0687,3.965,3.8149,3.7067,3.5786,3.4278,3.367,3.3544,3.3922,3.4235,3.461,3.4922,3.5232,3.434,3.2537,3.3126,3.1515,2.8427,2.9085,2.8493,2.7232,2.7423,2.7391,2.72,2.72,2.7328,2.7518,2.7518,2.7868,2.8392,2.8742,2.9043,2.9298,2.9298,2.9298,2.9298,2.9298,2.9926,3.0605,3.0605,3.0572,3.0593,3.0593,3.0562,3.0513,3.0336,2.9824,2.9361,2.9158,2.7961,2.6983,2.6983,2.6983,2.6983,2.6983,2.6983,2.6983,2.6983,2.6983,2.691,2.6692,2.6473,2.618,2.574,2.5373,2.5079,2.4857,2.471,2.4636,2.4636,2.4636,2.4636,2.4636,2.4516,2.4315,2.4022,2.3728,2.3434,2.3126,2.2953,2.2791,4.8922,0.0,0.0,0.0,0.0,0.0,0.0,0.0,0.0,0.0,4.5895,0.0,0.0,0.0,0.0,0.0,0.0,4.4573,4.4059,4.3252,4.2431,4.1792,4.0875,4.037,4.0562,4.0959,4.1172,4.1172,4.1172,4.1172,4.1172,4.0513,3.9239,3.7369,3.656,3.5294,3.3418,3.3418,3.3544,3.3922,3.4235,3.461,3.4922,3.5232,3.4652,3.3442,3.3757,3.2409,2.9917,3.0414,2.955,2.7961,2.8791,2.8437,2.7486,2.7486,2.7645,2.7868,2.7868,2.8265,2.8892,2.967,2.9926,2.9926,2.9926,3.0195,3.0409,2.9981,3.096,3.2106,3.2123,3.1809,3.1477,3.1495,3.1486,3.1397,3.1043,3.0705,3.025,2.9897,2.827,2.6983,2.6983,2.6983,2.6983,2.6983,2.6983,2.6983,2.6983,2.691,2.6692,2.6399,2.618,2.5814,2.5226,2.5079,2.4931,2.4636,2.4636,2.4636,2.4636,2.4636,2.4636,2.4636,2.4636,2.4489,2.4209,2.3915,2.3621,2.3313,2.3006,2.2448,0.0,0.0,0.0,4.7076,0.0,0.0,0.0,0.0,4.5895,0.0,0.0,0.0,0.0,0.0,0.0,0.0,0.0,0.0,0.0,4.463,4.3471,4.1222,4.0839,4.113,4.1978,4.1516,4.1172,4.1172,4.1172,4.1172,4.1172,3.8803,3.7369,3.7309,3.4819,3.3481,3.3418,3.3418,3.3544,3.3922,3.4235,3.461,3.4922,3.5232,3.4652,3.3442,3.4777,3.3757,3.1341,3.3187,3.2301,2.9914,3.1817,3.075,2.8186,2.8186,2.8201,2.8201,2.8201,2.8456,2.9103,3.0825,3.1437,3.1437,3.1437,3.2403,3.3221,3.1842,3.2473,3.367,3.3605,3.2608,3.1512,3.1514,3.1525,3.1397,3.1043,3.066,3.0306,2.9841,2.827,2.6983,2.6983,2.6983,2.6983,2.6983,2.6983,2.6983,2.6983,2.6692,2.6399,2.6399,2.5667,2.5239,2.5226,2.4857,2.4636,2.4636,2.4636,2.4636,2.4636,2.4636,2.4636,2.4636,2.4636,2.4489,2.4209,2.3915,2.3621,2.3313,2.3006,2.1953,4.7163,0.0,4.7076,4.6403,0.0,0.0,0.0,0.0,0.0,0.0,0.0,0.0,0.0,0.0,0.0,0.0,0.0,0.0,0.0,4.426,4.4015,4.3999,4.2553,4.1667,4.1838,4.146,4.1172,4.1172,4.1172,4.1172,4.1172,4.0339,3.9121,3.7347,3.646,3.517,3.3418,3.3418,3.3544,3.3922,3.4235,3.461,3.4922,3.5232,3.517,3.4715,3.5232,3.4564,3.3232,3.3836,3.3141,3.1835,3.2722,3.185,3.0048,2.9814,2.9261,2.8755,2.9946,3.0447,3.0862,3.242,3.2961,3.2961,3.2961,3.3291,3.3568,3.3083,3.4001,3.5169,3.516,3.4022,3.3179,3.4144,3.348,3.2789,3.3473,3.2471,3.1375,3.0976,2.8784,2.6983,2.6983,2.6983,2.6983,2.6983,2.6983,2.6925,2.6633,2.6473,2.618,2.5667,2.5373,2.5079,2.4857,2.471,2.4636,2.4636,2.4636,2.4636,2.4636,2.4636,2.4636,2.4636,2.4636,2.4596,2.4489,2.4195,2.3242,2.1709,2.1426,2.0716,4.6535,4.6535,4.6447,4.603,4.5895,0.0,4.5895,0.0,4.5895,0.0,0.0,0.0,0.0,0.0,0.0,0.0,0.0,0.0,0.0,4.4392,4.4474,4.5478,4.3677,4.2322,4.2443,4.1695,4.1172,4.1172,4.1172,4.1172,4.1172,4.0339,3.9062,3.7347,3.6399,3.5108,3.3418,3.3418,3.3481,3.3733,3.4173,3.4485,3.4735,3.517,3.55,3.5666,3.5666,3.5411,3.5051,3.5211,3.4648,3.3727,3.4633,3.3749,3.186,3.115,3.0405,2.9954,3.107,3.1842,3.2543,3.4001,3.4483,3.4483,3.4483,3.4895,3.5207,3.4859,3.5713,3.6761,3.6901,3.5724,3.4717,3.5525,3.4966,3.4367,3.48,3.3521,3.2154,3.1777,2.9138,2.6983,2.6983,2.6983,2.6983,2.6983,2.6896,2.6677,2.6414,2.618,2.58,2.5226,2.5079,2.4857,2.4636,2.4636,2.4636,2.4636,2.4636,2.4636,2.4636,2.4636,2.4636,2.4636,2.4636,2.4562,2.4414,2.3525,2.2323,2.0738,1.9162,1.8222]},{"header":{"parameterUnit":"m.s-1","parameterCategory":1,"la1":30.6,"la2":29.2853,"lo1":-89.7004,"lo2":-87.6739,"dy":0.0162,"dx":0.0183,"nx":112,"ny":82,"refTime":"2023-11-20T06:00:00:Z","depth":0,"parameterNumber":3,"parameterNumberName":"V-component_of_WINDS"},"data":[0.0,0.0,0.0,0.0,0.0,0.0,0.0,0.0,0.0,0.0,0.0,0.0,0.0,0.0,0.0,0.0,0.0,0.0,0.0,0.0,0.0,0.0,0.0,0.0,0.0,0.0,0.0,0.0,0.0,0.0,0.0,0.0,0.0,0.0,0.0,0.0,0.0,0.0,0.0,0.0,0.0,0.0,0.0,0.0,0.0,0.0,0.0,0.0,0.0,0.0,0.0,0.0,0.0,0.0,0.0,0.0,0.0,0.0,0.0,0.0,0.0,0.0,0.0,0.0,0.0,0.0,0.0,0.0,0.0,0.0,0.0,0.0,0.0,0.0,0.0,0.0,0.0,0.0,0.0,0.0,0.0,0.0,0.0,0.0,0.0,0.0,0.0,0.0,0.0,0.0,3.329,3.329,3.329,3.329,3.329,3.329,3.329,3.329,0.0,0.0,0.0,0.0,0.0,0.0,0.0,0.0,0.0,0.0,0.0,0.0,0.0,0.0,0.0,0.0,0.0,0.0,0.0,0.0,0.0,0.0,0.0,0.0,0.0,0.0,0.0,0.0,0.0,0.0,0.0,0.0,0.0,0.0,0.0,0.0,0.0,0.0,0.0,0.0,0.0,0.0,0.0,0.0,0.0,0.0,0.0,0.0,0.0,0.0,0.0,0.0,0.0,0.0,0.0,0.0,0.0,0.0,0.0,0.0,0.0,0.0,0.0,0.0,0.0,0.0,0.0,0.0,0.0,0.0,0.0,0.0,0.0,0.0,0.0,0.0,0.0,0.0,0.0,0.0,0.0,0.0,0.0,0.0,0.0,0.0,0.0,0.0,0.0,0.0,0.0,0.0,0.0,0.0,0.0,0.0,0.0,0.0,0.0,0.0,0.0,0.0,0.0,0.0,3.329,3.329,3.329,3.329,3.329,3.329,3.329,3.329,0.0,0.0,0.0,0.0,0.0,0.0,0.0,0.0,0.0,0.0,0.0,0.0,0.0,0.0,0.0,0.0,0.0,0.0,0.0,0.0,0.0,0.0,0.0,0.0,0.0,0.0,0.0,0.0,0.0,0.0,0.0,0.0,0.0,0.0,0.0,0.0,0.0,0.0,0.0,0.0,0.0,0.0,0.0,0.0,0.0,0.0,0.0,0.0,0.0,0.0,0.0,0.0,0.0,0.0,0.0,0.0,0.0,0.0,0.0,0.0,0.0,0.0,0.0,0.0,0.0,0.0,0.0,0.0,0.0,0.0,0.0,0.0,0.0,0.0,0.0,0.0,0.0,0.0,0.0,0.0,0.0,0.0,0.0,0.0,0.0,0.0,0.0,0.0,0.0,0.0,0.0,0.0,0.0,0.0,0.0,0.0,0.0,0.0,0.0,0.0,0.0,0.0,0.0,3.329,3.329,3.329,3.329,3.329,3.329,3.329,3.329,3.329,3.329,0.0,0.0,0.0,0.0,0.0,0.0,0.0,0.0,0.0,0.0,0.0,0.0,0.0,0.0,0.0,0.0,0.0,0.0,0.0,0.0,0.0,0.0,0.0,0.0,0.0,0.0,0.0,0.0,0.0,0.0,0.0,0.0,0.0,0.0,0.0,0.0,0.0,0.0,0.0,0.0,0.0,0.0,0.0,0.0,0.0,0.0,0.0,0.0,0.0,0.0,0.0,0.0,0.0,0.0,0.0,0.0,0.0,0.0,0.0,0.0,0.0,0.0,0.0,0.0,0.0,0.0,0.0,0.0,0.0,0.0,0.0,0.0,0.0,0.0,0.0,0.0,0.0,0.0,0.0,0.0,0.0,0.0,0.0,0.0,0.0,0.0,0.0,0.0,0.0,0.0,0.0,0.0,0.0,0.0,0.0,0.0,0.0,0.0,0.0,0.0,0.0,0.0,3.329,3.329,3.329,3.329,3.329,3.329,3.329,3.329,3.329,3.329,0.0,0.0,0.0,0.0,0.0,0.0,0.0,0.0,0.0,0.0,0.0,0.0,0.0,0.0,0.0,0.0,0.0,0.0,0.0,0.0,0.0,0.0,0.0,0.0,0.0,0.0,0.0,0.0,0.0,0.0,0.0,0.0,0.0,0.0,0.0,0.0,0.0,0.0,0.0,0.0,0.0,0.0,0.0,0.0,0.0,0.0,0.0,0.0,0.0,0.0,0.0,0.0,0.0,0.0,0.0,0.0,0.0,0.0,0.0,0.0,0.0,0.0,0.0,0.0,0.0,0.0,0.0,0.0,0.0,0.0,0.0,0.0,0.0,0.0,0.0,0.0,0.0,0.0,0.0,0.0,0.0,0.0,0.0,0.0,0.0,0.0,0.0,0.0,0.0,0.0,0.0,0.0,0.0,0.0,0.0,0.0,0.0,0.0,0.0,0.0,0.0,0.0,3.329,3.329,3.329,3.329,3.329,3.329,3.329,3.329,3.329,3.329,0.0,0.0,0.0,0.0,0.0,0.0,0.0,0.0,0.0,0.0,0.0,0.0,0.0,0.0,0.0,0.0,0.0,0.0,0.0,0.0,0.0,0.0,0.0,0.0,0.0,0.0,0.0,0.0,0.0,0.0,0.0,0.0,0.0,0.0,0.0,0.0,0.0,0.0,0.0,0.0,0.0,0.0,0.0,0.0,0.0,0.0,0.0,0.0,0.0,0.0,0.0,0.0,0.0,0.0,0.0,0.0,0.0,0.0,0.0,0.0,0.0,0.0,0.0,0.0,0.0,0.0,0.0,0.0,0.0,0.0,0.0,0.0,0.0,0.0,0.0,0.0,0.0,0.0,0.0,0.0,0.0,0.0,0.0,0.0,0.0,0.0,0.0,0.0,0.0,0.0,0.0,0.0,0.0,0.0,0.0,0.0,0.0,0.0,0.0,0.0,0.0,0.0,3.414,3.3852,0.0,3.3515,3.329,3.329,3.329,3.329,3.329,0.0,0.0,0.0,0.0,0.0,0.0,0.0,0.0,0.0,0.0,0.0,0.0,0.0,0.0,0.0,0.0,0.0,0.0,0.0,0.0,0.0,0.0,0.0,0.0,0.0,0.0,0.0,0.0,0.0,0.0,0.0,0.0,0.0,0.0,0.0,0.0,0.0,0.0,0.0,0.0,0.0,0.0,0.0,0.0,0.0,0.0,0.0,0.0,0.0,0.0,0.0,0.0,0.0,0.0,0.0,0.0,0.0,0.0,0.0,0.0,0.0,0.0,0.0,0.0,0.0,0.0,0.0,0.0,0.0,0.0,0.0,0.0,0.0,0.0,0.0,0.0,0.0,0.0,0.0,0.0,0.0,0.0,0.0,0.0,0.0,0.0,0.0,0.0,0.0,0.0,0.0,0.0,0.0,0.0,0.0,0.0,0.0,0.0,0.0,0.0,0.0,0.0,3.5189,3.4787,3.4534,0.0,3.4169,3.3888,3.3888,3.3719,3.3571,3.3571,0.0,0.0,0.0,0.0,0.0,0.0,0.0,0.0,0.0,0.0,0.0,0.0,0.0,0.0,0.0,0.0,0.0,0.0,0.0,0.0,0.0,0.0,0.0,0.0,0.0,0.0,0.0,0.0,0.0,0.0,0.0,0.0,0.0,0.0,0.0,0.0,0.0,0.0,0.0,0.0,0.0,0.0,0.0,0.0,0.0,0.0,0.0,0.0,0.0,0.0,0.0,0.0,0.0,0.0,0.0,0.0,0.0,0.0,0.0,0.0,0.0,0.0,0.0,0.0,0.0,0.0,0.0,0.0,0.0,0.0,0.0,0.0,0.0,0.0,0.0,0.0,0.0,0.0,0.0,0.0,0.0,0.0,0.0,0.0,0.0,0.0,0.0,0.0,0.0,0.0,0.0,0.0,0.0,0.0,0.0,0.0,0.0,0.0,0.0,0.0,0.0,0.0,3.5217,3.5189,3.5189,3.5189,3.5189,3.5189,3.5189,3.459,3.4217,0.0,0.0,0.0,0.0,0.0,0.0,0.0,0.0,0.0,0.0,0.0,0.0,0.0,0.0,0.0,0.0,0.0,0.0,0.0,0.0,0.0,0.0,0.0,0.0,0.0,0.0,0.0,0.0,0.0,0.0,0.0,0.0,0.0,0.0,0.0,0.0,0.0,0.0,0.0,0.0,0.0,0.0,0.0,0.0,0.0,0.0,0.0,0.0,0.0,0.0,0.0,0.0,0.0,0.0,0.0,0.0,0.0,0.0,0.0,0.0,0.0,0.0,0.0,0.0,0.0,0.0,0.0,0.0,0.0,0.0,0.0,0.0,0.0,0.0,0.0,0.0,0.0,0.0,0.0,0.0,0.0,0.0,0.0,0.0,0.0,0.0,0.0,0.0,0.0,0.0,0.0,0.0,0.0,0.0,0.0,0.0,0.0,0.0,0.0,0.0,0.0,0.0,0.0,3.6483,3.6117,3.5836,3.5836,3.5442,3.5263,3.541,3.524,3.5192,3.5337,0.0,0.0,0.0,0.0,0.0,0.0,0.0,0.0,0.0,0.0,0.0,0.0,0.0,0.0,0.0,0.0,0.0,0.0,0.0,0.0,0.0,0.0,0.0,0.0,0.0,0.0,0.0,0.0,0.0,0.0,0.0,0.0,0.0,0.0,0.0,0.0,0.0,0.0,0.0,0.0,0.0,0.0,0.0,0.0,0.0,0.0,0.0,0.0,0.0,0.0,0.0,0.0,0.0,0.0,0.0,0.0,0.0,0.0,0.0,0.0,0.0,0.0,0.0,0.0,0.0,0.0,0.0,0.0,0.0,0.0,0.0,0.0,0.0,0.0,0.0,0.0,0.0,0.0,0.0,0.0,0.0,0.0,0.0,0.0,0.0,0.0,0.0,0.0,0.0,0.0,0.0,0.0,0.0,0.0,0.0,0.0,0.0,0.0,0.0,0.0,0.0,0.0,3.6978,3.6708,3.6483,3.6483,3.6145,3.5996,3.6184,3.5994,3.5926,3.6176,0.0,0.0,0.0,0.0,0.0,0.0,0.0,0.0,0.0,0.0,0.0,0.0,0.0,0.0,0.0,0.0,0.0,0.0,0.0,0.0,0.0,0.0,0.0,0.0,0.0,0.0,0.0,0.0,0.0,0.0,0.0,0.0,0.0,0.0,0.0,0.0,0.0,0.0,0.0,0.0,0.0,0.0,0.0,0.0,0.0,0.0,0.0,0.0,0.0,0.0,0.0,0.0,0.0,0.0,0.0,0.0,0.0,0.0,0.0,0.0,0.0,0.0,0.0,0.0,0.0,0.0,0.0,0.0,0.0,0.0,0.0,0.0,0.0,0.0,0.0,0.0,0.0,0.0,0.0,0.0,0.0,0.0,0.0,0.0,0.0,0.0,0.0,0.0,0.0,0.0,0.0,0.0,0.0,0.0,0.0,0.0,0.0,0.0,0.0,0.0,0.0,0.0,3.6978,3.6978,3.6978,3.6978,3.6978,3.7095,3.7289,3.6817,3.6618,3.6842,0.0,0.0,0.0,0.0,0.0,0.0,0.0,0.0,0.0,0.0,0.0,0.0,0.0,0.0,0.0,0.0,0.0,0.0,0.0,0.0,0.0,0.0,0.0,0.0,0.0,0.0,0.0,0.0,0.0,0.0,0.0,0.0,0.0,0.0,0.0,0.0,0.0,0.0,0.0,0.0,0.0,0.0,0.0,0.0,0.0,0.0,0.0,0.0,0.0,0.0,0.0,0.0,0.0,0.0,0.0,0.0,0.0,0.0,0.0,0.0,3.2254,3.1673,0.0,0.0,0.0,0.0,0.0,0.0,0.0,0.0,0.0,0.0,0.0,0.0,0.0,0.0,0.0,0.0,0.0,0.0,0.0,0.0,0.0,0.0,0.0,0.0,0.0,0.0,0.0,0.0,0.0,0.0,0.0,0.0,0.0,0.0,0.0,0.0,0.0,0.0,0.0,0.0,3.6978,3.6978,3.6978,3.6978,3.6978,3.7134,3.751,3.7434,3.7501,3.7849,3.7808,0.0,0.0,0.0,0.0,0.0,0.0,0.0,0.0,0.0,0.0,0.0,0.0,0.0,0.0,0.0,0.0,0.0,0.0,0.0,0.0,0.0,0.0,0.0,0.0,0.0,0.0,0.0,0.0,0.0,0.0,0.0,0.0,0.0,0.0,0.0,0.0,0.0,0.0,0.0,0.0,0.0,0.0,0.0,0.0,0.0,0.0,0.0,0.0,0.0,0.0,0.0,0.0,0.0,0.0,0.0,0.0,0.0,0.0,0.0,3.2889,3.229,0.0,0.0,0.0,0.0,0.0,0.0,0.0,0.0,0.0,0.0,0.0,0.0,0.0,0.0,0.0,0.0,0.0,0.0,0.0,0.0,0.0,0.0,0.0,0.0,0.0,0.0,0.0,0.0,0.0,0.0,0.0,0.0,0.0,0.0,0.0,0.0,0.0,0.0,0.0,0.0,3.6978,3.6978,3.6978,3.6978,3.6978,3.7095,3.7433,3.7548,3.7739,3.8043,3.8127,0.0,0.0,0.0,0.0,0.0,0.0,0.0,0.0,0.0,0.0,0.0,0.0,0.0,0.0,0.0,0.0,0.0,0.0,0.0,0.0,0.0,0.0,0.0,0.0,0.0,0.0,0.0,0.0,0.0,0.0,0.0,0.0,0.0,0.0,0.0,0.0,0.0,0.0,0.0,0.0,0.0,0.0,0.0,0.0,0.0,0.0,0.0,0.0,0.0,0.0,0.0,0.0,0.0,3.2763,3.3083,3.3615,3.4265,3.4872,3.5297,3.3567,3.3195,3.3691,3.3088,0.0,0.0,0.0,0.0,0.0,0.0,0.0,0.0,0.0,0.0,0.0,0.0,0.0,0.0,0.0,0.0,0.0,0.0,0.0,0.0,0.0,0.0,3.8202,3.8202,3.8202,3.8165,3.8005,0.0,0.0,0.0,0.0,0.0,0.0,0.0,0.0,0.0,0.0,0.0,3.7376,3.7366,3.7289,3.7173,3.7173,3.7211,3.7327,3.751,3.7701,3.7929,3.8089,3.8202,0.0,0.0,0.0,0.0,0.0,0.0,0.0,0.0,0.0,0.0,0.0,0.0,0.0,0.0,0.0,0.0,0.0,0.0,0.0,0.0,0.0,0.0,0.0,0.0,0.0,0.0,0.0,0.0,0.0,0.0,0.0,0.0,2.6907,2.7098,0.0,0.0,0.0,0.0,0.0,0.0,0.0,0.0,0.0,0.0,0.0,0.0,0.0,3.2171,3.2722,3.3522,3.4228,3.4806,3.5453,3.5798,3.5885,3.5992,3.6086,3.6143,3.5863,0.0,3.5876,3.5805,0.0,0.0,0.0,0.0,0.0,0.0,0.0,0.0,0.0,0.0,0.0,0.0,0.0,0.0,0.0,0.0,0.0,0.0,0.0,0.0,0.0,0.0,3.8202,3.8202,3.8202,3.8202,3.8165,3.8043,3.7891,3.7891,3.8052,3.8202,0.0,0.0,0.0,0.0,0.0,0.0,3.8957,3.8767,3.836,3.7863,3.7758,3.7711,3.7586,3.7586,3.7749,3.8127,3.8202,3.8202,3.8202,3.8115,0.0,0.0,0.0,0.0,0.0,0.0,0.0,0.0,0.0,0.0,0.0,0.0,0.0,0.0,0.0,0.0,0.0,0.0,0.0,0.0,0.0,0.0,0.0,0.0,0.0,0.0,0.0,0.0,0.0,2.7017,2.7487,2.8514,2.8973,2.9248,0.0,0.0,0.0,0.0,0.0,0.0,0.0,0.0,0.0,3.2081,3.3248,3.3956,3.4233,3.4994,3.5533,3.5819,3.6548,3.7041,3.7389,3.7767,3.7941,3.7941,3.7941,3.7738,3.7331,3.6606,3.6519,3.6867,0.0,0.0,0.0,0.0,3.7825,3.7854,3.8115,3.8202,3.8202,3.8202,0.0,0.0,0.0,0.0,0.0,0.0,0.0,3.8202,3.8202,3.8202,3.8202,3.8202,3.8509,3.8841,3.8841,3.9066,3.9175,3.8767,3.895,3.9284,3.9713,3.9672,0.0,0.0,0.0,3.8841,3.8987,3.8877,3.8723,3.8435,3.8427,3.8435,3.8546,3.8277,3.8435,3.9218,3.862,3.8583,3.9427,3.8657,3.8583,0.0,0.0,0.0,0.0,0.0,0.0,0.0,0.0,0.0,0.0,0.0,0.0,0.0,0.0,0.0,0.0,0.0,0.0,0.0,0.0,0.0,0.0,0.0,0.0,0.0,0.0,0.0,0.0,2.773,2.8291,2.9624,2.9804,2.9818,0.0,0.0,0.0,0.0,0.0,0.0,3.1653,3.2368,3.2987,3.3549,3.4975,3.5804,3.5946,3.6699,3.7128,3.7273,3.7796,3.826,3.8696,3.9189,3.9421,3.9421,3.9421,3.916,3.858,3.7302,3.7099,3.7535,3.7535,3.7796,3.8231,3.8405,3.8463,3.8492,3.8638,3.8696,3.8696,3.8696,3.8696,3.8696,3.8696,0.0,0.0,0.0,0.0,3.8696,3.8696,3.8696,3.8696,3.8696,3.9306,3.9828,3.9828,4.0411,4.0673,3.9672,3.9889,4.0343,4.0857,4.0718,0.0,0.0,0.0,3.9565,3.9606,3.9565,3.9457,3.9284,3.9313,3.9356,3.9469,3.9139,3.9284,4.0109,3.929,3.9175,4.0069,3.9247,3.9211,4.0104,0.0,0.0,0.0,0.0,0.0,0.0,0.0,0.0,0.0,0.0,0.0,0.0,0.0,0.0,0.0,0.0,0.0,0.0,0.0,0.0,0.0,0.0,0.0,0.0,0.0,0.0,0.0,0.0,0.0,2.9804,2.9804,0.0,0.0,0.0,0.0,3.1973,3.1885,3.239,3.3767,3.4603,3.504,3.5105,3.6458,3.7461,3.8049,3.8725,3.9334,3.9915,3.9944,3.9973,4.0002,4.0031,4.006,4.006,4.006,4.0031,3.9915,3.8638,3.8115,3.8144,3.8144,3.8173,3.8289,3.8899,3.916,3.9247,3.9799,4.0002,4.0002,4.0002,4.0002,4.0002,4.0002,4.0002,0.0,0.0,4.0002,4.0002,4.0002,4.0002,4.0002,4.0002,4.0663,4.131,4.131,4.1949,4.1991,4.0388,4.0554,4.0891,4.0724,0.0,4.1654,4.1948,4.1687,4.1588,4.1916,4.1654,4.1258,4.0656,4.0588,4.0485,4.0109,4.0039,4.0109,4.0382,4.0313,3.9999,3.9391,3.9964,3.9999,3.9391,3.9964,0.0,0.0,0.0,0.0,0.0,0.0,0.0,0.0,0.0,0.0,0.0,0.0,0.0,0.0,0.0,0.0,0.0,0.0,0.0,0.0,0.0,0.0,0.0,0.0,0.0,0.0,0.0,0.0,2.9702,2.9804,0.0,3.0399,3.0371,3.0927,3.2397,3.245,3.3272,3.5252,3.6013,3.6817,3.7767,3.8668,3.9218,3.9421,3.9654,3.9886,4.0089,4.0525,4.0728,4.0757,4.1192,4.1163,4.0728,4.0728,4.0495,4.006,3.9596,3.9421,3.9421,3.9421,3.9421,3.945,3.9683,3.977,3.9799,4.0031,4.0089,4.0089,4.0089,4.0089,4.0089,4.0089,4.0089,4.0089,4.0089,4.0089,4.0089,4.0089,4.0519,4.079,4.0207,4.1528,4.2731,4.2218,4.3087,4.3827,4.325,4.2918,4.2884,4.3255,4.332,4.3385,4.3485,4.3218,4.2984,4.3085,4.2637,4.2219,4.1985,4.1543,4.1325,4.1393,4.0927,4.0995,4.1754,4.0927,4.069,4.1393,4.0758,4.0485,4.0724,4.0034,3.9788,0.0,0.0,0.0,0.0,0.0,0.0,0.0,0.0,0.0,0.0,0.0,0.0,0.0,0.0,0.0,0.0,0.0,0.0,0.0,0.0,0.0,0.0,0.0,0.0,0.0,0.0,2.9244,2.9977,3.0328,3.0726,3.1247,3.1769,3.266,3.4083,3.4376,3.5347,3.7347,3.7851,3.8552,3.9479,4.0321,4.0757,4.0757,4.1192,4.1424,4.1424,4.186,4.2063,4.2092,4.2528,4.2498,4.2063,4.2063,4.1831,4.1424,4.1424,4.1424,4.1337,4.0437,4.0089,4.0118,4.035,4.0437,4.0466,4.0699,4.0757,4.0757,4.0757,4.0757,4.0757,4.0757,4.0757,4.0757,4.0757,4.0956,4.1125,4.0837,4.1596,4.225,4.1401,4.2792,4.4232,4.3666,4.4582,4.55,4.55,4.4744,4.4255,4.4721,4.4622,4.4489,4.4489,4.4221,4.4052,4.4052,4.3671,4.3416,4.3416,4.2969,4.2748,4.3008,4.2583,4.2456,4.2943,4.2038,4.1745,4.2206,4.1525,4.126,4.1492,4.0313,3.9788,4.0034,0.0,0.0,0.0,0.0,0.0,0.0,0.0,0.0,0.0,0.0,0.0,0.0,0.0,0.0,0.0,0.0,0.0,0.0,0.0,0.0,0.0,0.0,0.0,2.8736,2.9312,3.0069,3.0622,3.1474,3.2226,3.2765,3.4176,3.5636,3.7067,3.7698,3.8638,4.0079,4.0147,4.0176,4.0205,4.1482,4.215,4.215,4.3369,4.3979,4.3979,4.3979,4.3979,4.3979,4.3979,4.3979,4.3979,4.3979,4.3979,4.3979,4.3979,4.3979,4.3747,4.1192,4.0176,4.0263,4.0902,4.1134,4.1221,4.186,4.2092,4.2092,4.2092,4.2092,4.2092,4.2092,4.2133,4.2133,4.2133,4.2729,4.318,4.2392,4.3339,4.432,4.3506,4.4555,4.5733,4.5697,4.6337,4.6892,4.6892,4.5791,4.4852,4.4852,4.4852,4.4852,4.4852,4.4852,0.0,4.4852,4.4852,4.482,4.482,4.4787,4.4787,4.4787,4.4787,4.4496,4.3783,4.3751,4.3073,4.1621,4.2238,4.227,4.1525,4.0826,4.0104,3.9391,0.0,0.0,0.0,0.0,0.0,0.0,0.0,0.0,0.0,0.0,0.0,0.0,0.0,0.0,0.0,0.0,0.0,0.0,0.0,0.0,0.0,0.0,3.0514,3.0079,3.0763,3.1513,3.2044,3.3329,3.4359,3.4914,3.571,3.6836,3.8283,3.8589,3.9479,4.1442,4.1541,4.1976,4.2905,4.3282,4.3542,4.3712,4.3891,4.4065,4.4237,4.4065,4.3979,4.3979,4.3979,4.3979,4.3979,4.3979,4.3979,4.3979,4.3979,4.3979,4.3863,4.2673,4.2208,4.2179,4.1918,4.1831,4.186,4.2034,4.2092,4.2092,4.2092,4.2092,4.2092,4.2092,4.2514,4.2981,4.2981,4.3545,4.4128,4.3927,4.4586,4.5184,4.4358,4.5405,4.6407,4.5841,4.6337,4.6892,4.6892,4.6568,4.6309,4.6309,4.6309,4.6309,4.6309,4.6309,0.0,4.6309,4.5856,4.5532,4.5532,4.5079,4.4787,4.4787,4.4787,4.469,4.4496,4.4496,4.4074,4.3138,4.3299,4.2784,4.1525,4.1851,4.1624,0.0,0.0,0.0,0.0,0.0,0.0,0.0,0.0,0.0,0.0,0.0,0.0,0.0,0.0,0.0,0.0,0.0,0.0,0.0,0.0,0.0,0.0,3.1468,3.1806,3.2188,3.2474,3.2843,3.342,3.51,3.6484,3.7053,3.7988,3.904,4.0142,4.0469,4.1277,4.2776,4.2905,4.3224,4.3979,4.424,4.4487,4.4703,4.4836,4.4982,4.5113,4.4982,4.4851,4.4792,4.4792,4.4792,4.4792,4.4792,4.4792,4.4792,4.4792,4.4792,4.4705,0.0,0.0,0.0,0.0,4.2905,4.2905,4.2905,4.2905,4.296,4.3307,4.3431,4.3514,4.3894,4.4309,4.4677,4.4677,4.5264,4.5801,4.5457,4.6216,4.6875,4.6066,4.6875,4.7661,4.7165,4.7223,4.7346,4.7346,4.7087,0.0,4.6892,4.7151,4.7346,4.7346,4.7605,4.767,4.741,4.6989,4.6601,4.6277,4.5888,4.5662,4.5662,4.5662,0.0,0.0,0.0,4.4885,4.4204,4.4172,0.0,0.0,0.0,4.2875,4.241,4.2176,0.0,0.0,3.9589,3.9283,0.0,0.0,0.0,0.0,0.0,0.0,0.0,0.0,0.0,0.0,0.0,0.0,0.0,0.0,0.0,0.0,3.2524,3.3382,3.4598,3.4548,3.4509,3.4933,3.6972,3.8609,3.9219,4.0526,4.1599,4.2266,4.2789,4.3441,4.4109,0.0,0.0,0.0,0.0,4.5215,4.5464,4.5976,4.6269,4.6314,4.6269,4.6135,4.5985,4.594,4.594,4.5985,4.594,4.594,4.5985,4.5985,4.5985,4.5869,4.4647,4.408,4.4022,4.4022,4.4022,4.4065,4.4151,0.0,0.0,4.512,4.5368,4.5451,4.6352,4.6669,4.6748,4.6748,4.73,4.7789,4.706,4.7933,4.8816,4.8089,4.8455,4.8994,4.8994,4.8544,4.8123,4.8123,4.7572,4.7119,4.7119,4.754,4.7896,4.7896,4.8382,4.8609,4.8091,4.8026,4.7799,4.7184,0.0,0.0,4.7022,4.7022,4.6698,4.5986,4.5856,4.5532,4.4949,4.482,4.4787,4.4787,4.4188,4.3849,4.3849,4.3336,4.3095,4.3099,4.1841,4.0904,0.0,0.0,0.0,0.0,0.0,0.0,0.0,0.0,0.0,0.0,0.0,0.0,0.0,0.0,0.0,3.3541,3.4084,3.4899,3.6225,3.7676,3.8491,3.806,3.9491,4.0758,4.1423,4.2183,4.2905,4.3573,4.3747,4.4153,4.5011,4.504,4.5274,4.5756,4.6123,4.6315,4.6359,4.6477,4.658,4.6756,4.658,0.0,4.6476,4.6225,4.6269,4.6476,4.6225,4.6269,4.6447,4.6447,4.6447,4.6388,4.542,4.4718,4.4237,4.4237,4.4366,4.4621,4.4941,4.4689,4.4464,4.587,4.587,4.5451,4.6352,4.7029,0.0,4.7599,4.8158,4.8744,4.8597,4.878,4.8957,4.8816,4.8889,4.8994,4.8994,4.8897,4.8835,4.8835,4.8706,4.8609,4.8609,4.7767,4.7087,4.7087,4.7216,4.7475,4.7961,4.8026,4.8155,4.8576,4.8609,4.8382,4.7831,4.7799,4.7475,4.673,4.6115,4.5759,4.5597,4.5079,4.4787,4.4787,4.4655,4.4688,4.482,4.4689,4.4788,4.5017,4.36,4.2859,0.0,0.0,0.0,0.0,0.0,0.0,0.0,0.0,0.0,0.0,0.0,3.1502,0.0,0.0,3.371,3.4733,3.5775,3.6989,3.8501,3.9804,4.0322,3.9571,4.1015,4.2179,4.2498,4.3137,4.3747,4.4385,4.4443,4.4836,4.5698,4.5727,4.5947,4.6403,4.6535,4.6653,4.6756,4.6756,4.68,4.6931,4.68,4.6712,4.6609,4.6447,4.6447,4.6609,4.6447,4.6491,4.6609,4.6609,4.6609,4.655,4.6226,4.5858,4.5433,4.5433,4.5433,4.5563,4.6316,4.6274,4.619,4.7907,4.8136,4.7858,4.8755,4.9247,4.9475,4.9475,4.9769,5.0098,5.0098,5.0098,5.0098,5.0098,5.0098,5.0098,5.0098,4.9807,4.9548,4.9548,4.922,4.8994,4.8994,4.8414,4.7961,4.7961,4.7961,4.7961,4.8026,4.8026,4.7993,4.7961,4.8285,4.8382,4.8026,4.8026,4.7864,4.7475,4.6763,4.6342,4.6342,4.6018,4.5824,4.5824,4.5957,4.6057,4.6157,4.6323,4.6487,4.665,4.5992,4.5135,0.0,0.0,0.0,0.0,0.0,0.0,0.0,0.0,3.2151,3.2335,3.2639,3.2858,3.2895,3.4024,3.5201,3.6018,3.7537,3.9211,4.0809,4.1499,4.1645,4.1006,4.2202,4.3164,4.3425,4.3992,4.4545,4.5112,4.5215,4.558,4.6329,4.6358,4.6447,4.6624,4.6712,4.68,4.6931,4.6975,4.6975,4.6975,4.7094,4.7095,4.6919,4.6993,4.6993,4.6919,4.6771,4.6741,4.6741,4.6741,4.6741,4.6756,4.6887,4.6887,4.6741,4.6668,4.6668,4.6784,4.7746,4.7969,4.8221,5.0048,5.0429,5.0345,5.1242,5.1387,5.1275,5.1237,5.1199,5.1199,5.1199,5.1199,5.1199,5.1199,5.1199,5.1199,5.1199,5.0714,5.0325,5.0325,4.9839,4.9451,4.9451,4.9285,4.9155,4.8994,4.8994,4.8832,4.8479,4.8285,4.8026,4.7572,4.7929,4.8155,4.8026,4.7864,4.7799,4.7799,4.7216,4.6892,4.6892,4.6927,4.6961,4.6961,4.7132,4.7301,4.7302,4.7571,4.7704,4.7737,4.7935,4.7046,2.7683,2.8347,2.9081,2.9715,3.0624,3.1227,0.0,0.0,3.2133,3.2205,3.244,3.3004,3.4126,3.5325,3.6574,3.7952,3.9486,4.1042,4.2592,4.3153,4.362,4.4053,4.3675,4.3796,4.4937,4.5257,4.558,4.6004,4.6285,4.6565,4.6844,4.6844,4.6844,4.6887,4.7106,4.7106,4.6931,4.7149,4.7266,4.7266,4.7864,4.8133,4.8089,4.8477,4.8447,4.8103,4.7461,4.7222,4.7222,4.7222,4.7222,4.7222,4.7266,4.7266,4.7179,4.6931,4.7508,4.8407,4.8872,4.9157,4.9527,5.1135,5.1065,5.0506,5.128,5.1462,5.1424,5.1275,5.1199,5.1199,5.1199,5.1199,5.1199,5.1199,5.1199,5.1199,5.1199,5.1135,5.107,5.107,5.1005,5.094,5.094,5.0422,4.9775,4.9091,4.8994,4.9224,4.9807,4.9321,4.9127,4.9677,4.9256,4.8673,4.8058,4.741,4.7022,4.7022,4.6959,4.6892,4.6892,4.7064,4.7167,4.7167,4.7369,4.7537,4.7638,4.7671,4.777,4.7968,4.8001,4.7869,2.9277,2.9813,3.0402,0.0,3.164,3.247,3.2254,3.2731,3.3235,3.3106,3.3437,3.3862,3.4128,3.5913,3.7621,0.0,4.022,4.1913,4.3567,4.3731,4.4169,4.5416,4.5171,4.4974,4.5069,4.5713,4.6197,4.6195,4.6447,4.6668,4.6887,4.6931,4.6975,4.7106,4.7625,4.7834,4.7716,4.8193,4.8446,4.8446,4.876,4.8865,4.8865,4.9044,4.906,4.888,4.8566,4.8237,4.7878,4.7878,4.7638,4.7352,4.7849,4.8061,4.8061,4.7904,4.8115,4.8543,4.9837,5.0267,5.0429,5.1692,5.1725,5.1252,5.1577,5.1536,5.1312,5.1237,5.1199,5.1199,5.1199,5.1199,5.1199,5.1199,5.1199,5.1199,5.1199,5.1199,5.1199,5.1199,5.1199,5.1199,5.1199,5.094,5.0617,5.0325,4.9548,4.9091,4.9451,4.9188,4.9252,5.0034,4.9451,4.9062,4.9224,4.8188,4.754,4.754,4.7255,4.7064,4.7064,4.7267,4.7369,4.7369,4.7537,4.7638,4.7704,4.7803,4.7935,4.8001,4.8001,4.8233,3.0752,3.1164,0.0,3.1523,3.2429,3.3275,3.3152,3.3633,3.403,3.3888,3.4289,3.4699,3.4654,3.6779,3.8671,3.9365,4.1097,4.2913,4.4374,4.4489,4.4929,4.6314,4.639,4.6089,4.5434,4.6226,4.6668,4.6403,4.6624,4.6844,4.7019,4.7197,4.7374,4.7578,4.8207,4.8566,4.8566,4.909,4.9299,4.9299,4.9464,4.9523,4.9523,4.9523,4.9523,4.9523,4.9389,4.903,4.8566,4.8566,4.8323,4.7981,4.86,4.8893,4.8953,4.9197,4.9197,4.9206,5.0615,5.114,5.1294,5.2125,5.2194,5.1977,5.1904,5.1647,5.1355,5.1312,5.1237,5.1199,5.1199,5.1199,5.1199,5.1199,5.1199,5.1199,5.1199,5.1199,5.1199,5.1199,5.1199,5.1199,5.1199,5.1199,5.1199,5.1199,5.0293,4.9613,4.9613,4.9451,4.9451,4.9775,4.9321,4.9188,4.9775,4.8904,4.8356,4.8356,4.7849,4.7562,4.7562,4.7568,4.7571,4.7571,4.7737,4.777,4.777,4.7935,4.81,4.8299,4.8299,4.8696,3.1733,3.2032,3.2354,3.2354,3.2835,3.3193,3.274,3.3383,3.4117,3.4252,3.464,3.5236,3.6392,3.8271,3.9831,4.0463,4.2594,4.4485,4.5185,4.5843,4.6373,4.6812,4.7076,4.7062,0.0,4.6975,4.7179,4.6931,4.7135,4.7266,4.7309,4.7908,4.8267,4.8267,4.894,4.9269,4.9269,4.9299,4.9299,4.9329,4.9912,5.0166,5.0166,5.0166,5.0166,5.0136,4.9523,4.9299,4.9269,4.9269,4.9337,4.9443,4.9443,4.9595,4.9844,5.0723,5.1027,5.1027,5.1065,5.1655,5.2338,5.2373,5.2373,5.2338,5.2122,5.1941,5.1758,5.1536,5.135,5.1199,5.1199,5.1199,5.1199,5.1199,5.1199,5.1199,5.1199,5.1199,5.1199,5.1199,5.1199,5.1199,5.1199,5.1199,5.1199,5.1199,5.1135,5.1102,5.1102,5.0519,4.9807,4.9091,4.8994,4.8994,4.9026,4.9177,4.9251,4.9251,4.8775,4.8453,4.8453,4.7966,4.7704,4.7704,4.7902,4.8001,4.8001,4.8001,4.8365,4.9094,4.9094,4.9458,3.2267,3.2789,3.3219,3.3219,3.3636,3.3986,3.382,3.4059,3.437,3.4641,3.5227,3.5851,3.6361,3.8553,4.0308,4.0305,4.2457,4.4393,4.5214,4.5747,4.639,4.7089,4.7266,0.0,0.0,0.0,0.0,4.6931,4.7567,4.7967,4.7967,4.8566,4.897,4.897,4.9553,4.9912,4.9912,5.0331,5.0571,5.0571,5.078,5.0853,5.0853,5.0853,5.0853,5.0823,5.0661,5.0331,4.9958,5.0575,5.0302,4.9601,5.0808,5.103,5.08,5.1619,5.1944,5.1944,5.1944,5.2125,5.2409,5.2409,5.2302,5.2158,5.1977,5.1758,5.1573,5.135,5.1275,5.1199,5.1199,5.1199,5.1199,5.1199,5.1199,5.1199,5.1199,5.1199,5.1199,5.1199,5.1199,5.1199,5.1199,5.1199,5.1199,5.1199,5.1199,5.1199,5.1199,5.0973,5.0714,5.0487,5.0111,4.9928,4.9928,4.9648,4.9529,4.9529,4.944,4.9413,4.9413,4.9387,4.9357,4.9357,4.9425,4.9458,4.9458,4.9458,4.9591,4.9856,4.9856,5.022,3.2868,3.343,3.3875,3.3875,3.4136,3.4397,3.4314,3.4538,3.4809,3.5141,3.5843,3.6504,3.6813,3.8922,4.0532,4.0361,4.2631,4.4661,4.5244,4.5955,4.6701,4.7249,4.7309,4.7309,0.0,0.0,0.0,4.742,4.7939,4.8386,4.8626,4.9254,4.9613,4.9613,5.0242,5.0554,5.0554,5.0973,5.1229,5.1229,5.1229,5.1229,5.1229,5.1229,5.1229,5.1229,5.1229,5.099,5.0617,5.1558,5.1456,5.0829,5.2076,5.2297,5.1978,5.226,5.2409,5.2409,5.2409,5.2409,5.2409,5.2409,5.2302,5.2158,5.205,5.1831,5.1573,5.1462,5.128,5.1199,5.1199,5.1199,5.1199,5.1199,5.1199,5.1199,5.1199,5.1199,5.1199,5.1199,5.1199,5.1199,5.1199,5.1199,5.1199,5.1199,5.1275,5.1312,5.1312,5.1312,5.135,5.1424,5.1112,5.0928,5.0928,5.0648,5.0492,5.0492,5.0439,5.0411,5.0411,5.0284,5.022,5.022,5.022,5.022,5.022,5.022,5.0353,5.0585,5.0585,5.0982,3.3613,3.4005,3.4397,3.4397,3.4397,3.4356,3.4199,3.4767,3.5426,3.5781,3.6486,3.7194,0.0,0.0,4.0603,4.0603,4.3232,4.5304,4.5304,4.6441,4.7309,0.0,0.0,0.0,0.0,0.0,0.0,4.8386,0.0,4.8656,4.9329,4.9942,5.0255,5.0255,5.09,5.1229,5.1229,5.1229,5.1229,5.1229,5.1229,5.1229,5.1229,5.1229,5.1229,5.1229,5.1229,5.1229,5.1276,5.2245,5.2748,5.2912,5.3182,5.3319,5.3334,5.2638,5.2409,5.2409,5.2409,5.2409,5.2409,5.2409,5.2409,5.2409,5.2373,5.2122,5.1831,5.1794,5.1536,5.1205,5.1199,5.1199,5.1199,5.1199,5.1199,5.1199,5.1199,5.1199,5.1199,5.1199,5.1205,5.1242,5.1242,5.1242,5.1242,5.1237,5.1387,5.1536,5.1499,5.1499,5.1573,5.1794,5.1831,5.1831,5.1831,5.1977,5.2119,5.2119,5.164,5.1382,5.1382,5.0684,5.032,5.032,5.032,5.032,5.032,5.032,5.0684,5.1382,5.1382,5.1746,3.4084,3.4293,3.4397,3.4397,3.4397,3.4502,3.4888,3.5139,3.5574,3.6478,3.6862,3.7194,0.0,0.0,0.0,4.0603,4.3232,0.0,4.5304,4.6441,0.0,4.7309,0.0,4.7489,4.7997,4.8177,0.0,0.0,4.9687,4.9777,4.9972,5.0554,5.0913,5.0913,5.1139,5.1229,5.1229,5.1229,5.1229,5.1229,5.1229,5.1229,5.1229,5.1229,5.1229,5.1229,5.1229,5.1229,5.1339,5.2962,5.3353,5.2996,5.3844,5.3878,5.3334,5.2638,5.2409,5.2409,5.2409,5.2409,5.2409,5.2409,5.2409,5.2373,5.2194,5.2086,5.1941,5.1647,5.1499,5.1387,5.1237,5.1199,5.1199,5.1199,5.1199,5.1199,5.1199,5.1199,5.1199,5.1199,5.1508,5.1802,5.1802,5.2131,5.2128,5.1317,5.1725,5.1944,5.1536,5.1647,5.1758,5.1794,5.1941,5.2013,5.2013,5.2194,5.2302,5.2302,5.2208,5.2144,5.2144,5.191,5.1843,5.1843,5.1843,5.1843,5.1843,5.1843,5.191,5.2144,5.2144,5.2243,3.4464,3.4705,3.4842,3.5077,3.4972,3.4946,3.5521,3.5652,3.5913,3.6802,3.722,0.0,3.7848,3.937,0.0,0.0,0.0,0.0,4.5304,4.6441,4.7309,0.0,4.7549,0.0,4.8237,4.8805,4.9434,0.0,5.0196,5.0315,5.0614,5.102,5.1229,5.1229,5.1229,5.1229,5.1229,5.1229,5.1229,5.1229,5.1229,5.1229,5.1229,5.1229,5.1229,5.1229,5.1229,5.1433,5.1911,5.3371,5.401,5.399,5.4361,5.4262,5.3765,5.2771,5.2409,5.2409,5.2409,5.2409,5.2409,5.2409,5.2409,5.2373,5.2266,5.2158,5.2013,5.1721,5.1573,5.1462,5.1275,5.1199,5.1199,5.1199,5.1199,5.1199,5.1199,5.1199,5.1242,5.154,5.1987,5.2416,5.2559,5.2592,5.2416,5.1951,5.231,5.2449,5.1831,5.1868,5.1977,5.205,5.2158,5.223,5.223,5.2338,5.2409,5.2409,5.2409,5.2409,5.2409,5.2409,5.2409,5.2409,5.2409,5.2409,5.2409,5.2409,5.2409,5.2409,5.2409,5.2539,3.4719,3.5072,3.5374,3.5887,3.5704,3.5521,3.5992,3.6175,3.6384,3.7011,0.0,3.79,3.79,3.9282,4.0475,4.0603,0.0,4.515,4.5304,4.6441,4.7309,4.7309,4.7878,4.8327,4.8416,4.9523,5.0226,5.0315,5.0315,5.0584,5.1199,5.1229,5.1229,5.1229,5.1229,5.1229,5.1229,5.1229,5.1229,5.1229,5.1229,5.1229,5.1229,5.1229,5.1229,5.1229,5.1229,5.1727,5.2695,5.3589,5.4527,5.5264,5.4716,5.449,5.4361,5.2904,5.2409,5.2409,5.2409,5.2409,5.2409,5.2409,5.2409,5.2409,5.2409,5.2266,5.2083,5.1868,5.1647,5.1462,5.1275,5.1199,5.1237,5.128,5.1317,5.1317,5.1392,5.1429,5.1545,5.2131,5.2592,5.3009,5.3348,5.2975,5.2732,5.2941,5.318,5.3111,5.2447,5.2338,5.2302,5.2373,5.2409,5.2409,5.2409,5.2409,5.2409,5.2409,5.2409,5.2409,5.2409,5.2409,5.2409,5.2409,5.2409,5.2409,5.2409,5.2409,5.2409,5.2409,5.2409,5.2705,3.4676,3.4917,3.5029,3.5374,3.5704,3.5992,3.6096,3.6488,0.0,0.0,3.7821,3.79,3.79,3.8729,3.9694,4.0475,4.2567,4.4418,4.5191,4.6441,4.7309,0.0,4.7878,4.8506,4.909,4.9793,0.0,0.0,5.105,5.1109,5.1199,5.1229,5.1229,5.1229,5.1229,5.1229,5.1229,5.1229,5.1229,5.1229,5.1229,5.1229,5.1229,5.1229,5.1229,5.1229,5.1229,0.0,5.2695,5.3589,5.4527,5.5264,5.4716,5.449,5.4361,5.2904,5.2409,5.2409,5.2409,5.2409,5.2409,5.2409,5.2409,5.2409,5.2409,5.2266,5.2083,5.1868,5.1647,5.1462,5.1275,5.1199,5.1317,5.1765,5.1842,5.1987,5.2416,5.2522,5.2697,5.3281,5.3483,5.365,5.3909,5.4299,5.433,5.3712,5.4166,5.4391,5.3845,5.3416,5.2973,5.2445,5.2409,5.2409,5.2409,5.2409,5.2409,5.2409,5.2409,5.2409,5.2409,5.2409,5.2409,5.2409,5.2409,5.2409,5.2409,5.2409,5.2409,5.2409,5.2409,5.2475,3.4758,3.4871,3.4976,3.6011,3.596,3.5926,3.6657,0.0,0.0,0.0,3.7808,3.7762,3.7854,3.853,0.0,4.0432,4.2439,4.4248,4.515,4.6441,0.0,4.7309,4.8177,4.897,0.0,5.0152,5.0823,5.1199,5.1229,5.1229,5.1229,5.1229,5.1229,5.1229,5.1229,5.1229,5.1229,5.1229,5.1229,5.1229,5.1229,5.1229,5.1229,5.1229,5.1229,5.1229,5.1727,5.2471,5.3415,5.4317,5.4964,5.5372,5.4736,5.4295,5.3798,5.2771,5.2409,5.2409,5.2409,5.2409,5.2409,5.2409,5.2409,5.2409,5.2409,5.2338,5.2194,5.1904,5.1721,5.1647,5.1619,5.1619,5.1765,5.2274,5.2416,5.2487,5.2732,5.3043,5.3349,5.3651,5.4078,5.446,5.4769,5.4892,5.4861,5.4668,5.4948,5.4826,5.3845,5.3845,5.3682,5.2973,5.2589,5.2409,5.2409,5.2409,5.2409,5.2409,5.2409,5.2409,5.2409,5.2409,5.2409,5.2409,5.2409,5.2409,5.2409,5.2409,5.2409,5.2409,5.2409,5.2572,3.4654,3.4736,3.4912,3.6345,3.6186,3.5897,3.6979,3.6948,0.0,0.0,3.7551,3.7505,3.7762,0.0,3.897,0.0,4.2181,4.3949,4.487,4.6314,4.7309,0.0,4.8476,0.0,4.9299,5.0451,0.0,5.1229,5.1229,5.1229,5.1229,5.1229,5.1229,5.1229,5.1229,5.1229,5.1229,5.1229,5.1229,5.1229,5.1229,5.1229,5.1229,5.1229,5.1293,5.1526,5.229,5.324,5.4317,5.5026,5.5404,5.5516,5.4787,5.4063,5.3334,5.2638,5.2409,5.2409,5.2409,5.2409,5.2409,5.2409,5.2409,5.2409,5.2409,5.248,5.2483,5.2161,5.2125,5.2164,5.2274,5.2238,5.231,5.2871,5.3077,5.3145,5.3145,5.355,5.3882,5.3882,5.446,5.5113,5.5443,5.5289,5.5224,5.5549,5.5607,5.5219,5.4168,5.4391,5.4422,5.3878,5.2973,5.2409,5.2409,5.2409,5.2409,5.2409,5.2409,5.2409,5.2409,5.2409,5.2409,5.2409,5.2409,5.2409,5.2409,5.2409,5.2409,5.2409,5.2409,5.2672,3.4128,3.4343,3.4514,3.5328,3.5904,3.6257,3.6359,0.0,3.7103,3.7155,3.7155,3.7201,3.7505,3.7598,0.0,0.0,0.0,4.3035,4.3877,4.5941,4.7309,4.7309,0.0,0.0,4.9299,5.0451,5.1229,5.1229,5.1229,5.1229,5.1229,5.1229,5.1229,5.1229,5.1229,5.1229,5.1229,5.1229,5.1229,5.1229,5.1229,5.1229,5.1229,5.1229,5.1665,5.2471,5.2561,5.3558,0.0,5.5271,5.5404,5.5516,5.4787,5.4063,5.3334,5.2638,5.2409,5.2409,5.2409,5.2409,5.2409,5.2409,5.2409,5.2409,5.2409,5.2694,5.3009,5.2974,5.3078,5.3146,5.318,5.2975,5.2871,5.3483,5.4013,5.4335,5.4335,5.4367,5.4431,5.4431,5.4745,5.5113,5.5443,5.5642,5.5901,5.6273,5.63,5.6273,5.6126,5.5636,5.5278,5.5219,5.3516,5.2409,5.2409,5.2409,5.2409,5.2409,5.2409,5.2409,5.2409,5.2409,5.2409,5.2409,5.2409,5.2409,5.2409,5.2409,5.2409,5.2409,5.2409,5.2442,3.3878,3.4029,3.43,3.5229,3.5654,3.5953,3.6421,0.0,3.6922,3.7062,3.6968,3.7015,3.7413,3.7366,3.771,0.0,0.0,0.0,4.3704,4.5318,4.6638,4.7222,4.8476,0.0,0.0,0.0,5.1229,5.1229,5.1229,5.1229,5.1229,5.1229,5.1229,5.1229,5.1229,5.1229,5.1229,5.1229,5.1229,5.1229,5.1229,5.1229,5.1229,5.1229,5.1681,5.2651,5.3196,5.4147,0.0,5.545,5.5282,5.4854,5.4162,5.34,5.2771,5.2473,5.2409,5.2409,5.2409,5.2409,5.2409,5.2409,5.2659,5.3008,5.3008,5.3145,5.3315,5.3382,5.3415,5.3482,5.355,5.3683,5.3881,5.4143,5.4335,5.4494,5.4494,5.4494,5.4557,5.4745,5.5083,5.5413,5.5706,5.6021,5.6245,5.6355,5.6383,5.6245,5.5872,5.5578,5.5069,5.4296,5.3813,5.3449,5.3042,5.3008,5.2834,5.2409,5.2409,5.2409,5.2409,5.2409,5.2409,5.2409,5.2409,5.2409,5.2409,5.2409,5.2409,5.2409,5.2834,5.3042,3.3458,3.3771,3.4123,3.5031,3.5382,3.568,0.0,0.0,3.6687,3.6828,3.6734,3.6734,3.7155,3.7108,3.7413,0.0,0.0,4.1654,4.3499,4.4949,4.6166,0.0,0.0,4.9299,0.0,5.0451,5.1229,5.1229,5.1229,5.1229,5.1229,5.1229,5.1229,5.1229,5.1229,5.1229,5.1229,5.1229,5.1229,5.1229,5.1229,5.1229,5.1229,5.1229,5.1865,5.302,5.3719,5.4525,0.0,5.5551,5.5019,5.4092,5.3632,5.3003,5.2409,5.2409,5.2409,5.2409,5.2409,5.2409,5.2445,5.2624,5.3008,5.3483,5.3845,5.3975,5.3975,5.4008,5.4008,5.3975,5.3946,5.4207,5.4494,5.4494,5.4494,5.4494,5.4494,5.4557,5.4714,5.4961,5.5354,5.5677,5.5844,5.6189,5.6383,5.6383,5.6383,5.6245,5.5751,5.5694,5.5343,5.4391,5.4548,5.4264,5.3213,5.3111,5.2904,5.2445,5.2409,5.2473,5.2672,5.2705,5.2804,5.3003,5.3003,5.3003,5.3003,5.3221,5.3363,5.3363,5.3856,5.4179,3.2853,3.3495,3.4022,3.46,3.5107,3.5633,0.0,0.0,3.6405,3.6405,3.6405,3.6452,3.6662,3.6709,3.71,3.823,0.0,0.0,4.3153,4.4805,4.6166,0.0,0.0,4.9299,4.9299,5.0451,5.1229,5.1229,5.1229,0.0,5.1229,5.1229,5.1229,5.1229,5.1229,5.1229,5.1229,5.1229,5.1229,5.1229,5.1229,5.1229,5.1229,5.1229,5.22,5.3976,5.3976,5.4598,0.0,5.5582,5.4721,5.3434,5.34,5.3003,5.2409,5.2409,5.2409,5.2409,5.2409,5.2409,5.2516,5.3179,5.3382,5.3649,5.4978,5.5402,5.5313,5.4983,5.4957,5.49,5.4557,5.4529,5.4494,5.4494,5.4494,5.4494,5.4494,5.4745,5.4992,5.4992,5.5467,5.5872,5.5901,5.6189,5.6383,5.6383,5.6383,5.6383,5.6383,5.6383,5.6383,5.6355,5.5786,5.4579,5.2587,5.2409,5.2409,5.2409,5.2409,5.2705,5.3367,5.34,5.3732,5.4456,5.4456,5.4456,5.4494,5.5228,5.5582,5.5583,5.5708,5.5854,3.2459,3.3509,3.46,3.5107,3.5705,3.6157,3.638,3.6405,3.6405,3.6405,3.6405,3.6452,3.6662,3.6875,3.7288,3.8256,3.9275,0.0,0.0,0.0,0.0,4.7106,4.8476,4.9613,0.0,0.0,5.1229,5.1229,5.1229,5.1229,5.1229,5.1229,5.1229,5.1229,5.1229,5.1229,5.1229,5.1229,5.1229,5.1229,5.1229,5.1229,5.1229,5.1229,5.22,5.3976,5.3976,5.4598,5.5549,5.5052,5.4258,5.3367,5.2904,5.2572,5.2409,5.2409,5.2409,5.2409,5.2409,5.2694,5.3111,5.3315,5.4008,5.4857,5.5249,5.5402,5.5402,5.5319,5.5022,5.462,5.4526,5.4494,5.4494,5.4494,5.4494,5.4557,5.4776,5.493,5.5144,5.5525,5.5758,5.5957,5.6217,5.6328,5.6383,5.6383,5.6383,5.6383,5.6383,5.6383,5.6245,5.5786,5.5519,5.4948,5.3845,5.3349,5.3071,5.3072,5.3069,5.34,5.4092,5.4125,5.4519,5.5228,5.5263,5.5511,5.5996,5.6234,5.6665,5.7245,5.7459,5.7839,0.0,3.2962,3.428,3.4823,3.565,0.0,0.0,3.6405,3.6405,3.6405,3.6405,3.6452,3.6546,3.6734,3.7224,3.835,3.8955,4.0336,0.0,0.0,0.0,4.7747,0.0,0.0,0.0,5.1229,5.1229,5.1229,5.1229,5.1229,5.1229,5.1229,5.1229,5.1229,5.1229,5.1229,5.1229,5.1229,5.1229,5.1229,5.1229,5.1229,5.1229,5.1572,5.2561,5.4019,5.4359,5.4721,0.0,5.4688,5.393,5.297,5.2539,5.2409,5.2409,5.2409,5.2587,5.2799,5.2799,5.3247,5.3813,5.4072,5.4887,5.5751,5.5607,5.549,5.5467,5.5502,5.5022,5.4494,5.4494,5.4494,5.4526,5.4652,5.4683,5.4776,5.5113,5.5294,5.5437,5.5815,5.6021,5.6162,5.6355,5.6383,5.6383,5.6383,5.6383,5.6383,5.6383,5.6383,5.6352,5.6233,5.5971,5.5779,5.5661,5.4752,5.433,5.4628,5.4661,5.4998,5.5705,5.5772,5.6087,5.6849,5.6849,5.709,5.7528,5.7855,5.832,5.8979,5.9152,5.9318,0.0,3.1949,3.3425,3.3909,0.0,0.0,0.0,0.0,0.0,3.6405,3.6405,3.6405,3.6405,3.6455,3.6998,3.8546,3.8897,4.0254,0.0,4.4434,0.0,0.0,4.9853,0.0,5.1139,5.1229,5.1229,5.1229,5.1229,5.1229,5.1229,5.1229,5.1229,5.1229,5.1229,5.1229,5.1229,5.1229,5.1229,5.1229,5.1229,5.1229,5.1229,5.2154,5.3108,0.0,5.4879,5.4946,5.449,5.449,5.3699,5.2509,5.2506,5.2506,5.244,5.244,5.2832,5.3315,5.3382,5.3813,5.4516,5.5254,5.5901,5.6328,5.6021,5.5735,5.5502,5.5502,5.5022,5.4529,5.4526,5.4526,5.4589,5.493,5.5022,5.5144,5.5472,5.5735,5.5901,5.5929,5.6189,5.6383,5.6383,5.6383,5.6383,5.6383,5.6383,5.6418,5.649,5.649,5.6775,5.7596,5.7111,5.7037,5.7811,5.646,5.5906,5.6667,5.6769,5.708,5.7772,5.7873,5.8218,5.8943,5.9045,5.9079,5.9044,5.9969,6.0451,6.0702,6.0738,6.0422,2.8851,0.0,3.3522,3.4414,3.5521,3.6405,0.0,0.0,0.0,0.0,0.0,3.6405,3.6405,3.69,3.7645,3.8623,3.9983,4.1686,4.3966,0.0,0.0,4.9164,4.9853,5.0435,5.1139,5.1229,5.1229,5.1229,5.1229,5.1229,5.1229,5.1229,5.1229,5.1229,5.1229,5.1229,5.1229,5.1229,5.1229,5.1229,5.1229,5.1229,5.1229,5.2154,5.3108,5.403,5.4396,5.4522,5.449,5.449,5.3997,5.3235,5.3798,5.3665,5.3169,5.3169,5.2945,5.2694,5.3247,5.3813,5.461,5.5786,5.6273,5.6328,5.6021,5.5735,5.5502,5.5502,5.5022,5.4557,5.4807,5.4869,5.49,5.4992,5.5204,5.5472,5.5729,5.5844,5.5993,5.6245,5.6328,5.6383,5.6383,5.6383,5.6383,5.6383,5.6383,5.6597,5.7239,5.7338,5.7596,5.8381,5.831,5.8508,5.929,5.7545,5.6503,5.6676,5.7226,5.7637,5.7797,5.8359,5.8972,5.9744,6.0321,6.063,6.0752,6.1652,6.1904,6.1532,6.2221,6.2159,2.8421,3.0193,3.2083,3.3073,3.4532,3.5667,3.5667,0.0,0.0,0.0,0.0,3.6405,3.6405,3.7381,3.8299,3.8746,4.0617,0.0,0.0,0.0,4.891,4.9269,5.0092,5.0794,0.0,5.1229,5.1229,5.1229,5.1229,5.1229,5.1229,5.1229,5.1229,5.1229,5.1229,5.1229,5.1229,5.1229,5.1229,5.1229,5.1229,5.1229,5.1276,5.2606,5.3502,5.403,5.4964,5.5232,5.4986,5.4986,5.4593,5.3927,5.4324,5.4262,5.3967,5.4264,5.4352,5.4364,5.4756,5.5077,5.5432,5.6154,5.63,5.6134,5.5822,5.5619,5.5472,5.5324,5.49,5.4526,5.4714,5.4869,5.5053,5.5204,5.5472,5.5793,5.6077,5.6134,5.6189,5.6355,5.6383,5.6383,5.6383,5.6704,5.6954,5.6954,5.7239,5.7632,5.806,5.8096,5.8417,5.9173,5.9244,5.9565,6.038,5.939,5.8724,5.872,5.908,5.9321,5.9279,5.9676,6.0097,6.0477,6.0938,6.1449,6.1946,6.2522,6.273,6.2438,6.2955,6.2766,2.8483,2.9423,3.0548,3.1598,3.3327,3.4824,3.5017,0.0,0.0,0.0,0.0,0.0,3.6505,3.7719,0.0,3.8923,0.0,0.0,4.5766,4.7896,4.9299,4.9299,5.0421,0.0,5.1229,5.1229,5.1229,5.1229,5.1229,5.1229,5.1229,5.1229,5.1229,5.1229,5.1229,5.1229,5.1229,5.1229,5.1229,5.1229,5.1229,5.1276,5.1479,5.3196,5.4062,5.4274,5.585,0.0,5.5582,5.5582,5.5218,5.4655,5.4792,5.4792,5.4767,5.5503,5.6065,5.6462,5.6563,5.658,5.6561,5.6454,5.6217,5.5936,5.5731,5.5707,5.5683,5.5366,5.4918,5.4557,5.4557,5.4838,5.5144,5.5443,5.5835,5.6255,5.6506,5.6668,5.674,5.674,5.674,5.674,5.674,5.7311,5.7774,5.7774,5.831,5.8745,5.8852,5.8888,5.9173,6.0023,6.0094,6.038,6.1058,6.1093,6.1093,6.1093,6.1093,6.1093,6.1093,6.1093,6.1165,6.1272,6.142,6.1953,6.2889,6.307,6.3205,6.32,6.32,6.2766,2.8483,2.9657,3.1114,3.2592,3.3895,3.5017,3.5953,0.0,0.0,0.0,0.0,0.0,0.0,3.7659,3.8459,0.0,0.0,4.4755,0.0,0.0,4.9299,4.9299,0.0,5.1229,5.1229,5.1229,5.1229,5.1229,5.1229,5.1229,5.1229,5.1229,5.1229,5.1229,5.1229,5.1229,5.1229,5.1229,5.1229,5.1229,5.1229,5.1618,5.2426,5.3502,5.4401,5.5158,0.0,5.5681,5.5582,5.5582,5.5516,5.5483,5.6117,5.5984,5.553,5.6241,5.6194,5.586,5.6373,5.6969,5.7275,5.6597,5.6355,5.636,5.6423,5.6629,5.6799,5.6608,5.575,5.493,5.493,5.5174,5.5443,5.5502,5.6432,5.7326,5.7382,5.7917,5.8353,5.8353,5.8353,5.8353,5.8353,5.8424,5.8531,5.8531,5.8638,5.8923,5.9601,5.9737,6.0023,6.0843,6.0915,6.095,6.1093,6.1093,6.1093,6.1093,6.1093,6.1093,6.1093,6.1093,6.1414,6.2092,6.2236,6.2778,6.3716,6.3899,6.3747,6.32,6.32,6.2766,2.8856,3.0104,3.1605,3.2883,3.3993,3.4921,3.5427,0.0,0.0,0.0,0.0,0.0,0.0,0.0,3.9904,4.2385,0.0,4.5598,4.7062,4.8446,4.9299,0.0,0.0,5.1229,5.1229,5.1229,5.1229,5.1229,5.1229,5.1229,5.1229,5.1229,5.1229,5.1229,5.1229,5.1229,5.1229,5.1229,5.1229,5.1229,5.1229,5.1681,5.2651,5.3545,5.4485,5.532,0.0,5.6183,5.6183,5.6183,5.6183,5.6216,5.6547,5.6749,5.6939,5.805,5.8241,5.7996,5.8265,5.8294,5.8131,5.7774,5.7519,5.7419,5.7482,5.7618,5.7629,5.7216,5.6672,5.6241,5.6241,5.6488,5.6796,5.6976,5.7604,5.8203,5.8203,5.846,5.8709,5.8709,5.8709,5.8709,5.8709,5.9066,5.9351,5.9351,5.9737,6.013,6.0522,6.0558,6.0701,6.1058,6.1093,6.1093,6.1093,6.1093,6.1093,6.1093,6.1093,6.1272,6.1736,6.1736,6.2153,6.3035,6.3179,6.3507,6.405,6.4224,6.3941,6.32,6.32,6.2766,2.9187,3.0627,3.2196,3.3001,3.3993,3.4872,3.5114,0.0,0.0,0.0,0.0,0.0,0.0,3.8891,0.0,4.4486,4.5252,4.5927,4.7314,4.8536,4.9359,4.9464,5.0511,5.1229,5.1229,5.1229,5.1229,5.1229,5.1229,5.1229,5.1229,5.1229,5.1229,5.1229,5.1229,5.1229,5.1229,5.1229,5.1229,5.1229,5.1229,5.1819,5.2931,5.3675,5.4611,5.5676,5.6375,5.668,5.668,5.668,5.668,5.6719,5.6911,5.752,5.8459,5.958,6.0092,6.0165,5.9987,5.9523,5.8923,5.8745,5.8566,5.8397,5.8425,5.852,5.8556,5.7996,5.7971,5.7929,5.7422,5.7635,5.7973,5.8243,5.865,5.8959,5.8959,5.9137,5.9244,5.9244,5.9244,5.9244,5.9244,5.9773,6.0201,6.0201,6.0701,6.1093,6.1093,6.1093,6.1093,6.1093,6.1093,6.1093,6.1093,6.1093,6.1093,6.1093,6.1093,6.145,6.2271,6.2331,6.2856,6.3943,6.3974,6.4122,6.4455,6.4202,6.378,6.32,6.3019,6.2585,2.9187,3.1135,3.3101,3.3201,3.3993,0.0,3.6073,3.6358,0.0,3.6405,0.0,0.0,0.0,3.9321,4.1267,4.3646,4.4238,4.5298,4.7896,0.0,4.9494,5.0046,5.0734,5.1229,5.1229,5.1229,5.1229,5.1229,5.1229,5.1229,5.1229,5.1229,5.1229,5.1229,5.1229,5.1229,5.1229,5.1229,5.1229,5.1229,5.1229,5.2185,5.3891,5.3976,5.4943,5.6603,5.668,5.668,5.668,5.668,5.668,5.6757,5.7446,5.8599,5.9841,5.9937,6.041,6.0915,6.0165,5.988,5.9701,5.8923,5.8709,5.8672,5.8818,5.9274,5.9752,5.9496,5.9899,5.9898,5.7828,5.7785,5.8273,5.8302,5.9106,5.9809,5.9809,6.0415,6.0915,6.0915,6.0915,6.0915,6.0915,6.0986,6.1022,6.1022,6.1058,6.1093,6.1093,6.1093,6.1093,6.1093,6.1093,6.1093,6.1093,6.1093,6.1093,6.1093,6.1093,6.145,6.2271,6.2451,6.3227,6.4767,6.4387,6.4498,6.5219,6.3912,6.3237,6.3164,6.244,6.205,2.9601,3.1404,3.3201,3.3201,3.4532,0.0,0.0,3.6405,3.6505,3.6857,3.7036,0.0,0.0,0.0,4.2716,4.374,4.5161,4.6697,4.8089,4.891,4.9494,5.0106,5.0764,5.1229,5.1229,5.1229,5.1229,5.1229,5.1229,5.1229,5.1229,5.1229,5.1229,5.1229,5.1229,5.1229,5.1229,5.1229,5.1229,5.1229,5.1229,5.2154,5.3976,5.3976,5.4985,5.668,5.668,5.668,5.668,5.668,5.668,5.6834,5.7997,5.9113,6.0068,6.0508,6.0848,6.1058,6.0736,6.0665,6.0594,6.0308,6.0201,6.0178,6.026,6.0421,6.0582,6.0286,6.0547,6.0651,5.962,5.9541,5.9785,5.9995,6.0327,6.0665,6.0665,6.0879,6.1093,6.1093,6.1093,6.1093,6.1093,6.1093,6.1093,6.1093,6.1093,6.1093,6.1093,6.1093,6.1093,6.1093,6.1093,6.1093,6.1093,6.1093,6.1307,6.1807,6.1926,6.2314,6.3137,6.3783,6.4441,6.5143,6.4944,6.4592,6.3985,6.3462,6.2947,6.244,6.2123,6.1978,3.0369,3.2044,3.3697,3.3697,0.0,0.0,3.6405,3.6405,3.6556,3.7061,3.7462,0.0,3.9423,0.0,0.0,0.0,4.5598,4.7272,4.8432,4.903,4.9583,5.0405,5.0913,5.1229,5.1229,5.1229,5.1229,5.1229,5.1229,5.1229,5.1229,5.1229,5.1229,5.1229,5.1229,5.1229,5.1229,5.1229,5.1229,5.1229,5.1526,5.2471,5.3976,5.3976,5.4985,5.668,5.668,5.668,5.668,5.668,5.6954,5.752,5.8772,5.9711,6.0415,6.0878,6.1093,6.1093,6.1093,6.1093,6.1093,6.1093,6.1093,6.1064,6.0974,6.1004,6.1034,6.0701,6.0823,6.1034,6.0823,6.0762,6.0823,6.1034,6.1093,6.1093,6.1093,6.1093,6.1093,6.1093,6.1093,6.1093,6.1093,6.1093,6.1093,6.1093,6.1093,6.1093,6.1093,6.1093,6.1093,6.1093,6.1093,6.1093,6.1093,6.1093,6.148,6.2325,6.2725,6.3287,6.4051,6.4549,6.495,6.5291,6.4845,6.4137,6.32,6.2947,6.2549,6.1978,6.1978,6.1978,3.1455,3.3128,3.4775,0.0,0.0,0.0,3.6405,3.6405,3.6581,3.7086,3.809,3.9247,4.0313,4.1345,0.0,4.4078,4.5144,4.6605,4.8985,4.9299,4.9763,5.105,5.1229,5.1229,5.1229,5.1229,5.1229,5.1229,5.1229,5.1229,5.1229,5.1229,5.1229,5.1229,5.1229,5.1229,5.1229,5.1229,5.1229,5.1229,5.2185,5.3064,5.3976,5.4019,5.4985,5.668,5.668,5.668,5.668,5.6719,5.7594,5.8977,5.9711,6.0446,6.1093,6.1093,6.1093,6.1093,6.1093,6.1093,6.1093,6.1093,6.1093,6.1034,6.0701,6.0823,6.1034,6.0701,6.0854,6.1093,6.1093,6.1093,6.1093,6.1093,6.1093,6.1093,6.1093,6.1093,6.1093,6.1093,6.1093,6.1093,6.1093,6.1093,6.1093,6.1093,6.1093,6.1093,6.1093,6.1093,6.1093,6.1093,6.1093,6.1093,6.1093,6.1093,6.1539,6.2439,6.3405,6.4196,6.487,6.4459,6.4563,6.5255,6.3912,6.32,6.3164,6.2404,6.1978,6.1978,6.1978,6.1978,3.0453,3.2044,0.0,3.3697,0.0,0.0,0.0,3.6935,0.0,0.0,3.8944,3.9599,4.016,4.1169,0.0,4.3787,4.5024,4.6605,4.8985,4.9299,4.9763,5.105,5.1229,5.1229,5.1229,5.1229,5.1229,5.1229,5.1229,5.1229,5.1229,5.1229,5.1229,5.1229,5.1229,5.1229,5.1229,5.1229,5.1229,5.1229,5.2185,5.3064,5.4019,5.4653,5.5588,5.668,5.668,5.668,5.6719,5.7256,5.8033,5.8977,5.9711,6.0446,6.1093,6.1093,6.1093,6.1093,6.1093,6.1093,6.1093,6.1093,6.1093,6.1064,6.0974,6.1004,6.1064,6.0974,6.1004,6.1093,6.1093,6.1093,6.1093,6.1093,6.1093,6.1093,6.1093,6.1093,6.1093,6.1093,6.1093,6.1093,6.1093,6.1093,6.1093,6.1093,6.1093,6.1307,6.1843,6.1914,6.1914,6.1914,6.145,6.1093,6.1093,6.1628,6.2111,6.2475,6.3376,6.4033,6.438,6.491,6.4773,6.3832,6.339,6.2911,6.2367,6.2123,6.1978,6.1978,6.1978,6.1978,3.1249,3.2851,0.0,3.4483,3.5574,3.6933,3.7663,0.0,0.0,0.0,3.9397,3.9929,4.0185,4.1295,0.0,4.3862,4.5024,4.6605,4.8985,4.9299,4.9763,5.105,5.1229,5.1229,5.1229,5.1229,5.1229,5.1229,5.1229,5.1229,5.1229,5.1229,5.1229,5.1229,5.1229,5.1229,5.1229,5.1229,5.1386,5.1773,5.274,5.3632,5.4527,5.5067,5.5829,5.668,5.668,5.6872,5.7181,5.7925,5.8668,5.9414,6.0129,6.0696,6.1093,6.1093,6.1093,6.1093,6.1093,6.1093,6.1093,6.1093,6.1093,6.1093,6.1093,6.1093,6.1093,6.1093,6.1093,6.1093,6.1093,6.1093,6.1093,6.1093,6.1093,6.1093,6.1093,6.1093,6.1093,6.1093,6.1093,6.1093,6.1093,6.1093,6.12,6.1521,6.1807,6.2199,6.2663,6.2735,6.2735,6.2735,6.2021,6.1557,6.1557,6.1795,6.2099,6.2563,6.3177,6.3639,6.3783,6.4367,6.4178,6.32,6.2875,6.2476,6.1978,6.1978,6.1978,6.1978,6.1978,6.1978,3.3051,3.4629,3.6263,3.6313,3.6837,0.0,3.8693,3.8969,3.8994,3.8994,0.0,4.0185,4.0491,4.1544,4.284,4.4078,4.5144,4.6605,4.8985,4.9299,4.9763,5.105,5.1229,5.1229,5.1229,5.1229,5.1229,5.1229,5.1229,5.1229,5.1229,5.1229,5.1229,5.1229,5.1229,5.1229,5.1229,5.1229,5.1635,5.2606,5.3545,5.4485,5.5312,5.5393,5.5908,5.668,5.668,5.7105,5.785,5.8599,5.9347,6.0065,6.0818,6.1093,6.1093,6.1093,6.1093,6.1093,6.1093,6.1093,6.1093,6.1093,6.1093,6.1093,6.1093,6.1093,6.1093,6.1093,6.1093,6.1093,6.1093,6.1093,6.1093,6.1093,6.1093,6.1093,6.1093,6.1093,6.1093,6.1093,6.1093,6.1093,6.1093,6.1165,6.1486,6.2271,6.302,6.3484,6.3484,6.3484,6.3484,6.3484,6.2842,6.2408,6.2408,6.1885,6.1852,6.2702,6.289,6.3032,6.3092,6.3164,6.3164,6.3092,6.2367,6.1978,6.1978,6.1978,6.1978,6.1978,6.1978,6.2005,3.192,3.3525,0.0,3.5648,3.7147,3.8617,3.8869,3.9398,3.9854,3.9854,4.0007,4.0236,4.0744,4.1693,4.284,4.4078,4.5144,4.6605,4.8985,4.9299,4.9763,5.105,5.1229,5.1229,5.1229,5.1229,5.1229,5.1229,5.1229,5.1229,5.1229,5.1229,5.1229,5.1229,5.1229,5.1229,5.1229,5.1229,5.1635,5.2606,5.3545,5.4485,5.5312,5.6067,5.6525,5.668,5.668,5.7105,5.785,5.8599,5.9347,6.0065,6.0818,6.1093,6.1093,6.1093,6.1093,6.1093,6.1093,6.1093,6.1093,6.1093,6.1093,6.1093,6.1093,6.1093,6.1093,6.1093,6.1093,6.1093,6.1093,6.1093,6.1093,6.1093,6.1093,6.1093,6.1093,6.1093,6.1093,6.1093,6.1093,6.1093,6.1093,6.1628,6.2307,6.3056,6.3841,6.4341,6.4341,6.4341,6.4341,6.4341,6.3627,6.3224,6.3381,6.3268,6.3095,6.2954,6.2983,6.2779,6.2268,6.2875,6.2911,6.2295,6.2087,6.1978,6.1978,6.1978,6.1978,6.1978,6.1978,6.206,3.2514,0.0,0.0,3.6848,0.0,3.8994,3.9195,3.9727,4.0134,4.0287,4.0389,4.0593,4.0846,4.1842,4.2985,4.4125,4.5144,4.6605,4.8985,4.9299,4.9763,5.105,5.1229,5.1229,5.1229,5.1229,5.1229,5.1229,5.1229,5.1229,5.1229,5.1229,5.1229,5.1229,5.1229,5.1229,5.1229,5.1229,5.1911,5.3284,5.3762,5.4694,5.5988,5.6486,5.668,5.6719,5.7067,5.7668,5.8389,5.9113,5.9873,6.0538,6.0974,6.1093,6.1093,6.1093,6.1093,6.1093,6.1093,6.1093,6.1093,6.1093,6.1093,6.1093,6.1093,6.1093,6.1093,6.1093,6.1093,6.1093,6.1093,6.1093,6.1093,6.1093,6.1093,6.1093,6.1093,6.1093,6.1093,6.1093,6.1414,6.1664,6.1664,6.2628,6.352,6.3912,6.4662,6.5161,6.5161,6.5161,6.5193,6.5256,6.4572,6.4169,6.4387,6.4088,6.3667,6.3047,6.3032,6.2755,6.2014,6.2404,6.244,6.2014,6.1978,6.1978,6.1978,6.1978,6.1978,6.1978,6.206,6.2141,3.3333,3.4735,3.6351,3.8366,3.8994,0.0,3.9648,3.9981,4.0236,4.0491,4.0744,4.0896,4.0946,4.2137,4.3321,4.4172,4.5281,4.6814,4.8985,4.9299,4.9763,5.105,5.1229,5.1229,5.1229,5.1229,5.1229,5.1229,5.1229,5.1229,5.1229,5.1229,5.1229,5.1229,5.1229,5.1229,5.1229,5.1339,5.229,5.3976,5.4317,5.5263,5.668,5.668,5.668,5.6719,5.7368,5.8105,5.8977,5.9546,6.0321,6.1093,6.1093,6.1093,6.1093,6.1093,6.1093,6.1093,6.1093,6.1093,6.1093,6.1093,6.1093,6.1093,6.1093,6.1093,6.1093,6.1093,6.1093,6.1093,6.1093,6.1093,6.1129,6.1272,6.1307,6.1307,6.1307,6.1307,6.1343,6.145,6.2021,6.2521,6.2663,6.377,6.4662,6.4804,6.5375,6.5804,6.5804,6.5836,6.5863,6.599,6.5479,6.5212,6.5328,6.4764,6.413,6.3473,6.3289,6.2911,6.2259,6.205,6.1978,6.1978,6.1978,6.1978,6.1978,6.1978,6.2005,6.2033,6.2168,6.2212,3.2493,0.0,3.7245,0.0,3.922,3.9648,0.0,0.0,4.0491,0.0,4.0896,4.0997,4.1198,4.2819,4.4125,4.4266,4.5898,4.7627,4.9075,4.9299,4.9763,5.105,5.1229,5.1229,5.1229,5.1229,5.1229,5.1229,5.1229,5.1229,5.1229,5.1229,5.1229,5.1229,5.1229,5.1229,5.1229,5.2002,5.2962,5.4019,5.5588,5.6486,5.668,5.668,5.668,5.6719,5.6796,5.7631,5.8909,5.9011,5.9873,6.1093,6.1093,6.1093,6.1093,6.1093,6.1093,6.1093,6.1093,6.1093,6.1093,6.1093,6.1093,6.1093,6.1093,6.1093,6.1093,6.1093,6.1093,6.1093,6.1093,6.1093,6.1272,6.195,6.2128,6.2128,6.2128,6.2128,6.2307,6.2949,6.3163,6.3448,6.4162,6.4483,6.484,6.5518,6.5732,6.5804,6.5804,6.5895,6.599,6.6021,6.6074,6.6156,6.6307,6.558,6.5199,6.5272,6.3961,6.3128,6.3019,6.2367,6.1978,6.1978,6.1978,6.1978,6.1978,6.1978,6.206,6.2158,6.2185,6.2318,3.3643,3.5788,3.7823,0.0,3.9521,3.98,4.0032,4.0287,4.0593,4.0846,4.1047,4.1147,4.1274,4.2964,4.4312,4.4312,4.5987,4.7638,4.8566,4.909,4.9613,5.0495,5.0943,5.1229,5.1229,5.1229,5.1229,5.1229,5.1229,5.1229,5.1229,5.1229,5.1229,5.1229,5.1229,5.1229,5.1229,5.2139,5.3328,5.4736,5.61,5.668,5.668,5.668,5.668,5.6757,5.7594,5.8318,5.8943,5.9774,6.0508,6.1093,6.1093,6.1093,6.1093,6.1093,6.1093,6.1093,6.1093,6.1093,6.1093,6.1093,6.1093,6.1093,6.1093,6.1093,6.12,6.1628,6.1771,6.1843,6.2271,6.2378,6.2485,6.2806,6.2913,6.302,6.3484,6.3234,6.3127,6.3912,6.4091,6.4341,6.5126,6.5268,6.5411,6.5768,6.5804,6.5836,6.5895,6.5958,6.6048,6.6269,6.6361,6.6452,6.6668,6.6342,6.5974,6.5627,6.4939,6.4142,6.3237,6.2875,6.2476,6.2014,6.1978,6.1978,6.1978,6.2087,6.2168,6.2185,6.2344,6.25,3.4585,0.0,3.7713,3.8921,3.9465,3.98,0.0,0.0,4.0593,4.0946,4.1147,4.1324,4.1324,4.2964,4.4312,4.4312,4.5987,4.7549,4.8207,4.891,4.9494,5.0106,5.0764,5.1229,5.1229,5.1229,5.1229,5.1229,5.1229,5.1229,5.1229,5.1229,5.1229,5.1229,5.1229,5.1229,5.1229,5.2381,5.3859,5.5636,5.6375,5.668,5.668,5.668,5.668,5.6757,5.8069,5.8737,5.9011,6.029,6.0944,6.1093,6.1093,6.1093,6.1093,6.1093,6.1093,6.1093,6.1093,6.1093,6.1093,6.1093,6.1093,6.1093,6.1093,6.1236,6.1521,6.2128,6.2414,6.2699,6.3234,6.3377,6.3448,6.3663,6.3698,6.3877,6.4483,6.4305,6.4198,6.4804,6.4912,6.5126,6.5697,6.5804,6.5804,6.5804,6.5836,6.5863,6.599,6.6048,6.6238,6.6482,6.6578,6.6638,6.6793,6.6786,6.6533,6.5953,6.57,6.5048,6.3852,6.3418,6.2938,6.2386,6.2169,6.206,6.206,6.2168,6.2212,6.2291,6.272,6.2922,0.0,3.5421,0.0,3.7713,3.8868,3.9852,4.0364,4.0517,4.0669,4.1174,4.1274,4.1324,4.1324,4.2964,4.4312,4.4312,4.5987,4.7549,4.8207,4.891,4.9494,5.0106,5.0764,5.1229,5.1229,5.1229,5.1229,5.1229,5.1229,5.1229,5.1229,5.1229,5.1229,5.1229,5.1229,5.1229,5.1229,5.2976,5.4819,5.6641,5.668,5.668,5.668,5.668,5.668,5.6757,5.752,5.8247,5.8977,5.9744,6.0446,6.1093,6.1093,6.1093,6.1093,6.1093,6.1093,6.1093,6.1093,6.1093,6.1093,6.1093,6.1093,6.1093,6.1093,6.1628,6.2235,6.2271,6.2806,6.3341,6.3377,6.3377,6.3591,6.4376,6.4555,6.4555,6.4559,6.5161,6.5697,6.5732,6.5732,6.5768,6.5804,6.5804,6.5804,6.5804,6.5895,6.5985,6.5985,6.63,6.6482,6.6482,6.6668,6.6786,6.6786,6.6786,6.6786,6.675,6.6025,6.5555,6.5482,6.3997,6.3247,6.3321,6.2585,6.2185,6.2185,6.2185,6.2318,6.2578,6.3382,6.3852,0.0,0.0,0.0,3.7447,3.8372,3.9104,4.0236,4.0643,4.0846,4.1198,4.1324,4.1324,4.1324,4.2964,4.4312,4.4312,4.5987,4.7399,4.7608,4.8237,4.8865,4.9553,5.0182,5.0704,5.1169,5.1229,5.1229,5.1229,5.1229,5.1229,5.1229,5.1229,5.1229,5.1229,5.1229,5.1773,5.3007,5.3675,5.4902,5.668,5.668,5.668,5.668,5.668,5.6987,5.748,5.8176,5.8668,5.9011,6.0227,6.0848,6.1093,6.1093,6.1093,6.1093,6.1093,6.1093,6.1093,6.1093,6.1093,6.1093,6.1093,6.1093,6.12,6.17,6.2057,6.2485,6.3484,6.3984,6.4305,6.4804,6.4947,6.5019,6.5304,6.5375,6.5375,6.5375,6.559,6.5804,6.5804,6.5804,6.5804,6.5804,6.5863,6.5927,6.5927,6.6083,6.6207,6.63,6.6421,6.6542,6.6668,6.6757,6.6786,6.6786,6.6786,6.6786,6.6786,6.6533,6.6134,6.5627,6.5048,6.4335,6.3421,6.313,6.2757,6.2354,6.2397,6.2756,6.3372,6.3778,6.4296,3.3649,0.0,0.0,3.6858,3.7796,3.8715,4.0185,4.0694,4.0997,4.1248,4.1324,4.1324,4.1324,4.2674,4.3937,4.4266,4.5987,4.7309,4.7309,4.7878,4.8446,4.894,4.9703,5.0375,5.0794,5.1079,5.1229,5.1229,5.1229,5.1229,5.1229,5.1229,5.1229,5.1323,5.1588,5.253,5.419,5.4495,5.5353,5.6796,5.6796,5.6757,5.668,5.668,5.7105,5.785,5.8599,5.9045,5.9347,6.0569,6.1093,6.1093,6.1093,6.1093,6.1093,6.1093,6.1093,6.1093,6.1093,6.1093,6.1093,6.1093,6.1272,6.1593,6.2128,6.2663,6.327,6.4305,6.4804,6.5126,6.5661,6.5804,6.5804,6.5804,6.5804,6.5804,6.5804,6.5804,6.5804,6.5804,6.5804,6.5804,6.5832,6.5958,6.6016,6.6115,6.6238,6.6391,6.6482,6.6542,6.6668,6.6793,6.6786,6.6786,6.6786,6.6786,6.6786,6.6786,6.6786,6.6598,6.6112,6.5822,6.5255,6.4357,6.3811,6.3345,6.2965,6.2724,6.2922,6.346,6.3892,6.453,0.0,0.0,0.0,3.5913,3.7263,3.8662,4.0185,4.0744,4.0997,4.1274,4.1324,4.1324,4.1324,4.2137,4.3129,4.4125,4.5943,4.7266,4.7266,4.7848,4.8267,4.8297,4.9404,5.0136,5.0166,5.0734,5.1169,5.1199,5.1199,5.1199,5.1229,5.1229,5.1339,5.1572,5.2395,5.3427,5.4579,5.541,5.627,5.6987,5.6987,5.6872,5.668,5.668,5.7105,5.7887,5.8599,5.9314,6.01,6.0788,6.1093,6.1093,6.1093,6.1093,6.1093,6.1093,6.1093,6.1093,6.1093,6.1093,6.1093,6.1093,6.1628,6.2271,6.2337,6.3377,6.4626,6.4626,6.5197,6.5804,6.5804,6.5804,6.5804,6.5804,6.5804,6.5804,6.5804,6.5804,6.5804,6.5804,6.5804,6.5867,6.599,6.5985,6.6083,6.6269,6.6421,6.6512,6.6512,6.6668,6.6786,6.6786,6.6786,6.6786,6.6786,6.6786,6.6786,6.6786,6.6786,6.6845,6.6983,6.6256,6.596,6.6198,6.4626,6.3899,6.409,6.3082,6.2679,6.2853,6.3723,6.453,3.2669,0.0,0.0,0.0,0.0,0.0,4.0262,4.0997,4.1198,4.1274,4.1324,4.1324,4.1324,4.2137,4.2889,4.3177,4.4886,4.6211,4.6211,4.6992,4.7758,4.8237,4.8596,4.9015,4.9494,4.9703,5.0002,5.0435,5.0465,5.0767,5.1449,5.1695,5.1787,5.188,5.2124,5.3007,5.4579,5.4828,5.5676,5.6987,5.6987,5.6872,5.668,5.668,5.7372,5.8633,5.8841,5.9611,6.0818,6.1034,6.1093,6.1093,6.1093,6.1093,6.1093,6.1093,6.1093,6.1093,6.1093,6.1093,6.1093,6.1093,6.1628,6.2378,6.2913,6.3805,6.4733,6.5304,6.5625,6.5804,6.5804,6.5804,6.5804,6.5804,6.5804,6.5804,6.5804,6.5804,6.5804,6.5804,6.5804,6.5867,6.599,6.6115,6.6269,6.6421,6.6608,6.6697,6.6697,6.6757,6.6786,6.6786,6.6786,6.6786,6.6786,6.6786,6.6786,6.6786,6.6786,6.6845,6.6983,6.6801,6.6543,6.6198,6.5201,6.4475,6.409,6.3195,6.3085,6.3759,6.4567,6.5081,0.0,0.0,0.0,0.0,0.0,0.0,3.993,4.0846,4.1324,4.1324,4.1324,4.1324,4.1324,4.1769,4.2333,4.2744,4.4144,4.5326,4.5734,4.6682,4.7459,4.7848,4.8117,4.8446,4.8805,4.9344,4.9823,5.0166,5.0435,5.0903,5.1572,5.1834,5.2048,5.2109,5.2815,5.3762,5.487,5.5603,5.6348,5.7139,5.7139,5.6987,5.668,5.668,5.752,5.8909,5.8909,5.9741,6.1093,6.1093,6.1093,6.1093,6.1093,6.1093,6.1093,6.1093,6.1093,6.1093,6.1093,6.1093,6.1165,6.1486,6.2128,6.2877,6.3663,6.4448,6.5197,6.5661,6.5804,6.5804,6.5804,6.5804,6.5804,6.5804,6.5804,6.5804,6.5804,6.5804,6.5804,6.5804,6.5867,6.5927,6.6115,6.6269,6.6421,6.6608,6.6727,6.6786,6.6786,6.6786,6.6786,6.6786,6.6786,6.6786,6.6786,6.6786,6.6815,6.6874,6.6874,6.699,6.7219,6.7219,6.7112,6.6819,6.6013,6.5113,6.409,6.3246,6.3062,6.3576,6.442,6.4604,0.0,0.0,0.0,0.0,3.6673,0.0,3.939,4.0516,4.1324,4.1324,4.1324,4.1324,4.1324,4.1324,4.1597,4.2479,4.3559,4.4638,4.5644,4.6682,4.7309,4.7309,4.7818,4.8177,4.8177,4.9284,5.0062,5.0122,5.0857,5.1433,5.1665,5.1926,5.2155,5.2352,5.3945,5.4952,5.5312,5.692,5.7625,5.7327,5.7327,5.7101,5.6719,5.6719,5.752,5.8909,5.8909,5.9741,6.1093,6.1093,6.1093,6.1093,6.1093,6.1093,6.1093,6.1093,6.1093,6.1093,6.1093,6.1093,6.1236,6.2021,6.2806,6.3555,6.4376,6.5161,6.5804,6.5804,6.5804,6.5804,6.5804,6.5804,6.5804,6.5804,6.5804,6.5804,6.5804,6.5804,6.5836,6.5836,6.5927,6.6083,6.6269,6.6421,6.6542,6.6757,6.6786,6.6786,6.6786,6.6786,6.6786,6.6786,6.6786,6.6786,6.6786,6.6786,6.6874,6.6983,6.6983,6.719,6.7506,6.747,6.7552,6.7687,6.6806,6.5632,6.409,6.3246,6.278,6.2817,6.3576,6.3539,0.0,0.0,0.0,0.0,3.7156,0.0,3.9673,4.0694,4.1324,4.1324,4.1324,4.1324,4.1324,4.1324,4.1348,4.1547,4.3129,4.4638,4.5644,4.6682,4.7309,4.7309,4.7429,4.7489,4.7489,4.8207,4.8954,4.9674,5.1183,5.2124,5.217,5.2427,5.2563,5.2608,5.362,5.4569,5.5312,5.6309,5.7105,5.7551,5.7364,5.7176,5.6949,5.6757,5.752,5.8909,5.8909,5.9741,6.1093,6.1093,6.1093,6.1093,6.1093,6.1093,6.1093,6.1093,6.1093,6.1093,6.1093,6.1093,6.1236,6.2021,6.2806,6.3555,6.4376,6.5161,6.5804,6.5804,6.5804,6.5804,6.5804,6.5804,6.5804,6.5804,6.5804,6.5804,6.5804,6.5863,6.5958,6.5958,6.5954,6.6115,6.6391,6.6482,6.6542,6.6757,6.6786,6.6786,6.6786,6.6786,6.6786,6.6786,6.6786,6.6786,6.6786,6.6903,6.699,6.7019,6.7097,6.7238,6.747,6.747,6.7552,6.7687,6.6256,6.5081,6.409,6.3246,6.278,6.278,6.2989,6.2989,0.0,0.0,0.0,3.5663,0.0,0.0,0.0,4.0415,4.1324,4.1324,4.1324,4.1324,4.1324,4.1324,4.1448,4.1967,4.3321,4.4638,4.5644,4.6682,4.7309,4.7309,4.7309,4.7472,4.7932,4.8563,4.9433,5.0729,5.1759,5.2306,5.2306,5.2563,5.2922,5.3346,5.419,5.5067,5.5955,5.6806,5.7368,5.7588,5.7402,5.7176,5.6987,5.6796,5.752,5.8909,5.8909,5.9741,6.1093,6.1093,6.1093,6.1093,6.1093,6.1093,6.1093,6.1093,6.1093,6.1093,6.1093,6.1343,6.1807,6.2592,6.3377,6.4162,6.4947,6.5482,6.5804,6.5804,6.5804,6.5804,6.5804,6.5804,6.5804,6.5804,6.5804,6.5804,6.5804,6.5859,6.5949,6.6146,6.6172,6.6228,6.6452,6.6572,6.6697,6.6757,6.6786,6.6786,6.6786,6.6786,6.6786,6.6786,6.6786,6.6815,6.6903,6.6961,6.7076,6.7247,6.7331,6.7442,6.7579,6.7579,6.7633,6.7687,6.6512,6.5521,6.4714,6.387,6.3209,6.278,6.278,6.278,0.0,0.0,0.0,0.0,0.0,3.8844,0.0,0.0,0.0,4.1324,4.1324,4.1324,4.1324,4.1324,4.1547,4.2382,4.3368,4.4312,4.5115,4.6166,4.6975,4.7352,4.7309,4.7635,4.8602,4.943,5.0532,5.1926,5.2246,5.2397,5.2397,5.2712,5.3258,5.3976,5.5026,5.5876,5.6575,5.7443,5.7808,5.7588,5.7402,5.7176,5.6987,5.6796,5.752,5.8909,5.8772,5.9611,6.1093,6.0974,6.0974,6.1093,6.1093,6.1093,6.1093,6.1093,6.1093,6.1093,6.1093,6.1628,6.2414,6.3163,6.4055,6.4947,6.559,6.5804,6.5804,6.5804,6.5804,6.5804,6.5804,6.5804,6.5804,6.5804,6.5804,6.5804,6.5804,6.5788,6.5904,6.6202,6.6349,6.6404,6.6542,6.6697,6.6786,6.6786,6.6786,6.6786,6.6786,6.6786,6.6786,6.6786,6.6815,6.6874,6.7019,6.7076,6.7219,6.747,6.7497,6.7579,6.7687,6.7687,6.7687,6.7687,6.6916,6.6109,6.5301,6.4494,6.3649,6.278,6.278,6.278,0.0,0.0,0.0,0.0,3.8056,0.0,3.975,0.0,4.1324,4.1324,0.0,4.1324,4.1324,0.0,0.0,4.1448,4.2333,4.3033,4.3129,4.4406,4.5898,4.7409,4.7439,4.7722,4.8862,5.0266,5.1422,5.22,5.2518,5.2653,5.2653,5.3434,5.3922,5.3976,5.5595,5.6498,5.6614,5.7443,5.7808,5.7588,5.7402,5.7176,5.6987,5.6796,5.752,5.884,5.8212,5.9146,6.1064,6.0384,6.0508,6.1093,6.1093,6.1093,6.1093,6.1093,6.1093,6.1093,6.1093,6.1628,6.2414,6.3163,6.4412,6.5697,6.5768,6.5804,6.5804,6.5804,6.5804,6.5804,6.5804,6.5804,6.5804,6.5804,6.5804,6.5804,6.5804,6.5811,6.592,6.6233,6.6548,6.6757,6.6757,6.6757,6.6786,6.6786,6.6786,6.6786,6.6786,6.6786,6.6786,6.6786,6.6903,6.699,6.7019,6.7275,6.7442,6.7506,6.7606,6.7687,6.7687,6.7687,6.7687,6.7687,6.6916,6.6109,6.5301,6.4494,6.3649,6.278,6.278,6.278,0.0,0.0,0.0,0.0,0.0,0.0,4.0032,0.0,4.1324,0.0,0.0,0.0,0.0,0.0,0.0,0.0,4.2137,4.2889,4.3252,4.4312,4.5355,4.6077,4.6682,4.7785,4.9552,5.1203,5.2211,5.2487,5.2653,5.2698,5.2698,5.3024,5.3707,5.4736,5.5474,5.6309,5.7331,5.7735,5.7808,5.7588,5.7402,5.7176,5.6987,5.6796,5.7293,5.8247,5.7959,5.8806,6.0446,6.0132,6.0415,6.1165,6.1593,6.1521,6.1093,6.1093,6.1379,6.1807,6.1807,6.2592,6.377,6.4555,6.5233,6.5804,6.5804,6.5804,6.5804,6.5804,6.5477,6.5076,6.5076,6.5006,6.4866,6.4866,6.5355,6.5809,6.5805,6.5824,6.5946,6.6463,6.6679,6.6786,6.6786,6.6786,6.6786,6.6786,6.6786,6.6786,6.6786,6.6786,6.6815,6.6903,6.699,6.7105,6.7275,6.7414,6.7524,6.7606,6.766,6.7687,6.7687,6.7687,6.7687,6.7687,6.7357,6.6806,6.5999,6.5191,6.4383,6.3539,6.3062,6.283,3.737,0.0,0.0,0.0,0.0,0.0,0.0,0.0,0.0,0.0,4.1324,0.0,0.0,0.0,0.0,0.0,0.0,4.2577,4.3108,4.3918,4.4712,4.531,4.6711,4.8325,5.0089,5.1723,5.2698,5.2698,5.2698,5.2698,5.2698,5.3157,5.4008,5.5271,5.5763,5.6619,5.7881,5.7881,5.7808,5.7588,5.7402,5.7176,5.6987,5.6796,5.7105,5.7777,5.7594,5.8318,5.9679,5.969,6.0253,6.1179,6.1742,6.1863,6.1736,6.1736,6.2092,6.2592,6.2592,6.3484,6.4702,6.5294,6.5477,6.5477,6.5477,6.5311,6.5212,6.5409,6.4908,6.4218,6.4079,6.4148,6.4181,6.4042,6.4915,6.5825,6.582,6.5288,6.5242,6.6563,6.6803,6.6786,6.6786,6.6786,6.6786,6.6786,6.6786,6.6786,6.6786,6.6815,6.6903,6.7019,6.7105,6.7247,6.747,6.7524,6.7579,6.7687,6.7687,6.7687,6.7687,6.7687,6.7687,6.7687,6.7687,6.7283,6.6512,6.5705,6.4897,6.4053,6.3209,6.2953,0.0,0.0,0.0,3.9853,0.0,0.0,0.0,0.0,4.1324,0.0,0.0,0.0,0.0,0.0,0.0,0.0,0.0,0.0,0.0,4.2631,4.3757,4.5882,4.8134,4.9674,5.0138,5.1728,5.2698,5.2698,5.2698,5.2698,5.2698,5.4274,5.5271,5.5312,5.6958,5.7845,5.7881,5.7881,5.7808,5.7588,5.7402,5.7176,5.6987,5.6796,5.7105,5.7777,5.703,5.7594,5.8944,5.8957,5.9803,6.1162,6.112,6.2013,6.3306,6.3306,6.3341,6.3341,6.3341,6.3912,6.4607,6.4626,6.4635,6.4635,6.4635,6.4113,6.3648,6.4393,6.4077,6.3324,6.2871,6.3482,6.4077,6.3553,6.4636,6.5825,6.582,6.4099,6.3359,6.6245,6.6803,6.6786,6.6786,6.6786,6.6786,6.6786,6.6786,6.6786,6.6786,6.6903,6.7019,6.7019,6.7303,6.7506,6.747,6.7606,6.7687,6.7687,6.7687,6.7687,6.7687,6.7687,6.7687,6.7687,6.7687,6.7283,6.6512,6.5705,6.4897,6.4053,6.3209,6.3086,3.975,0.0,3.9853,4.0694,0.0,0.0,0.0,0.0,0.0,0.0,0.0,0.0,0.0,0.0,0.0,0.0,0.0,0.0,0.0,4.3684,4.5085,4.667,4.8097,4.9328,5.0305,5.1773,5.2698,5.2698,5.2698,5.2698,5.2698,5.329,5.4094,5.5239,5.5876,5.6696,5.7881,5.7881,5.7808,5.7588,5.7402,5.7176,5.6987,5.6796,5.6834,5.7067,5.6796,5.7524,5.8887,5.8903,5.9788,6.1155,6.1704,6.251,6.3352,6.2858,6.329,6.4207,6.422,6.4374,6.4522,6.3973,6.3827,6.3827,6.3827,6.3612,6.3466,6.3721,6.3279,6.2638,6.2464,6.2824,6.323,6.338,6.4659,6.523,6.3119,6.2542,6.3273,6.624,6.6796,6.6786,6.6786,6.6786,6.6786,6.6786,6.6786,6.6852,6.6969,6.699,6.7105,6.7303,6.7414,6.7524,6.7606,6.766,6.7687,6.7687,6.7687,6.7687,6.7687,6.7687,6.7687,6.7687,6.7687,6.7577,6.7283,6.6476,6.5863,6.5356,6.4503,6.3996,4.0542,4.0542,4.0643,4.1174,4.1324,0.0,4.1324,0.0,4.1324,0.0,0.0,0.0,0.0,0.0,0.0,0.0,0.0,0.0,0.0,4.4879,4.6055,4.7094,4.8191,4.9334,5.0359,5.1835,5.2698,5.2698,5.2698,5.2698,5.2698,5.329,5.4136,5.5239,5.5915,5.6734,5.7881,5.7881,5.7845,5.7698,5.7439,5.7252,5.7101,5.6834,5.6812,5.7077,5.7077,5.7786,5.8916,5.9185,6.0013,6.116,6.1684,6.2483,6.338,6.3166,6.3745,6.4604,6.4596,6.4393,6.4042,6.3279,6.3018,6.3018,6.3018,6.2791,6.2706,6.3213,6.2644,6.1944,6.2179,6.2188,6.2309,6.311,6.3734,6.3793,6.262,6.2385,6.3276,6.625,6.6813,6.6786,6.6786,6.6786,6.6786,6.6786,6.6779,6.6867,6.7055,6.7105,6.721,6.747,6.7524,6.7606,6.7687,6.7687,6.7687,6.7687,6.7687,6.7687,6.7687,6.7687,6.7687,6.7687,6.7687,6.7714,6.7767,6.713,6.6716,6.653,6.5741,6.5156]}]]